[[{"header":{"parameterUnit":"m.s-1","parameterCategory":1,"la1":30.6,"la2":29.2853,"lo1":-89.7004,"lo2":-87.6739,"dy":0.0162,"dx":0.0183,"nx":112,"ny":82,"refTime":"2023-05-14T06:00:00:Z","depth":0,"parameterNumber":2,"parameterNumberName":"U-component_of_WINDS"},"data":[0.0,0.0,0.0,0.0,0.0,0.0,0.0,0.0,0.0,0.0,0.0,0.0,0.0,0.0,0.0,0.0,0.0,0.0,0.0,0.0,0.0,0.0,0.0,0.0,0.0,0.0,0.0,0.0,0.0,0.0,0.0,0.0,0.0,0.0,0.0,0.0,0.0,0.0,0.0,0.0,0.0,0.0,0.0,0.0,0.0,0.0,0.0,0.0,0.0,0.0,0.0,0.0,0.0,0.0,0.0,0.0,0.0,0.0,0.0,0.0,0.0,0.0,0.0,0.0,0.0,0.0,0.0,0.0,0.0,0.0,0.0,0.0,0.0,0.0,0.0,0.0,0.0,0.0,0.0,0.0,0.0,0.0,0.0,0.0,0.0,0.0,0.0,0.0,0.0,0.0,0.0475,-0.052,0.0138,0.0911,0.1737,0.1078,0.1202,0.2609,0.0,0.0,0.0,0.0,0.0,0.0,0.0,0.0,0.0,0.0,0.0,0.0,0.0,0.0,0.0,0.0,0.0,0.0,0.0,0.0,0.0,0.0,0.0,0.0,0.0,0.0,0.0,0.0,0.0,0.0,0.0,0.0,0.0,0.0,0.0,0.0,0.0,0.0,0.0,0.0,0.0,0.0,0.0,0.0,0.0,0.0,0.0,0.0,0.0,0.0,0.0,0.0,0.0,0.0,0.0,0.0,0.0,0.0,0.0,0.0,0.0,0.0,0.0,0.0,0.0,0.0,0.0,0.0,0.0,0.0,0.0,0.0,0.0,0.0,0.0,0.0,0.0,0.0,0.0,0.0,0.0,0.0,0.0,0.0,0.0,0.0,0.0,0.0,0.0,0.0,0.0,0.0,0.0,0.0,0.0,0.0,0.0,0.0,0.0,0.0,0.0,0.0,0.0,0.0,-0.0,-0.196,-0.0,0.0701,-0.117,-0.1603,-0.104,0.0722,0.0,0.0,0.0,0.0,0.0,0.0,0.0,0.0,0.0,0.0,0.0,0.0,0.0,0.0,0.0,0.0,0.0,0.0,0.0,0.0,0.0,0.0,0.0,0.0,0.0,0.0,0.0,0.0,0.0,0.0,0.0,0.0,0.0,0.0,0.0,0.0,0.0,0.0,0.0,0.0,0.0,0.0,0.0,0.0,0.0,0.0,0.0,0.0,0.0,0.0,0.0,0.0,0.0,0.0,0.0,0.0,0.0,0.0,0.0,0.0,0.0,0.0,0.0,0.0,0.0,0.0,0.0,0.0,0.0,0.0,0.0,0.0,0.0,0.0,0.0,0.0,0.0,0.0,0.0,0.0,0.0,0.0,0.0,0.0,0.0,0.0,0.0,0.0,0.0,0.0,0.0,0.0,0.0,0.0,0.0,0.0,0.0,0.0,0.0,0.0,0.0,0.0,0.0,0.0425,-0.0239,-0.1528,-0.0594,-0.0077,-0.047,-0.0831,-0.0435,0.105,0.1202,0.0,0.0,0.0,0.0,0.0,0.0,0.0,0.0,0.0,0.0,0.0,0.0,0.0,0.0,0.0,0.0,0.0,0.0,0.0,0.0,0.0,0.0,0.0,0.0,0.0,0.0,0.0,0.0,0.0,0.0,0.0,0.0,0.0,0.0,0.0,0.0,0.0,0.0,0.0,0.0,0.0,0.0,0.0,0.0,0.0,0.0,0.0,0.0,0.0,0.0,0.0,0.0,0.0,0.0,0.0,0.0,0.0,0.0,0.0,0.0,0.0,0.0,0.0,0.0,0.0,0.0,0.0,0.0,0.0,0.0,0.0,0.0,0.0,0.0,0.0,0.0,0.0,0.0,0.0,0.0,0.0,0.0,0.0,0.0,0.0,0.0,0.0,0.0,0.0,0.0,0.0,0.0,0.0,0.0,0.0,0.0,0.0,0.0,0.0,0.0,0.0,0.0,-0.0289,-0.0757,-0.1249,-0.1401,-0.1075,-0.0078,-0.0303,0.0072,0.1283,0.1062,0.0,0.0,0.0,0.0,0.0,0.0,0.0,0.0,0.0,0.0,0.0,0.0,0.0,0.0,0.0,0.0,0.0,0.0,0.0,0.0,0.0,0.0,0.0,0.0,0.0,0.0,0.0,0.0,0.0,0.0,0.0,0.0,0.0,0.0,0.0,0.0,0.0,0.0,0.0,0.0,0.0,0.0,0.0,0.0,0.0,0.0,0.0,0.0,0.0,0.0,0.0,0.0,0.0,0.0,0.0,0.0,0.0,0.0,0.0,0.0,0.0,0.0,0.0,0.0,0.0,0.0,0.0,0.0,0.0,0.0,0.0,0.0,0.0,0.0,0.0,0.0,0.0,0.0,0.0,0.0,0.0,0.0,0.0,0.0,0.0,0.0,0.0,0.0,0.0,0.0,0.0,0.0,0.0,0.0,0.0,0.0,0.0,0.0,0.0,0.0,0.0,0.0,-0.1118,-0.2095,-0.2096,-0.2175,-0.2192,-0.2037,-0.1876,-0.1348,-0.0068,0.0212,0.0,0.0,0.0,0.0,0.0,0.0,0.0,0.0,0.0,0.0,0.0,0.0,0.0,0.0,0.0,0.0,0.0,0.0,0.0,0.0,0.0,0.0,0.0,0.0,0.0,0.0,0.0,0.0,0.0,0.0,0.0,0.0,0.0,0.0,0.0,0.0,0.0,0.0,0.0,0.0,0.0,0.0,0.0,0.0,0.0,0.0,0.0,0.0,0.0,0.0,0.0,0.0,0.0,0.0,0.0,0.0,0.0,0.0,0.0,0.0,0.0,0.0,0.0,0.0,0.0,0.0,0.0,0.0,0.0,0.0,0.0,0.0,0.0,0.0,0.0,0.0,0.0,0.0,0.0,0.0,0.0,0.0,0.0,0.0,0.0,0.0,0.0,0.0,0.0,0.0,0.0,0.0,0.0,0.0,0.0,0.0,0.0,0.0,0.0,0.0,0.0,0.0,-0.0604,-0.1611,0.0,-0.2128,-0.2101,-0.2095,-0.2004,-0.1353,0.0135,0.0,0.0,0.0,0.0,0.0,0.0,0.0,0.0,0.0,0.0,0.0,0.0,0.0,0.0,0.0,0.0,0.0,0.0,0.0,0.0,0.0,0.0,0.0,0.0,0.0,0.0,0.0,0.0,0.0,0.0,0.0,0.0,0.0,0.0,0.0,0.0,0.0,0.0,0.0,0.0,0.0,0.0,0.0,0.0,0.0,0.0,0.0,0.0,0.0,0.0,0.0,0.0,0.0,0.0,0.0,0.0,0.0,0.0,0.0,0.0,0.0,0.0,0.0,0.0,0.0,0.0,0.0,0.0,0.0,0.0,0.0,0.0,0.0,0.0,0.0,0.0,0.0,0.0,0.0,0.0,0.0,0.0,0.0,0.0,0.0,0.0,0.0,0.0,0.0,0.0,0.0,0.0,0.0,0.0,0.0,0.0,0.0,0.0,0.0,0.0,0.0,0.0,0.0673,-0.0537,-0.1533,0.0,-0.2111,-0.205,-0.2057,-0.2056,-0.1381,0.0203,0.0,0.0,0.0,0.0,0.0,0.0,0.0,0.0,0.0,0.0,0.0,0.0,0.0,0.0,0.0,0.0,0.0,0.0,0.0,0.0,0.0,0.0,0.0,0.0,0.0,0.0,0.0,0.0,0.0,0.0,0.0,0.0,0.0,0.0,0.0,0.0,0.0,0.0,0.0,0.0,0.0,0.0,0.0,0.0,0.0,0.0,0.0,0.0,0.0,0.0,0.0,0.0,0.0,0.0,0.0,0.0,0.0,0.0,0.0,0.0,0.0,0.0,0.0,0.0,0.0,0.0,0.0,0.0,0.0,0.0,0.0,0.0,0.0,0.0,0.0,0.0,0.0,0.0,0.0,0.0,0.0,0.0,0.0,0.0,0.0,0.0,0.0,0.0,0.0,0.0,0.0,0.0,0.0,0.0,0.0,0.0,0.0,0.0,0.0,0.0,0.0,0.0,0.021,-0.1221,-0.2221,-0.2221,-0.2221,-0.2221,-0.2221,-0.2087,-0.1413,0.0,0.0,0.0,0.0,0.0,0.0,0.0,0.0,0.0,0.0,0.0,0.0,0.0,0.0,0.0,0.0,0.0,0.0,0.0,0.0,0.0,0.0,0.0,0.0,0.0,0.0,0.0,0.0,0.0,0.0,0.0,0.0,0.0,0.0,0.0,0.0,0.0,0.0,0.0,0.0,0.0,0.0,0.0,0.0,0.0,0.0,0.0,0.0,0.0,0.0,0.0,0.0,0.0,0.0,0.0,0.0,0.0,0.0,0.0,0.0,0.0,0.0,0.0,0.0,0.0,0.0,0.0,0.0,0.0,0.0,0.0,0.0,0.0,0.0,0.0,0.0,0.0,0.0,0.0,0.0,0.0,0.0,0.0,0.0,0.0,0.0,0.0,0.0,0.0,0.0,0.0,0.0,0.0,0.0,0.0,0.0,0.0,0.0,0.0,0.0,0.0,0.0,0.0,0.0644,-0.1018,-0.2288,-0.2491,-0.2288,-0.2154,-0.2356,-0.2154,-0.1459,0.0075,0.0,0.0,0.0,0.0,0.0,0.0,0.0,0.0,0.0,0.0,0.0,0.0,0.0,0.0,0.0,0.0,0.0,0.0,0.0,0.0,0.0,0.0,0.0,0.0,0.0,0.0,0.0,0.0,0.0,0.0,0.0,0.0,0.0,0.0,0.0,0.0,0.0,0.0,0.0,0.0,0.0,0.0,0.0,0.0,0.0,0.0,0.0,0.0,0.0,0.0,0.0,0.0,0.0,0.0,0.0,0.0,0.0,0.0,0.0,0.0,0.0,0.0,0.0,0.0,0.0,0.0,0.0,0.0,0.0,0.0,0.0,0.0,0.0,0.0,0.0,0.0,0.0,0.0,0.0,0.0,0.0,0.0,0.0,0.0,0.0,0.0,0.0,0.0,0.0,0.0,0.0,0.0,0.0,0.0,0.0,0.0,0.0,0.0,0.0,0.0,0.0,0.0,0.0548,-0.1116,-0.2396,-0.2573,-0.2437,-0.2294,-0.2367,-0.2224,-0.1546,-0.0312,0.0,0.0,0.0,0.0,0.0,0.0,0.0,0.0,0.0,0.0,0.0,0.0,0.0,0.0,0.0,0.0,0.0,0.0,0.0,0.0,0.0,0.0,0.0,0.0,0.0,0.0,0.0,0.0,0.0,0.0,0.0,0.0,0.0,0.0,0.0,0.0,0.0,0.0,0.0,0.0,0.0,0.0,0.0,0.0,0.0,0.0,0.0,0.0,0.0,0.0,0.0,0.0,0.0,0.0,0.0,0.0,0.0,0.0,0.0,0.0,0.0,0.0,0.0,0.0,0.0,0.0,0.0,0.0,0.0,0.0,0.0,0.0,0.0,0.0,0.0,0.0,0.0,0.0,0.0,0.0,0.0,0.0,0.0,0.0,0.0,0.0,0.0,0.0,0.0,0.0,0.0,0.0,0.0,0.0,0.0,0.0,0.0,0.0,0.0,0.0,0.0,0.0,0.0095,-0.1467,-0.2588,-0.2608,-0.2572,-0.2506,-0.2352,-0.2195,-0.1724,-0.0862,0.0,0.0,0.0,0.0,0.0,0.0,0.0,0.0,0.0,0.0,0.0,0.0,0.0,0.0,0.0,0.0,0.0,0.0,0.0,0.0,0.0,0.0,0.0,0.0,0.0,0.0,0.0,0.0,0.0,0.0,0.0,0.0,0.0,0.0,0.0,0.0,0.0,0.0,0.0,0.0,0.0,0.0,0.0,0.0,0.0,0.0,0.0,0.0,0.0,0.0,0.0,0.0,0.0,0.0,0.0,0.0,0.0,0.0,0.0,0.0,0.8944,0.0,0.0,0.0,0.0,0.0,0.0,0.0,0.0,0.0,0.0,0.0,0.0,0.0,0.0,0.0,0.0,0.0,0.0,0.0,0.0,0.0,0.0,0.0,0.0,0.0,0.0,0.0,0.0,0.0,0.0,0.0,0.0,0.0,0.0,0.0,0.0,0.0,0.0,0.0,0.0,0.0,0.0308,-0.1303,-0.2514,-0.2643,-0.2547,-0.251,-0.2431,-0.2275,-0.1803,-0.0864,-0.0529,0.0,0.0,0.0,0.0,0.0,0.0,0.0,0.0,0.0,0.0,0.0,0.0,0.0,0.0,0.0,0.0,0.0,0.0,0.0,0.0,0.0,0.0,0.0,0.0,0.0,0.0,0.0,0.0,0.0,0.0,0.0,0.0,0.0,0.0,0.0,0.0,0.0,0.0,0.0,0.0,0.0,0.0,0.0,0.0,0.0,0.0,0.0,0.0,0.0,0.0,0.0,0.0,0.0,0.0,0.0,0.0,0.0,0.0,0.0,0.0,0.9186,0.0,0.0,0.0,0.0,0.0,0.0,0.0,0.0,0.0,0.0,0.0,0.0,0.0,0.0,0.0,0.0,0.0,0.0,0.0,0.0,0.0,0.0,0.0,0.0,0.0,0.0,0.0,0.0,0.0,0.0,0.0,0.0,0.0,0.0,0.0,0.0,0.0,0.0,0.0,0.0,0.0852,-0.0362,-0.1307,-0.1452,-0.1369,-0.1411,-0.1882,-0.1647,-0.1413,-0.1415,-0.0786,0.0,0.0,0.0,0.0,0.0,0.0,0.0,0.0,0.0,0.0,0.0,0.0,0.0,0.0,0.0,0.0,0.0,0.0,0.0,0.0,0.0,0.0,0.0,0.0,0.0,0.0,0.0,0.0,0.0,0.0,0.0,0.0,0.0,0.0,0.0,0.0,0.0,0.0,0.0,0.0,0.0,0.0,0.0,0.0,0.0,0.0,0.0,0.0,0.0,0.0,0.0,0.0,0.0,1.0523,1.1027,1.1142,1.0541,1.0345,1.048,0.9425,0.8929,0.8975,0.9024,0.0,0.0,0.0,0.0,0.0,0.0,0.0,0.0,0.0,0.0,0.0,0.0,0.0,0.0,0.0,0.0,0.0,0.0,0.0,0.0,0.0,0.0,0.3977,0.3405,0.3295,0.3336,0.326,0.0,0.0,0.0,0.0,0.0,0.0,0.0,0.0,0.0,0.0,0.0,0.1455,0.0627,-0.0,-0.0078,-0.0159,-0.0402,-0.1125,-0.1046,-0.1208,-0.1933,-0.1047,-0.0559,0.0,0.0,0.0,0.0,0.0,0.0,0.0,0.0,0.0,0.0,0.0,0.0,0.0,0.0,0.0,0.0,0.0,0.0,0.0,0.0,0.0,0.0,0.0,0.0,0.0,0.0,0.0,0.0,0.0,0.0,0.0,0.0,0.9336,0.967,0.0,0.0,0.0,0.0,0.0,0.0,0.0,0.0,0.0,0.0,0.0,0.0,0.0,0.9109,0.9278,0.9612,0.9846,0.9772,1.0045,1.0181,1.0211,1.0096,1.0029,1.0077,0.9904,0.0,0.9423,0.968,0.0,0.0,0.0,0.0,0.0,0.0,0.0,0.0,0.0,0.0,0.0,0.0,0.0,0.0,0.0,0.0,0.0,0.0,0.0,0.0,0.0,0.0,0.4026,0.3864,0.3882,0.3874,0.3704,0.3471,0.3325,0.3389,0.3289,0.3119,0.0,0.0,0.0,0.0,0.0,0.0,0.17,0.094,0.0391,0.0156,-0.0589,-0.097,-0.0705,-0.1588,-0.2031,-0.1765,-0.1765,-0.1622,-0.1103,-0.132,0.0,0.0,0.0,0.0,0.0,0.0,0.0,0.0,0.0,0.0,0.0,0.0,0.0,0.0,0.0,0.0,0.0,0.0,0.0,0.0,0.0,0.0,0.0,0.0,0.0,0.0,0.0,0.0,0.0,0.8901,0.9243,0.8936,0.9237,0.9243,0.0,0.0,0.0,0.0,0.0,0.0,0.0,0.0,0.0,0.9234,0.9473,0.9614,0.9732,0.9966,1.0183,1.0207,1.0429,1.0542,1.065,1.065,1.065,1.065,1.065,1.0524,1.0304,1.004,0.964,0.9242,0.0,0.0,0.0,0.0,0.8519,0.7987,0.7908,0.7524,0.698,0.6607,0.0,0.0,0.0,0.0,0.0,0.0,0.0,0.3959,0.3679,0.3786,0.3892,0.3815,0.3926,0.4023,0.3972,0.3778,0.3562,0.3469,0.3458,0.3332,0.3132,0.3205,0.0,0.0,0.0,0.2508,0.2417,0.2117,0.1864,0.1693,0.0876,0.0179,-0.0269,-0.1166,-0.1794,-0.1974,-0.1885,-0.1677,-0.1359,-0.1103,-0.0916,0.0,0.0,0.0,0.0,0.0,0.0,0.0,0.0,0.0,0.0,0.0,0.0,0.0,0.0,0.0,0.0,0.0,0.0,0.0,0.0,0.0,0.0,0.0,0.0,0.0,0.0,0.0,0.0,0.8969,0.9125,0.852,0.8964,0.9166,0.0,0.0,0.0,0.0,0.0,0.0,0.971,0.9712,0.9769,0.9898,1.0134,1.0288,1.0267,1.0537,1.0745,1.0896,1.1057,1.1208,1.1354,1.1354,1.1354,1.135,1.1298,1.1194,1.0986,1.0362,1.006,0.996,0.9941,0.9813,0.972,0.913,0.8616,0.8091,0.7503,0.6996,0.6482,0.6325,0.6147,0.6045,0.5817,0.0,0.0,0.0,0.0,0.3872,0.366,0.3787,0.4008,0.3868,0.4008,0.4221,0.4154,0.4002,0.3824,0.363,0.3586,0.3603,0.3438,0.3498,0.0,0.3266,0.3187,0.3107,0.2813,0.305,0.2964,0.2334,0.1794,0.0987,-0.0,-0.0897,-0.1615,-0.2064,-0.1885,-0.1794,-0.1615,-0.1076,-0.0897,-0.1166,0.0,0.0,0.0,0.0,0.0,0.0,0.0,0.0,0.0,0.0,0.0,0.0,0.0,0.0,0.0,0.0,0.0,0.0,0.0,0.0,0.0,0.0,0.0,0.0,0.0,0.0,0.0,0.0,0.0,0.9056,0.9707,0.0,0.0,0.0,0.0,0.973,0.9589,0.9627,0.9908,1.0057,1.0187,1.031,1.0806,1.1123,1.1132,1.1534,1.1746,1.1756,1.1765,1.1779,1.1784,1.1784,1.1784,1.1775,1.1586,1.1496,1.1449,1.1,1.0557,1.0188,1.0423,1.0243,0.9754,0.8862,0.8388,0.8181,0.706,0.6692,0.656,0.5684,0.5294,0.496,0.4242,0.4378,0.0,0.0,0.4244,0.4185,0.4357,0.4428,0.4551,0.456,0.4557,0.4482,0.4264,0.4304,0.4265,0.397,0.3856,0.3782,0.3364,0.0,0.3643,0.3519,0.3598,0.3356,0.2548,0.3235,0.3054,0.0987,0.0807,0.0448,-0.0359,-0.1436,-0.2064,-0.1794,-0.2064,-0.2154,-0.2154,-0.1885,-0.1436,-0.0807,-0.0893,0.0,0.0,0.0,0.0,0.0,0.0,0.0,0.0,0.0,0.0,0.0,0.0,0.0,0.0,0.0,0.0,0.0,0.0,0.0,0.0,0.0,0.0,0.0,0.0,0.0,0.0,0.0,0.0,0.9435,0.9989,0.0,0.9685,0.9747,0.9804,1.0031,1.0003,1.0183,1.0515,1.0739,1.0948,1.1066,1.1416,1.1595,1.1595,1.1742,1.1817,1.1817,1.1817,1.1817,1.1817,1.1817,1.1817,1.1813,1.1742,1.1709,1.1699,1.1553,1.1123,1.0643,1.0591,1.0442,1.0233,0.9018,0.8242,0.771,0.6423,0.5703,0.5315,0.4962,0.4776,0.4696,0.446,0.4512,0.465,0.4357,0.4219,0.4256,0.4223,0.4381,0.4432,0.4626,0.47,0.4648,0.4564,0.4555,0.4589,0.4375,0.4274,0.4104,0.3938,0.4011,0.3738,0.2615,0.2724,0.2501,0.1242,0.1523,0.1524,0.0805,0.0179,-0.0269,-0.0538,-0.1615,-0.2064,-0.1794,-0.1885,-0.1884,-0.1705,-0.1794,-0.1705,-0.1436,-0.1615,-0.1525,0.0,0.0,0.0,0.0,0.0,0.0,0.0,0.0,0.0,0.0,0.0,0.0,0.0,0.0,0.0,0.0,0.0,0.0,0.0,0.0,0.0,0.0,0.0,0.0,0.0,0.0,1.0206,0.9822,1.0405,1.0746,1.0233,1.0265,1.0433,1.0654,1.071,1.0844,1.1189,1.1331,1.1472,1.1614,1.1817,1.1926,1.1926,1.1992,1.2025,1.203,1.2101,1.2139,1.2139,1.2209,1.22,1.2134,1.2058,1.1987,1.1921,1.1426,1.0959,1.0592,1.039,1.0364,1.0112,0.8493,0.7538,0.7062,0.5812,0.5043,0.4657,0.4628,0.4618,0.4612,0.4581,0.4573,0.4579,0.4416,0.4328,0.4334,0.4361,0.4409,0.4552,0.4652,0.4794,0.4834,0.4734,0.4743,0.4696,0.471,0.453,0.4368,0.4206,0.3939,0.3408,0.252,0.2104,0.1476,0.0538,0.0627,0.0538,-0.0089,-0.0358,-0.0628,-0.0987,-0.1345,-0.1615,-0.1705,-0.1436,-0.1346,-0.1525,-0.1436,-0.1436,-0.1794,-0.2154,-0.2124,-0.1803,0.0,0.0,0.0,0.0,0.0,0.0,0.0,0.0,0.0,0.0,0.0,0.0,0.0,0.0,0.0,0.0,0.0,0.0,0.0,0.0,0.0,0.0,0.0,0.9485,1.0083,1.0494,1.0444,1.107,1.1293,1.088,1.1082,1.1302,1.151,1.1534,1.1624,1.1817,1.1841,1.1846,1.1846,1.2054,1.2172,1.2172,1.2361,1.246,1.246,1.2673,1.2776,1.2781,1.2975,1.2961,1.2762,1.244,1.2238,1.1935,1.0565,1.006,1.0032,0.9859,0.9778,0.932,0.7135,0.6339,0.6234,0.5133,0.4834,0.482,0.4738,0.4712,0.4696,0.4608,0.4581,0.4598,0.4687,0.4712,0.4732,0.4814,0.4834,0.4834,0.4834,0.4834,0.4834,0.4834,0.4834,0.4834,0.4834,0.4698,0.4524,0.4254,0.3315,0.2824,0.3403,0.1876,0.0,0.0455,0.063,0.018,-0.1621,-0.081,-0.045,-0.1441,-0.0898,-0.0806,-0.1429,-0.0806,-0.0897,-0.1794,-0.0987,-0.0896,-0.1877,-0.2336,-0.2768,-0.301,0.0,0.0,0.0,0.0,0.0,0.0,0.0,0.0,0.0,0.0,0.0,0.0,0.0,0.0,0.0,0.0,0.0,0.0,0.0,0.0,0.0,0.0,1.0268,0.9922,1.0563,1.1128,1.1375,1.1726,1.1933,1.1713,1.1671,1.1671,1.1728,1.1879,1.1992,1.2049,1.2337,1.2507,1.2507,1.2706,1.281,1.281,1.2866,1.2895,1.2895,1.2956,1.2984,1.2984,1.2117,1.1655,1.1486,1.0512,1.0008,0.9968,0.9582,0.9318,0.9092,0.8818,0.8724,0.839,0.7068,0.5999,0.5236,0.4935,0.4834,0.483,0.4808,0.48,0.4796,0.4771,0.4763,0.4767,0.4792,0.48,0.4806,0.4828,0.4834,0.4834,0.4834,0.4834,0.4834,0.4834,0.4834,0.4834,0.4834,0.4093,0.3752,0.4499,0.4283,0.3514,0.202,0.1458,0.0601,-0.1078,-0.1075,-0.088,-0.0783,-0.0294,-0.0392,-0.1175,-0.1021,-0.131,-0.254,-0.2429,-0.2513,-0.2694,-0.2694,-0.2792,-0.303,-0.3135,-0.309,0.0,0.0,0.0,0.0,0.0,0.0,0.0,0.0,0.0,0.0,0.0,0.0,0.0,0.0,0.0,0.0,0.0,0.0,0.0,0.0,0.0,0.0,1.0563,1.1125,1.1273,1.1458,1.1817,1.2153,1.2397,1.2606,1.2517,1.2413,1.2337,1.2337,1.2455,1.2526,1.2526,1.2758,1.2895,1.2895,1.3008,1.3065,1.3065,1.3065,1.3065,1.3069,1.2569,1.2374,1.2378,1.1168,1.0453,1.0386,0.9683,0.9262,0.9033,0.8462,0.8109,0.802,0.0,0.0,0.0,0.0,0.5507,0.4949,0.4949,0.4924,0.4898,0.4937,0.4922,0.49,0.4939,0.4949,0.4949,0.4949,0.4949,0.4949,0.4949,0.4949,0.4949,0.4949,0.4949,0.4735,0.43,0.4193,0.3975,0.3527,0.2712,0.0,0.2922,0.2813,0.2275,0.1263,0.0497,-0.0401,-0.147,-0.1693,-0.1615,-0.1313,-0.0982,-0.1059,-0.1634,-0.1329,0.0,0.0,0.0,-0.2356,-0.2356,-0.2828,0.0,0.0,0.0,-0.3222,-0.3222,-0.3127,0.0,0.0,-0.2463,-0.2285,0.0,0.0,0.0,0.0,0.0,0.0,0.0,0.0,0.0,0.0,0.0,0.0,0.0,0.0,0.0,0.0,1.159,1.2151,1.29,1.2507,1.2417,1.2903,1.2975,1.3079,1.3102,1.3084,1.3065,1.3065,1.3088,1.3102,1.2868,0.0,0.0,0.0,0.0,1.3136,1.2906,1.2906,1.2906,1.2906,1.1783,1.1268,1.1154,1.0105,0.9486,0.9361,0.9123,0.8981,0.8524,0.7268,0.6752,0.6985,0.6932,0.6782,0.6384,0.5426,0.5108,0.5108,0.5108,0.0,0.0,0.5081,0.5053,0.5002,0.5084,0.5108,0.5108,0.5002,0.5002,0.5002,0.5002,0.5002,0.5002,0.4788,0.4894,0.4561,0.3145,0.3038,0.2707,0.1625,0.1014,0.0609,0.0606,0.0201,0.0201,0.0605,-0.0807,-0.1789,-0.1233,-0.1768,-0.2123,-0.2224,-0.1996,0.0,-0.2357,-0.1836,-0.1708,-0.2412,-0.1908,-0.1607,-0.1607,-0.2311,-0.2613,-0.2411,-0.2923,-0.3331,-0.3534,-0.3534,-0.3433,-0.323,-0.2623,-0.2219,0.0,0.0,0.0,0.0,0.0,0.0,0.0,0.0,0.0,0.0,0.0,0.0,0.0,0.0,0.0,1.1471,1.1947,1.2593,1.3231,1.3173,1.3289,1.3596,1.3375,1.3136,1.331,1.3169,1.3065,1.3065,1.323,1.2849,1.1779,1.2876,1.2605,1.0557,1.2482,1.3086,1.2009,1.2009,1.2009,1.2009,0.0,0.0,1.0123,0.8818,0.8207,0.8184,0.7101,0.6595,0.6438,0.62,0.6024,0.6025,0.5717,0.5573,0.5422,0.5241,0.5108,0.5108,0.5108,0.5096,0.5086,0.5102,0.5096,0.5086,0.5102,0.5108,0.0,0.4473,0.4365,0.4365,0.4365,0.4365,0.4151,0.3186,0.3295,0.3081,0.0846,0.1173,0.1605,0.0632,0.0108,-0.0431,-0.0914,-0.0403,-0.0202,-0.1008,-0.1412,-0.191,-0.239,-0.2611,-0.2326,-0.1617,-0.1295,-0.1381,-0.2072,-0.1799,-0.2217,-0.3633,-0.3531,-0.343,-0.343,-0.3633,-0.3633,-0.333,-0.3432,-0.3433,-0.323,-0.323,-0.323,-0.323,-0.3029,-0.2726,0.0,0.0,0.0,0.0,0.0,0.0,0.0,0.0,0.0,0.0,0.0,1.07,0.0,0.0,1.2366,1.275,1.3138,1.362,1.4167,1.401,1.3779,1.3769,1.356,1.3419,1.3528,1.3443,1.3377,1.3377,1.2881,1.2218,1.1614,1.1663,1.1141,0.9917,1.1225,1.1479,1.0778,1.0778,1.0738,1.0778,0.9438,0.883,0.883,0.7495,0.6888,0.6888,0.616,0.5892,0.5845,0.58,0.5636,0.5461,0.54,0.5416,0.5371,0.5324,0.5282,0.5245,0.5245,0.5214,0.5184,0.523,0.4996,0.4749,0.4792,0.4588,0.4261,0.3935,0.3935,0.3716,0.3165,0.2946,0.2727,0.1525,0.1526,0.1308,-0.0436,-0.0219,-0.0,-0.1093,-0.1662,-0.2108,-0.2352,-0.2234,-0.2221,-0.2491,-0.2445,-0.2428,-0.2872,-0.2747,-0.2425,-0.2123,-0.1918,-0.2118,-0.2623,-0.2522,-0.2826,-0.3534,-0.3636,-0.3636,-0.3636,-0.3636,-0.3534,-0.3433,-0.3433,-0.3332,-0.323,-0.3433,-0.3636,-0.3636,-0.384,-0.3537,0.0,0.0,0.0,0.0,0.0,0.0,0.0,0.0,0.9989,1.0224,1.0906,1.1589,1.1644,1.242,1.3026,1.3267,1.359,1.3882,1.4222,1.3799,1.3449,1.3204,1.3449,1.3569,1.3324,1.3361,1.3379,1.3379,1.208,1.1244,1.0997,1.038,0.9699,0.9199,0.9813,0.9946,0.9574,0.9545,0.9474,0.948,0.8113,0.7495,0.7495,0.6403,0.5916,0.5916,0.5916,0.5876,0.5802,0.5727,0.558,0.5347,0.558,0.5641,0.5557,0.5541,0.549,0.5433,0.5433,0.5384,0.522,0.5276,0.4808,0.4327,0.4359,0.3932,0.3602,0.3479,0.3258,0.2814,0.191,0.146,0.1011,-0.0225,-0.0225,-0.0337,-0.1693,-0.1578,-0.1574,-0.2806,-0.3255,-0.3481,-0.3587,-0.3921,-0.4104,-0.3774,-0.3456,-0.3297,-0.332,-0.3063,-0.2927,-0.3033,-0.303,-0.3029,-0.323,-0.323,-0.323,-0.323,-0.323,-0.323,-0.323,-0.323,-0.323,-0.323,-0.323,-0.323,-0.3332,-0.3838,-0.4039,-0.4137,-0.4643,-0.4342,0.7604,0.791,0.8618,0.9402,0.9665,1.005,0.0,0.0,1.1288,1.2114,1.2639,1.2734,1.1672,1.2046,1.2239,1.12,1.113,1.1226,1.1265,1.1273,1.1152,1.1152,1.2603,1.3204,1.1993,1.2012,1.2098,1.2098,1.1007,0.97,0.8557,0.9462,0.8961,0.6675,0.8849,0.9484,0.8325,0.8218,0.8157,0.814,0.6813,0.6162,0.616,0.5916,0.5916,0.5916,0.5916,0.591,0.5902,0.589,0.5886,0.5766,0.5886,0.5831,0.5741,0.5659,0.5622,0.5614,0.5614,0.5608,0.5472,0.4831,0.462,0.453,0.3843,0.3624,0.3543,0.293,0.2039,0.103,0.0916,0.0114,-0.0917,-0.1979,-0.1732,-0.1721,-0.3848,-0.3355,-0.2851,-0.3712,-0.3479,-0.3367,-0.3813,-0.4036,-0.4142,-0.4458,-0.455,-0.4552,-0.4487,-0.4438,-0.4234,-0.3737,-0.3737,-0.3534,-0.323,-0.323,-0.323,-0.323,-0.323,-0.323,-0.323,-0.323,-0.323,-0.323,-0.323,-0.3433,-0.394,-0.394,-0.4234,-0.4716,-0.4818,-0.4628,0.8714,0.9003,0.9433,0.0,1.0895,1.1382,1.2198,1.1652,1.1081,1.166,1.1792,1.1616,1.104,1.1595,1.1871,0.0,1.1283,1.1257,1.1016,1.1059,1.0603,0.9557,1.0844,1.1676,1.126,1.1102,1.1057,1.1154,0.9709,0.873,0.8092,0.803,0.7423,0.6259,0.7355,0.7747,0.7036,0.6993,0.694,0.7007,0.6339,0.6045,0.5996,0.5996,0.5967,0.5916,0.5916,0.5794,0.5669,0.5794,0.5794,0.5546,0.5421,0.5276,0.5358,0.5636,0.569,0.5528,0.5174,0.5059,0.4936,0.432,0.3862,0.3522,0.3243,0.2898,0.2446,0.1619,0.0928,0.0233,-0.1048,-0.1746,-0.2332,-0.3521,-0.3391,-0.3263,-0.4228,-0.3864,-0.3483,-0.3896,-0.365,-0.3518,-0.3818,-0.3813,-0.3924,-0.4258,-0.4257,-0.421,-0.4198,-0.4183,-0.412,-0.3856,-0.3838,-0.3636,-0.323,-0.323,-0.323,-0.323,-0.323,-0.323,-0.323,-0.323,-0.333,-0.3627,-0.3627,-0.3934,-0.4448,-0.4738,-0.5029,-0.5318,-0.5622,-0.5632,0.8881,0.0,0.0,1.0283,1.0984,1.1607,1.1792,1.1131,1.0717,1.1245,1.1016,1.0614,1.0328,1.0699,1.094,1.0583,1.0583,1.0477,1.0279,1.0155,0.9648,0.8332,0.898,0.958,0.9866,0.9821,0.9921,0.9986,0.8503,0.7642,0.7674,0.6841,0.6355,0.6355,0.6419,0.6423,0.6355,0.6329,0.6284,0.6219,0.6192,0.6135,0.6053,0.6027,0.598,0.5916,0.5916,0.5669,0.5297,0.5544,0.5421,0.4928,0.4681,0.4681,0.4674,0.5111,0.5174,0.5123,0.4647,0.453,0.4408,0.3679,0.3209,0.2858,0.2598,0.2008,0.1303,0.059,-0.0,-0.0948,-0.2487,-0.3198,-0.3676,-0.4407,-0.4395,-0.4149,-0.4169,-0.3923,-0.3785,-0.3872,-0.3725,-0.3685,-0.3744,-0.3733,-0.3739,-0.3863,-0.3833,-0.392,-0.4032,-0.3918,-0.3957,-0.3975,-0.3885,-0.3737,-0.3534,-0.3433,-0.3332,-0.3332,-0.323,-0.323,-0.323,-0.3331,-0.363,-0.4028,-0.4123,-0.4529,-0.5048,-0.5432,-0.5724,-0.5827,-0.6232,-0.6437,0.7327,0.0,0.8786,0.867,0.9211,0.987,1.0292,1.0254,1.0311,1.1206,1.1115,1.0598,0.9741,0.9354,0.8878,0.7943,0.7826,0.7864,0.7978,0.7648,0.7412,0.7532,0.7188,0.7093,0.0,0.7925,0.8461,0.8707,0.7166,0.6351,0.6575,0.6447,0.6449,0.6449,0.6453,0.6453,0.6449,0.6362,0.6315,0.631,0.6223,0.6135,0.6051,0.5961,0.5921,0.5916,0.5916,0.5544,0.4926,0.4926,0.4558,0.3944,0.3944,0.3944,0.3943,0.3942,0.394,0.3939,0.3939,0.3939,0.3807,0.3147,0.292,0.2818,0.2141,0.119,0.048,0.0355,-0.119,-0.2887,-0.3006,-0.385,-0.4714,-0.4416,-0.4383,-0.4231,-0.3932,-0.3899,-0.3857,-0.3856,-0.3807,-0.3753,-0.3826,-0.3819,-0.3833,-0.3758,-0.3778,-0.3924,-0.4375,-0.4145,-0.4026,-0.4355,-0.4106,-0.4041,-0.4244,-0.394,-0.3737,-0.3737,-0.3433,-0.323,-0.323,-0.3732,-0.4033,-0.4033,-0.4522,-0.5018,-0.5625,-0.5622,-0.5827,-0.6337,-0.6437,-0.6437,0.7998,0.827,0.8645,0.9817,1.0175,1.0376,1.0955,1.0376,0.9732,0.968,0.8778,0.8055,0.7698,0.7539,0.7482,0.7425,0.7475,0.7501,0.7496,0.7483,0.733,0.6865,0.7038,0.0,0.0,0.0,0.0,0.7415,0.669,0.6357,0.6449,0.6453,0.6453,0.6453,0.6453,0.6453,0.6453,0.6423,0.6406,0.6406,0.6253,0.6135,0.5924,0.5461,0.5297,0.5174,0.4805,0.4315,0.3946,0.419,0.3944,0.3577,0.333,0.333,0.3207,0.2838,0.2591,0.2716,0.3207,0.333,0.3204,0.2576,0.2337,0.2218,0.1219,0.0731,0.0244,-0.1094,-0.2072,-0.2813,-0.3427,-0.3918,-0.4169,-0.4067,-0.4056,-0.4048,-0.3946,-0.3935,-0.392,-0.392,-0.3871,-0.3838,-0.3864,-0.3822,-0.3809,-0.3758,-0.3718,-0.3813,-0.415,-0.4033,-0.403,-0.4035,-0.3952,-0.3897,-0.3681,-0.3789,-0.3716,-0.3443,-0.3586,-0.3591,-0.3734,-0.398,-0.4389,-0.5035,-0.5295,-0.5698,-0.6132,-0.6132,-0.6132,-0.6132,-0.6437,-0.6437,0.8002,0.816,0.8383,0.9419,0.9682,0.9783,1.0074,0.9494,0.8742,0.8443,0.7477,0.6715,0.6559,0.652,0.6548,0.6929,0.7076,0.7204,0.7246,0.7272,0.7193,0.6862,0.7043,0.7069,0.0,0.0,0.0,0.7049,0.6623,0.6441,0.6535,0.6571,0.6453,0.6453,0.6453,0.6453,0.6453,0.6453,0.6453,0.6451,0.6039,0.5799,0.5716,0.4878,0.4581,0.4558,0.4066,0.3699,0.3332,0.3453,0.3331,0.2963,0.2716,0.2592,0.2592,0.2099,0.1977,0.2099,0.2469,0.2592,0.2469,0.1605,0.1358,0.1234,0.0123,-0.037,-0.0863,-0.2097,-0.2714,-0.3085,-0.3703,-0.3951,-0.3951,-0.3951,-0.3951,-0.3951,-0.3951,-0.3951,-0.3951,-0.3951,-0.392,-0.3905,-0.3944,-0.3906,-0.388,-0.3791,-0.3785,-0.3891,-0.4047,-0.4258,-0.4258,-0.415,-0.4147,-0.4033,-0.3808,-0.3808,-0.3739,-0.3575,-0.377,-0.4058,-0.4116,-0.4623,-0.5135,-0.5751,-0.605,-0.6313,-0.6539,-0.6539,-0.6437,-0.6334,-0.6545,-0.6537,0.7253,0.7627,0.79,0.7754,0.7898,0.8028,0.7905,0.7707,0.748,0.7597,0.7045,0.6427,0.0,0.0,0.5896,0.6491,0.6471,0.669,0.7382,0.7089,0.6945,0.0,0.0,0.0,0.0,0.0,0.0,0.7255,0.0,0.6746,0.6718,0.6541,0.6453,0.6453,0.6453,0.6453,0.6453,0.6453,0.6451,0.6445,0.5565,0.5228,0.5151,0.4315,0.3878,0.3825,0.3822,0.3453,0.2961,0.2963,0.2595,0.1979,0.198,0.198,0.1979,0.1979,0.1978,0.1977,0.1977,0.1977,0.1729,0.0493,0.0247,0.0247,-0.1109,-0.1973,-0.259,-0.259,-0.321,-0.3954,-0.3951,-0.3955,-0.3959,-0.3955,-0.3955,-0.3955,-0.3955,-0.3952,-0.3951,-0.3951,-0.3951,-0.3951,-0.3951,-0.3951,-0.3931,-0.3873,-0.3864,-0.4038,-0.4191,-0.4502,-0.4729,-0.4623,-0.4609,-0.4489,-0.4489,-0.415,-0.3923,-0.3918,-0.4199,-0.4329,-0.437,-0.5464,-0.6065,-0.6052,-0.6589,-0.6776,-0.6762,-0.6851,-0.6745,-0.6745,-0.6788,-0.684,0.7728,0.7968,0.7854,0.8191,0.7956,0.7612,0.7682,0.7592,0.7294,0.6812,0.6289,0.5893,0.0,0.0,0.0,0.6034,0.6607,0.0,0.7277,0.7289,0.0,0.7306,0.0,0.7329,0.7187,0.7329,0.0,0.0,0.688,0.6643,0.6546,0.6575,0.6453,0.6453,0.6453,0.6453,0.6453,0.6453,0.6152,0.556,0.5275,0.4835,0.4251,0.3556,0.3273,0.326,0.2729,0.2346,0.2224,0.2248,0.2133,0.201,0.2033,0.2028,0.2007,0.2007,0.1994,0.1977,0.1977,0.1977,0.1729,0.0493,-0.0,-0.0246,-0.2094,-0.2711,-0.2958,-0.3455,-0.3731,-0.4004,-0.3962,-0.4015,-0.407,-0.4025,-0.4012,-0.4012,-0.4012,-0.398,-0.3951,-0.3951,-0.3951,-0.3951,-0.3951,-0.3951,-0.3946,-0.3929,-0.4171,-0.4128,-0.4015,-0.3972,-0.4105,-0.432,-0.4154,-0.4038,-0.4263,-0.4038,-0.4036,-0.4262,-0.4547,-0.4926,-0.5504,-0.5941,-0.6305,-0.6604,-0.6883,-0.6885,-0.6813,-0.6836,-0.6742,-0.6548,-0.6809,-0.6819,0.7985,0.8176,0.8146,0.8215,0.7974,0.7626,0.7266,0.7133,0.6685,0.6093,0.5711,0.0,0.4941,0.0,0.0,0.0,0.0,0.0,0.7034,0.7232,0.7362,0.0,0.7554,0.0,0.7699,0.7679,0.7648,0.0,0.7114,0.681,0.6655,0.6698,0.6587,0.6453,0.6317,0.6183,0.6051,0.6051,0.5626,0.5049,0.4519,0.409,0.3643,0.2969,0.2564,0.2547,0.2148,0.2015,0.2016,0.2032,0.2031,0.202,0.2037,0.2026,0.2,0.2,0.199,0.1977,0.1977,0.1977,0.1729,-0.0246,-0.1109,-0.1601,-0.3326,-0.3575,-0.3458,-0.3855,-0.3993,-0.4003,-0.4022,-0.4038,-0.4046,-0.4037,-0.4015,-0.3997,-0.3997,-0.3993,-0.3996,-0.4022,-0.4027,-0.4027,-0.4027,-0.4006,-0.3988,-0.3988,-0.4088,-0.4055,-0.3886,-0.4099,-0.4231,-0.4306,-0.4061,-0.3931,-0.3935,-0.415,-0.4263,-0.4487,-0.5048,-0.5688,-0.616,-0.6446,-0.6724,-0.6778,-0.695,-0.6976,-0.6735,-0.6926,-0.686,-0.6757,-0.7027,-0.6927,0.7957,0.8325,0.8475,0.8195,0.7949,0.7696,0.6897,0.6468,0.611,0.5568,0.0,0.4734,0.452,0.4573,0.4741,0.5315,0.0,0.6137,0.686,0.6988,0.7278,0.7699,0.7763,0.7899,0.8154,0.8154,0.8065,0.7903,0.7517,0.7257,0.6867,0.6943,0.6853,0.6453,0.6048,0.5646,0.5245,0.5245,0.4975,0.4571,0.3631,0.3208,0.3037,0.2374,0.2095,0.207,0.2065,0.2064,0.2064,0.2068,0.2054,0.2031,0.2035,0.2017,0.1989,0.1992,0.1987,0.1977,0.2105,0.1856,0.1234,-0.0985,-0.2219,-0.3089,-0.4203,-0.4337,-0.3985,-0.4033,-0.4016,-0.4007,-0.4101,-0.4061,-0.4008,-0.4049,-0.4022,-0.3985,-0.3985,-0.4018,-0.4063,-0.4115,-0.4125,-0.4125,-0.4125,-0.4075,-0.4034,-0.4034,-0.3986,-0.3951,-0.3951,-0.4442,-0.469,-0.4322,-0.4315,-0.4085,-0.3834,-0.4262,-0.4487,-0.4597,-0.5613,-0.6175,-0.6274,-0.6824,-0.6927,-0.67,-0.6932,-0.6932,-0.67,-0.6927,-0.7152,-0.7041,-0.7041,-0.6927,0.7665,0.803,0.8176,0.8081,0.7832,0.7464,0.7127,0.645,0.0,0.0,0.4712,0.4252,0.397,0.4335,0.4756,0.543,0.0,0.0,0.0,0.0,0.7566,0.0,0.0,0.0,0.0,0.0,0.0,0.0,0.0,0.7764,0.7367,0.7381,0.6987,0.6048,0.5376,0.4839,0.4435,0.4435,0.4167,0.3497,0.3228,0.2956,0.2414,0.2121,0.2106,0.21,0.2075,0.2064,0.2066,0.2091,0.2098,0.2096,0.2121,0.2097,0.2052,0.2077,0.2039,0.198,0.2379,0.0997,-0.074,-0.0123,-0.0745,-0.2007,-0.2761,-0.3674,-0.4483,-0.4108,-0.4139,-0.4164,-0.4134,-0.4185,-0.4236,-0.4195,-0.4177,-0.417,-0.417,-0.4397,-0.45,-0.4124,-0.4384,-0.4514,-0.4125,-0.4075,-0.4034,-0.4034,-0.3986,-0.3951,-0.3951,-0.3951,-0.4198,-0.4322,-0.4074,-0.4092,-0.4513,-0.4263,-0.448,-0.5246,-0.5468,-0.581,-0.6274,-0.6371,-0.6475,-0.6362,-0.6609,-0.6611,-0.6362,-0.67,-0.67,-0.6475,-0.6475,-0.6475,0.7772,0.8088,0.8065,0.7818,0.7632,0.7289,0.6498,0.0,0.0,0.0,0.4026,0.381,0.3593,0.0,0.0,0.0,0.0,0.0,0.0,0.0,0.0,0.0,0.0,0.0,0.0,0.0,0.0,0.0,0.0,0.7519,0.6991,0.6587,0.6049,0.5376,0.4973,0.4571,0.4034,0.3899,0.3497,0.2961,0.2827,0.2558,0.2155,0.214,0.2133,0.2132,0.2117,0.2111,0.2112,0.2127,0.2123,0.211,0.2125,0.2104,0.2065,0.208,0.2059,0.2024,0.1528,0.0508,-0.0505,-0.0252,-0.1512,-0.3151,-0.3529,-0.3949,-0.4261,-0.4164,-0.417,-0.4177,-0.4211,-0.4217,-0.4214,-0.4215,-0.4192,-0.4179,-0.421,-0.4324,-0.4445,-0.4214,-0.4352,-0.4484,-0.4221,-0.4143,-0.4082,-0.4082,-0.4007,-0.395,-0.4195,-0.4195,-0.4318,-0.4562,-0.4439,-0.4629,-0.52,-0.5338,-0.5473,-0.5712,-0.6156,-0.6386,-0.6281,-0.6386,-0.6381,-0.6044,-0.6281,-0.6386,-0.6024,-0.6376,-0.6383,-0.627,-0.627,-0.6158,0.7832,0.7991,0.8065,0.7553,0.7429,0.7115,0.5932,0.5218,0.0,0.0,0.3514,0.3426,0.3373,0.0,0.0,0.0,0.0,0.0,0.0,0.0,0.0,0.0,0.0,0.0,0.0,0.0,0.0,0.0,0.0,0.0,0.6453,0.5783,0.5245,0.4839,0.4705,0.4304,0.3633,0.3363,0.3095,0.2694,0.2424,0.2289,0.2155,0.2155,0.2155,0.2155,0.2155,0.2155,0.2155,0.2155,0.2141,0.2119,0.2119,0.2101,0.2074,0.2081,0.1945,0.1548,0.0776,0.0129,-0.0387,-0.0901,-0.2433,-0.4074,-0.4074,-0.4116,-0.4174,-0.4222,-0.4202,-0.4187,-0.4282,-0.4236,-0.4177,-0.4225,-0.42,-0.4177,-0.4226,-0.4236,-0.4382,-0.4297,-0.4307,-0.4441,-0.4308,-0.4206,-0.4125,-0.4125,-0.4025,-0.4071,-0.4316,-0.4439,-0.4684,-0.5051,-0.5049,-0.517,-0.5908,-0.6259,-0.6462,-0.6191,-0.6789,-0.6875,-0.6348,-0.6537,-0.64,-0.5833,-0.6172,-0.6051,-0.5695,-0.6163,-0.6286,-0.6061,-0.6286,-0.6061,0.7135,0.7546,0.8065,0.755,0.7441,0.7247,0.6215,0.0,0.0,0.3955,0.3511,0.3275,0.335,0.3598,0.3907,0.0,0.0,0.5549,0.0,0.0,0.0,0.0,0.0,0.0,0.0,0.0,0.0,0.0,0.0,0.0,0.6319,0.5783,0.5245,0.4839,0.417,0.3632,0.3228,0.3228,0.3095,0.2694,0.2694,0.2559,0.2155,0.2155,0.2155,0.2155,0.2155,0.2155,0.2155,0.2155,0.2153,0.2151,0.2151,0.2132,0.2108,0.2136,0.1318,0.0129,0.0785,-0.0782,-0.2835,-0.2189,-0.2467,-0.2753,-0.2491,-0.3312,-0.4292,-0.4297,-0.4294,-0.4293,-0.4305,-0.4298,-0.4292,-0.4297,-0.4294,-0.4292,-0.4297,-0.4565,-0.4699,-0.4305,-0.4574,-0.4707,-0.4307,-0.4206,-0.4125,-0.4125,-0.4274,-0.4316,-0.4438,-0.4687,-0.5056,-0.5794,-0.5544,-0.5542,-0.6156,-0.6263,-0.6363,-0.6577,-0.6486,-0.6483,-0.6429,-0.6381,-0.6172,-0.5833,-0.6172,-0.6058,-0.5491,-0.6058,-0.6058,-0.5493,-0.6061,-0.5947,0.7355,0.7781,0.8048,0.7735,0.7518,0.7038,0.6164,0.0,0.0,0.3769,0.3422,0.3254,0.3346,0.3478,0.3739,0.0,0.0,0.0,0.0,0.0,0.0,0.0,0.0,0.0,0.0,0.0,0.0,0.0,0.0,0.0,0.5112,0.4844,0.471,0.444,0.4037,0.3768,0.3498,0.3363,0.3095,0.2694,0.2694,0.2559,0.2155,0.2155,0.2155,0.2155,0.2155,0.2155,0.2155,0.2155,0.2155,0.2155,0.2155,0.2147,0.2004,0.1208,0.0668,0.0132,-0.1065,-0.2126,-0.2909,-0.3306,-0.3585,-0.3597,-0.3434,-0.3859,-0.4308,-0.4308,-0.4308,-0.4308,-0.4308,-0.4308,-0.4308,-0.4308,-0.4308,-0.4308,-0.4308,-0.4441,-0.4441,-0.4307,-0.4441,-0.4441,-0.4308,-0.4338,-0.4384,-0.4384,-0.4527,-0.4808,-0.493,-0.5176,-0.5423,-0.616,-0.6035,-0.628,-0.6896,-0.7138,-0.7255,-0.7001,-0.7093,-0.7036,-0.6505,-0.6646,-0.649,-0.6151,-0.6279,-0.6286,-0.5947,-0.6172,-0.6054,-0.5813,-0.5826,-0.5712,0.719,0.7747,0.8028,0.7707,0.7459,0.6861,0.0,0.0,0.0,0.3647,0.3356,0.3287,0.3352,0.3438,0.3601,0.0,0.0,0.4428,0.4924,0.0,0.0,0.0,0.0,0.0,0.0,0.0,0.0,0.0,0.0,0.0,0.4308,0.4308,0.4308,0.4308,0.4038,0.3902,0.3768,0.3498,0.3229,0.2828,0.2828,0.2693,0.2289,0.2289,0.2289,0.2155,0.2155,0.2155,0.2155,0.2155,0.2155,0.2155,0.2155,0.1885,0.148,0.0538,-0.0269,-0.0941,-0.2555,-0.3228,-0.3496,-0.4037,-0.4308,-0.43,-0.4256,-0.4273,-0.4308,-0.4308,-0.4308,-0.4308,-0.4308,-0.4308,-0.4308,-0.4308,-0.4308,-0.4308,-0.4308,-0.4308,-0.4308,-0.4308,-0.4441,-0.4575,-0.4441,-0.4732,-0.4901,-0.477,-0.4903,-0.5177,-0.5421,-0.5544,-0.5667,-0.6158,-0.628,-0.6648,-0.7263,-0.7508,-0.7505,-0.7375,-0.7497,-0.7352,-0.6914,-0.7015,-0.6984,-0.6576,-0.6639,-0.6566,-0.646,-0.646,-0.6223,-0.5981,-0.5994,-0.5824,0.6276,0.6969,0.7694,0.7587,0.7285,0.6725,0.0,0.0,0.4296,0.3562,0.3434,0.3432,0.3434,0.3438,0.3528,0.3612,0.3781,0.4139,0.4815,0.5177,0.0,0.0,0.0,0.0,0.0,0.0,0.0,0.0,0.0,0.0,0.4308,0.4308,0.4308,0.4308,0.4308,0.4172,0.3768,0.3768,0.3632,0.3228,0.3228,0.2961,0.2694,0.2694,0.2559,0.2155,0.2155,0.2155,0.2155,0.2155,0.2155,0.2155,0.2155,0.1346,-0.0,0.0404,-0.1345,-0.3628,-0.2958,-0.363,-0.4707,-0.4441,-0.4308,-0.4308,-0.4307,-0.4307,-0.4308,-0.4308,-0.4308,-0.4308,-0.4308,-0.4308,-0.4308,-0.4308,-0.4308,-0.4308,-0.4308,-0.4308,-0.4308,-0.4308,-0.4844,-0.5245,-0.4841,-0.5255,-0.5542,-0.5283,-0.5276,-0.5421,-0.5421,-0.5669,-0.5916,-0.5916,-0.616,-0.6528,-0.69,-0.69,-0.7021,-0.7385,-0.7253,-0.737,-0.7614,-0.7614,-0.7386,-0.7046,-0.7048,-0.6921,-0.6621,-0.6872,-0.6757,-0.6149,-0.6714,-0.6629,0.5668,0.6167,0.6664,0.6667,0.6352,0.5873,0.5262,0.0,0.0,0.3536,0.3434,0.3383,0.3446,0.3528,0.3616,0.3938,0.4084,0.4194,0.4384,0.0,0.0,0.0,0.0,0.0,0.0,0.0,0.0,0.0,0.0,0.4308,0.4308,0.4308,0.4308,0.4308,0.4308,0.4307,0.4172,0.4172,0.3902,0.3632,0.3632,0.323,0.2694,0.2694,0.2559,0.2155,0.2155,0.2155,0.2155,0.1076,0.0672,0.0538,-0.0403,-0.094,-0.121,-0.215,-0.2688,-0.3092,-0.3899,-0.4304,-0.4441,-0.4307,-0.4308,-0.4308,-0.4308,-0.4308,-0.4308,-0.4308,-0.4308,-0.4308,-0.4308,-0.4308,-0.4308,-0.4308,-0.4308,-0.4308,-0.4308,-0.444,-0.4707,-0.4707,-0.5111,-0.5381,-0.5245,-0.5563,-0.5738,-0.5549,-0.5705,-0.5737,-0.5802,-0.5794,-0.5916,-0.5916,-0.6039,-0.616,-0.6528,-0.6775,-0.69,-0.7021,-0.7263,-0.738,-0.7497,-0.762,-0.7588,-0.7514,-0.756,-0.7475,-0.7373,-0.7373,-0.7013,-0.6537,-0.6411,-0.6474,0.0,0.5418,0.5813,0.5911,0.5656,0.0,0.0,0.0,0.0,0.3539,0.3477,0.353,0.3625,0.3687,0.3768,0.3977,0.4095,0.4161,0.4066,0.0,0.0,0.0,0.0,0.0,0.0,0.0,0.0,0.0,0.0,0.4308,0.4308,0.4308,0.4308,0.4308,0.4308,0.4172,0.4172,0.4172,0.4038,0.3768,0.3768,0.3499,0.2827,0.3097,0.2828,0.2424,0.2558,0.2153,0.0,0.0538,-0.0134,-0.0806,-0.1612,-0.2149,-0.2553,-0.3091,-0.3495,-0.363,-0.4304,-0.4441,-0.4308,-0.4308,-0.4308,-0.4308,-0.4308,-0.4308,-0.4308,-0.4308,-0.4308,-0.4307,-0.471,-0.471,-0.4844,-0.4978,-0.4977,-0.4842,-0.4842,-0.4977,-0.4975,-0.4975,-0.5513,-0.5783,-0.5647,-0.5981,-0.6167,-0.5854,-0.603,-0.6082,-0.6023,-0.6016,-0.6016,-0.6016,-0.5988,-0.5967,-0.6213,-0.643,-0.6532,-0.6653,-0.6896,-0.7138,-0.7258,-0.7503,-0.7625,-0.7625,-0.7747,-0.7747,-0.7747,-0.7497,-0.7255,-0.6775,-0.665,-0.678,0.0,0.0,0.0,0.0,0.0,0.0,0.0,0.0,0.0,0.0,0.0,0.0,0.3765,0.3935,0.393,0.3889,0.3857,0.3934,0.3863,0.3915,0.0,0.0,0.0,0.0,0.0,0.0,0.0,0.0,0.0,0.4308,0.4308,0.4308,0.4308,0.4308,0.4308,0.4172,0.3902,0.3902,0.3902,0.3768,0.3768,0.3632,0.3228,0.3632,0.3365,0.2558,0.296,0.2017,0.0403,0.0269,-0.0672,-0.2148,-0.2016,-0.2687,-0.3762,-0.3092,-0.363,-0.4707,-0.4441,-0.4308,-0.4308,-0.4308,-0.4308,-0.4441,-0.4441,-0.4441,-0.4441,-0.4441,-0.4441,-0.4575,-0.5247,-0.5515,-0.5649,-0.6183,-0.6182,-0.5912,-0.5914,-0.5646,-0.5381,-0.5381,-0.6051,-0.6319,-0.6048,-0.651,-0.6714,-0.6317,-0.6245,-0.6188,-0.6182,-0.618,-0.618,-0.618,-0.6104,-0.6053,-0.6053,-0.597,-0.6039,-0.6403,-0.6403,-0.6528,-0.69,-0.7143,-0.7385,-0.7385,-0.775,-0.7869,-0.7869,-0.7497,-0.7248,-0.6877,-0.725,-0.7263,0.2584,0.0,0.3329,0.3706,0.372,0.0,0.0,0.0,0.0,0.0,0.0,0.0,0.0,0.3845,0.3783,0.4208,0.4259,0.4238,0.4054,0.0,0.0,0.0,0.0,0.0,0.0,0.0,0.0,0.0,0.4308,0.4308,0.4308,0.4308,0.4308,0.4308,0.4308,0.4307,0.4172,0.4172,0.4172,0.4172,0.3902,0.3768,0.3632,0.3498,0.269,0.1479,0.1613,0.0672,-0.0806,-0.1882,-0.2554,-0.3092,-0.4034,-0.4571,-0.457,-0.4437,-0.4304,-0.4441,-0.4307,-0.4308,-0.4308,-0.4308,-0.471,-0.5112,-0.5112,-0.5112,-0.5112,-0.5112,-0.5515,-0.5915,-0.6185,-0.6185,-0.6183,-0.6048,-0.5912,-0.5778,-0.5513,-0.5647,-0.578,-0.578,-0.6183,-0.6453,-0.6319,-0.6435,-0.6529,-0.6327,-0.6298,-0.6259,-0.619,-0.6438,-0.6441,-0.618,-0.6356,-0.6426,-0.6426,-0.6091,-0.5916,-0.6039,-0.6283,-0.6403,-0.6528,-0.6898,-0.7143,-0.7385,-0.75,-0.7497,-0.7497,-0.7126,-0.6999,-0.6877,-0.7268,-0.7633,0.2142,0.2404,0.2742,0.3041,0.3189,0.3401,0.0,0.0,0.0,0.0,0.0,0.0,0.0,0.0,0.0,0.3957,0.3975,0.4021,0.0,0.0,0.0,0.0,0.0,0.0,0.0,0.0,0.0,0.0,0.4308,0.4308,0.4308,0.3497,0.3091,0.3091,0.2283,0.2554,0.4308,0.4308,0.4308,0.4308,0.4172,0.3632,0.2824,0.269,0.1882,0.0403,0.0538,-0.0269,-0.1881,-0.2687,-0.3495,-0.4304,-0.4841,-0.4975,-0.4839,-0.4572,-0.4441,-0.4308,-0.4308,-0.4575,-0.4844,-0.4844,-0.5247,-0.5917,-0.5917,-0.6049,-0.6315,-0.5915,-0.6185,-0.6453,-0.6851,-0.6851,-0.6719,-0.6851,-0.6717,-0.6313,-0.6183,-0.6182,-0.6183,-0.6183,-0.6317,-0.6453,-0.6453,-0.6453,-0.6437,-0.6388,-0.638,-0.6362,-0.6313,-0.6437,-0.6553,-0.6247,-0.6291,-0.6347,-0.6307,-0.6215,-0.616,-0.6407,-0.653,-0.665,-0.665,-0.6898,-0.7266,-0.7385,-0.7378,-0.7375,-0.7136,-0.7016,-0.7016,-0.7143,-0.7654,-0.813,0.2091,0.2337,0.2655,0.2702,0.2926,0.3222,0.0,0.0,0.0,0.0,0.0,0.0,0.0,0.0,0.0,0.0,0.0,0.0,0.0,0.0,0.0,0.0,0.0,0.0,0.0,0.0,0.0,0.3768,0.3768,0.3768,0.3497,0.2014,0.1342,0.161,-0.0,0.0806,0.4172,0.4037,0.3902,0.4037,0.3902,0.2959,0.1344,0.1613,0.0806,-0.0806,-0.0403,-0.1343,-0.2955,-0.2955,-0.3897,-0.5247,-0.4842,-0.4707,-0.4707,-0.4441,-0.4308,-0.4308,-0.4442,-0.4844,-0.5381,-0.5515,-0.6049,-0.6585,-0.6585,-0.7116,-0.7517,-0.6851,-0.6719,-0.6853,-0.7514,-0.7517,-0.7386,-0.7922,-0.7522,-0.6985,-0.6985,-0.6719,-0.6453,-0.6453,-0.6453,-0.6453,-0.6453,-0.6453,-0.6453,-0.6453,-0.6453,-0.6453,-0.6453,-0.6587,-0.6558,-0.6345,-0.6257,-0.6296,-0.608,-0.6236,-0.6544,-0.69,-0.69,-0.69,-0.69,-0.7143,-0.7266,-0.7266,-0.7255,-0.7136,-0.6778,-0.6908,-0.7037,-0.7288,-0.8153,-0.8622,0.2031,0.2293,0.2461,0.2309,0.2524,0.2796,0.0,0.0,0.0,0.0,0.0,0.0,0.0,0.0,0.0,0.0,0.0,0.0,0.0,0.0,0.0,0.0,0.0,0.0,0.0,0.0,0.2824,0.1747,0.1613,0.1075,-0.0268,-0.0537,-0.0,0.161,0.1074,0.1747,0.3902,0.2687,0.2149,0.2555,0.2151,0.1344,0.0269,-0.0,-0.0806,-0.1882,-0.1882,-0.2689,-0.4037,-0.4037,-0.4171,-0.4441,-0.4441,-0.4441,-0.4307,-0.4308,-0.4308,-0.4441,-0.4978,-0.5247,-0.5515,-0.6049,-0.6717,-0.7381,-0.7381,-0.7784,-0.8454,-0.832,-0.832,-0.832,-0.8454,-0.8454,-0.8189,-0.7658,-0.7524,-0.7259,-0.6721,-0.6587,-0.6453,-0.6453,-0.6453,-0.6453,-0.6453,-0.6453,-0.6453,-0.6453,-0.6453,-0.6453,-0.6453,-0.6719,-0.6846,-0.6569,-0.6617,-0.6783,-0.6558,-0.6587,-0.6618,-0.6905,-0.69,-0.69,-0.69,-0.69,-0.7023,-0.7023,-0.6648,-0.6526,-0.6526,-0.6785,-0.6912,-0.7035,-0.8236,-0.8708,0.1851,0.2158,0.2484,0.2095,0.2429,0.0,0.0,0.0,0.0,0.0,0.0,0.0,0.0,0.0,0.0,0.0,0.0,0.0,0.0,0.0,0.0,0.0,0.0,0.0,0.0,0.0,0.1747,0.1209,0.0403,-0.0403,-0.1073,-0.2012,-0.2146,-0.1341,-0.2415,-0.2014,-0.0,-0.0671,-0.0,0.1882,0.1075,-0.0,-0.121,-0.1344,-0.2151,-0.3363,-0.3363,-0.3768,-0.4308,-0.4308,-0.4308,-0.4308,-0.4308,-0.4308,-0.4308,-0.471,-0.4844,-0.4978,-0.5649,-0.6183,-0.6581,-0.6849,-0.7517,-0.8051,-0.8051,-0.8318,-0.8587,-0.8587,-0.8587,-0.8587,-0.8323,-0.8189,-0.7922,-0.739,-0.7123,-0.6855,-0.6587,-0.6453,-0.6453,-0.6453,-0.6453,-0.6453,-0.6453,-0.6453,-0.6453,-0.6453,-0.6453,-0.6453,-0.6453,-0.6585,-0.67,-0.6384,-0.6475,-0.6523,-0.6381,-0.6452,-0.6636,-0.6908,-0.7023,-0.7143,-0.7143,-0.7143,-0.7143,-0.69,-0.6528,-0.6526,-0.6646,-0.6771,-0.7258,-0.7989,-0.8587,-0.8948,0.1845,0.2138,0.2398,0.2037,0.0,0.0,0.0,0.0,0.0,0.0,0.0,0.0,0.0,0.0,0.0,0.0,0.0,0.0,0.0,0.0,0.0,0.0,0.0,0.0,0.0,0.1613,0.0403,0.0134,-0.1074,-0.1879,-0.2148,-0.3489,-0.4025,-0.3622,-0.497,-0.4702,-0.2552,-0.2955,-0.1746,0.0672,-0.0134,-0.1344,-0.269,-0.269,-0.3228,-0.4308,-0.4308,-0.4308,-0.4308,-0.4308,-0.4308,-0.4308,-0.4308,-0.4441,-0.4575,-0.5247,-0.5515,-0.5781,-0.6451,-0.6985,-0.7514,-0.7648,-0.8184,-0.8587,-0.8587,-0.8587,-0.8587,-0.8587,-0.8587,-0.8456,-0.8192,-0.7925,-0.7524,-0.7121,-0.6853,-0.6587,-0.6453,-0.6453,-0.6453,-0.6453,-0.6453,-0.6453,-0.6453,-0.6453,-0.6453,-0.6453,-0.6453,-0.6453,-0.6453,-0.6453,-0.6427,-0.6357,-0.6349,-0.6286,-0.6129,-0.6345,-0.6553,-0.6729,-0.7195,-0.7413,-0.7266,-0.7288,-0.7168,-0.6775,-0.6648,-0.6646,-0.6888,-0.7298,-0.7934,-0.8916,-0.9101,-0.9444,0.2147,0.2257,0.2277,0.2499,0.0,0.0,0.0,0.0,0.0,0.0,0.0,0.0,0.0,0.0,0.0,0.0,0.0,0.0,0.0,0.0,0.0,0.0,0.0,0.0,0.1747,0.0134,-0.1479,-0.2824,-0.3359,-0.4031,-0.4975,-0.551,-0.4835,-0.2819,-0.3226,-0.2554,-0.0672,-0.2016,-0.242,-0.1882,-0.2017,-0.2824,-0.4172,-0.4172,-0.4172,-0.4308,-0.4308,-0.4308,-0.4308,-0.4308,-0.4308,-0.4308,-0.4308,-0.471,-0.5381,-0.5381,-0.5783,-0.6451,-0.7116,-0.7514,-0.7648,-0.832,-0.8587,-0.8587,-0.8587,-0.8587,-0.8587,-0.8587,-0.8323,-0.8189,-0.8058,-0.8058,-0.7922,-0.7118,-0.6985,-0.6851,-0.6587,-0.6453,-0.6453,-0.6453,-0.6453,-0.6453,-0.6453,-0.6453,-0.6453,-0.6453,-0.6453,-0.6453,-0.6453,-0.6453,-0.6451,-0.6445,-0.6445,-0.6404,-0.6306,-0.6219,-0.6168,-0.6289,-0.7096,-0.7373,-0.6903,-0.7113,-0.6869,-0.6405,-0.6768,-0.6888,-0.6888,-0.8332,-0.8949,-0.9067,-0.9828,-1.0197,0.1864,0.2141,0.2359,0.2144,0.0,0.0,0.0,0.0,0.0,0.0,0.0,0.0,0.0,0.0,0.0,0.0,0.0,0.0,0.0,0.0,0.0,0.0,0.1344,0.0269,0.0269,-0.1344,-0.269,-0.3094,-0.4168,-0.4975,-0.5381,-0.5513,-0.5243,-0.4435,-0.4437,-0.4168,-0.3225,-0.3764,-0.3882,-0.3452,-0.3483,-0.3768,-0.4308,-0.4308,-0.4308,-0.4308,-0.4308,-0.4308,-0.4308,-0.4308,-0.4308,-0.4308,-0.4844,-0.5112,-0.5513,-0.6449,-0.6849,-0.725,-0.7917,-0.8184,-0.8184,-0.8454,-0.8587,-0.8587,-0.8587,-0.8587,-0.8587,-0.8587,-0.8323,-0.8058,-0.7791,-0.7522,-0.7254,-0.6853,-0.6719,-0.6721,-0.6587,-0.6453,-0.6453,-0.6453,-0.6453,-0.6453,-0.6453,-0.6453,-0.6453,-0.6453,-0.6453,-0.6453,-0.6453,-0.6453,-0.6453,-0.6453,-0.6402,-0.6355,-0.6321,-0.6233,-0.618,-0.618,-0.6789,-0.6979,-0.6625,-0.6656,-0.6876,-0.7021,-0.7081,-0.7485,-0.8226,-0.8902,-0.9398,-0.9838,-1.0119,-1.0263,0.1908,0.2175,0.0,0.0,0.0,0.0,0.0,0.0,0.0,0.0,0.0,0.0,0.0,0.0,0.0,0.0,0.0,0.0,0.0,0.0,0.0,0.0,-0.0538,-0.1075,-0.1075,-0.2555,-0.3491,-0.3476,-0.4545,-0.5202,-0.5046,-0.5044,-0.5177,-0.5044,-0.5044,-0.491,-0.4644,-0.4644,-0.449,-0.4188,-0.423,-0.426,-0.4279,-0.4298,-0.4308,-0.4308,-0.4308,-0.4308,-0.4308,-0.4308,-0.4442,-0.471,-0.5247,-0.5647,-0.6182,-0.7114,-0.7648,-0.7917,-0.8454,-0.8587,-0.8587,-0.8587,-0.8587,-0.8587,-0.8587,-0.8587,-0.8587,-0.8456,-0.8189,-0.7791,-0.739,-0.7121,-0.6851,-0.6587,-0.6453,-0.6453,-0.6453,-0.6453,-0.6453,-0.6453,-0.6453,-0.6453,-0.6453,-0.6453,-0.6453,-0.6453,-0.6453,-0.6453,-0.6453,-0.6453,-0.6453,-0.6453,-0.6398,-0.6359,-0.6359,-0.6302,-0.6268,-0.6268,-0.653,-0.6604,-0.6476,-0.6722,-0.7067,-0.7368,-0.7653,-0.819,-0.9111,-0.95,-0.9861,-1.0313,-1.036,-1.0709,0.2415,0.2394,0.0,0.0,0.0,0.0,0.0,0.0,0.0,0.0,0.0,0.0,0.0,0.0,0.0,0.0,0.0,0.0,0.0,0.0,0.0,-0.3902,-0.3094,-0.2286,-0.2285,-0.3497,-0.4282,-0.4219,-0.4613,-0.4583,-0.413,-0.4513,-0.4514,-0.4125,-0.4125,-0.4125,-0.4125,-0.4125,-0.4125,-0.4125,-0.4125,-0.4158,-0.4218,-0.4279,-0.4307,-0.4307,-0.4308,-0.4308,-0.4307,-0.4308,-0.471,-0.5381,-0.5381,-0.6315,-0.7514,-0.7514,-0.7917,-0.8587,-0.8587,-0.8587,-0.8587,-0.8587,-0.8587,-0.8587,-0.8587,-0.8587,-0.8587,-0.8189,-0.7791,-0.739,-0.7118,-0.6985,-0.6851,-0.6587,-0.6453,-0.6453,-0.6453,-0.6453,-0.6453,-0.6453,-0.6453,-0.6453,-0.6453,-0.6453,-0.6453,-0.6453,-0.6453,-0.6453,-0.6453,-0.6453,-0.6453,-0.6453,-0.6453,-0.6453,-0.6453,-0.6453,-0.6453,-0.6453,-0.6453,-0.6372,-0.6188,-0.7205,-0.7589,-0.7338,-0.8489,-0.9117,-0.9252,-1.0161,-1.0493,-1.0497,-1.0649,-1.1494,0.2247,0.0,0.0,0.0,0.0,0.0,0.0,0.0,0.0,0.0,0.0,0.0,0.0,0.0,0.0,0.0,0.0,0.0,0.0,0.0,0.0,-0.269,-0.3363,-0.3618,-0.3583,-0.3978,-0.4218,-0.4157,-0.4284,-0.4274,-0.4127,-0.4254,-0.4256,-0.4125,-0.4125,-0.4125,-0.4125,-0.4125,-0.4104,-0.4061,-0.4105,-0.4158,-0.4217,-0.4236,-0.4244,-0.4245,-0.4289,-0.4283,-0.4247,-0.4824,-0.5515,-0.6183,-0.6717,-0.7114,-0.7514,-0.8051,-0.8454,-0.8587,-0.8587,-0.8587,-0.8587,-0.8587,-0.8587,-0.8587,-0.8587,-0.8456,-0.8189,-0.8189,-0.7655,-0.7121,-0.6985,-0.6851,-0.6587,-0.6587,-0.6453,-0.6453,-0.6453,-0.6453,-0.6453,-0.6453,-0.6453,-0.6453,-0.6453,-0.6453,-0.6453,-0.6453,-0.6453,-0.6453,-0.6453,-0.6453,-0.6453,-0.6453,-0.6453,-0.6453,-0.6453,-0.6453,-0.6453,-0.6453,-0.6985,-0.7192,-0.7064,-0.7319,-0.793,-0.8742,-0.9178,-0.961,-1.0168,-1.0447,-1.0653,-1.0653,-1.07,-1.1505,0.2489,0.0,0.0,0.0,0.0,0.0,0.0,0.0,0.0,0.0,0.0,0.0,0.0,0.0,0.0,0.0,0.0,-0.0397,-0.0939,-0.2151,0.0,-0.2936,-0.3736,-0.4247,-0.4187,-0.418,-0.4155,-0.4094,-0.4089,-0.4079,-0.4057,-0.4056,-0.4056,-0.4056,-0.4056,-0.4056,-0.4056,-0.4056,-0.4037,-0.4001,-0.4038,-0.4215,-0.4532,-0.4299,-0.4324,-0.4611,-0.4888,-0.5001,-0.4967,-0.5569,-0.6133,-0.6801,-0.7367,-0.7648,-0.8051,-0.8454,-0.8587,-0.8587,-0.8587,-0.8587,-0.8587,-0.8587,-0.8587,-0.8587,-0.8456,-0.8323,-0.8058,-0.7789,-0.7386,-0.6985,-0.6853,-0.6587,-0.6453,-0.6453,-0.6453,-0.6453,-0.6453,-0.6453,-0.6453,-0.6453,-0.6453,-0.6453,-0.6453,-0.6453,-0.6453,-0.6453,-0.6453,-0.6453,-0.6453,-0.6453,-0.6453,-0.6453,-0.6453,-0.6453,-0.6453,-0.6719,-0.6851,-0.6851,-0.7517,-0.802,-0.8352,-0.8173,-0.853,-0.9407,-0.9698,-1.0133,-1.0582,-1.0673,-1.0721,-1.0721,-1.1244,-1.2293,0.0,0.0,0.0,0.0,0.0,0.0,0.0,0.0,0.0,0.0,0.0,0.0,0.0,0.0,0.0,0.0,-0.1971,-0.264,-0.2808,-0.3618,-0.427,-0.4215,-0.4209,-0.4184,-0.4124,-0.4117,-0.4091,-0.4031,-0.4027,-0.4004,-0.3954,-0.3951,-0.3951,-0.3951,-0.3951,-0.3951,-0.3951,-0.3951,-0.3951,-0.3951,-0.395,-0.4351,-0.5042,-0.4474,-0.4538,-0.5251,-0.582,-0.6172,-0.6186,-0.627,-0.6828,-0.7362,-0.7453,-0.802,-0.8557,-0.8568,-0.8571,-0.8573,-0.8584,-0.8587,-0.8587,-0.8587,-0.8587,-0.8454,-0.8192,-0.8058,-0.7922,-0.7252,-0.6985,-0.6851,-0.6587,-0.6453,-0.6453,-0.6453,-0.6453,-0.6453,-0.6453,-0.6453,-0.6453,-0.6453,-0.6453,-0.6453,-0.6453,-0.6453,-0.6453,-0.6453,-0.6453,-0.6453,-0.6453,-0.6453,-0.6453,-0.6453,-0.6453,-0.6587,-0.6587,-0.7116,-0.7514,-0.7648,-0.8318,-0.8987,-0.9649,-0.9536,-0.9527,-0.9779,-1.0316,-1.0582,-1.0721,-1.0721,-1.0721,-1.0721,-1.2161,-1.36,0.0,0.0,0.0,0.0,0.0,0.0,0.0,0.0,0.0,0.0,0.0,0.0,0.0,0.0,0.0,0.0,-0.1941,-0.2591,-0.3641,-0.4034,-0.4159,-0.4146,-0.4145,-0.4121,-0.406,-0.4055,-0.403,-0.3973,-0.3969,-0.3963,-0.3951,-0.3951,-0.3951,-0.3951,-0.3951,-0.3951,-0.3951,-0.3951,-0.3951,-0.3951,-0.4438,-0.4842,-0.504,-0.4804,-0.5232,-0.5945,-0.5986,-0.6368,-0.6954,-0.6974,-0.7369,-0.8017,-0.8041,-0.8181,-0.8323,-0.8418,-0.8454,-0.8467,-0.8557,-0.8587,-0.8587,-0.8323,-0.8189,-0.8189,-0.7791,-0.739,-0.7252,-0.6985,-0.6853,-0.6587,-0.6453,-0.6453,-0.6453,-0.6453,-0.6453,-0.6453,-0.6453,-0.6453,-0.6453,-0.6453,-0.6453,-0.6453,-0.6453,-0.6453,-0.6453,-0.6453,-0.6453,-0.6453,-0.6453,-0.6453,-0.6453,-0.6453,-0.6453,-0.6719,-0.725,-0.7381,-0.7781,-0.8318,-0.9117,-0.9516,-0.9646,-0.9618,-0.9886,-1.0452,-1.0555,-1.0687,-1.0721,-1.0721,-1.0721,-1.0721,-1.2161,-1.36,0.0,0.0,0.0,0.0,0.0,0.0,0.0,0.0,0.0,0.0,0.0,0.0,0.0,0.0,0.0,0.0,-0.2963,-0.3221,-0.3997,-0.4125,-0.4115,-0.4086,-0.4082,-0.4059,-0.4,-0.3995,-0.3982,-0.3952,-0.3951,-0.3951,-0.3951,-0.3951,-0.3951,-0.3951,-0.3951,-0.3951,-0.3951,-0.3951,-0.4073,-0.4438,-0.4681,-0.5315,-0.5856,-0.5898,-0.6171,-0.6549,-0.6745,-0.7127,-0.7561,-0.7617,-0.7894,-0.8155,-0.8212,-0.8272,-0.8331,-0.8394,-0.8451,-0.8508,-0.8565,-0.8454,-0.8323,-0.8192,-0.7925,-0.7791,-0.739,-0.7121,-0.6985,-0.6853,-0.6585,-0.6453,-0.6453,-0.6453,-0.6453,-0.6453,-0.6453,-0.6453,-0.6453,-0.6453,-0.6453,-0.6453,-0.6453,-0.6453,-0.6453,-0.6453,-0.6453,-0.6453,-0.6453,-0.6453,-0.6453,-0.6453,-0.6587,-0.6985,-0.6985,-0.725,-0.7917,-0.8315,-0.8715,-0.9117,-0.9785,-1.0183,-1.0183,-1.0183,-1.0319,-1.0721,-1.0721,-1.0721,-1.0721,-1.0721,-1.0721,-1.0721,-1.2816,-1.4241,0.0,0.0,0.0,0.0,0.0,0.0,0.0,0.0,0.0,0.0,0.0,0.0,0.0,0.0,0.0,0.0,-0.4095,-0.4095,-0.4095,-0.4095,-0.4076,-0.4026,-0.4021,-0.4001,-0.3955,-0.3951,-0.3951,-0.3951,-0.3951,-0.3946,-0.3935,-0.3935,-0.3931,-0.392,-0.392,-0.392,-0.392,-0.4041,-0.4284,-0.4887,-0.5145,-0.5892,-0.7016,-0.7105,-0.7096,-0.7133,-0.7625,-0.7872,-0.788,-0.7981,-0.8024,-0.8032,-0.8133,-0.8233,-0.8329,-0.8369,-0.8446,-0.8532,-0.8573,-0.8323,-0.8058,-0.8058,-0.7791,-0.739,-0.6987,-0.6851,-0.6853,-0.6587,-0.6453,-0.6453,-0.6453,-0.6453,-0.6453,-0.6453,-0.6453,-0.6453,-0.6453,-0.6453,-0.6453,-0.6453,-0.6453,-0.6453,-0.6453,-0.6453,-0.6453,-0.6453,-0.6453,-0.6453,-0.6453,-0.6587,-0.6851,-0.7381,-0.7648,-0.8048,-0.872,-0.9383,-0.9782,-0.9915,-1.0452,-1.0721,-1.0721,-1.0721,-1.0721,-1.0721,-1.0721,-1.0721,-1.0721,-1.0721,-1.0721,-1.0717,-1.36,-1.4879,0.0,0.0,0.0,0.0,0.0,0.0,0.0,0.0,0.0,0.0,0.0,0.0,0.0,0.0,0.0,-0.3725,-0.3974,-0.3974,-0.3974,-0.3974,-0.3971,-0.3962,-0.3962,-0.3959,-0.3951,-0.3951,-0.3951,-0.3951,-0.3951,-0.3928,-0.3875,-0.3872,-0.3849,-0.3794,-0.3793,-0.3793,-0.3793,-0.4383,-0.4619,-0.4737,-0.5879,-0.6926,-0.775,-0.7763,-0.7763,-0.7747,-0.7869,-0.7872,-0.7872,-0.7888,-0.7894,-0.7896,-0.7913,-0.7929,-0.797,-0.8182,-0.8269,-0.8312,-0.8516,-0.8323,-0.8058,-0.766,-0.739,-0.6985,-0.6721,-0.6587,-0.6587,-0.6453,-0.6453,-0.6453,-0.6453,-0.6453,-0.6453,-0.6453,-0.6453,-0.6453,-0.6453,-0.6453,-0.6453,-0.6453,-0.6453,-0.6453,-0.6453,-0.6453,-0.6453,-0.6453,-0.6453,-0.6453,-0.6453,-0.6985,-0.7381,-0.7514,-0.8051,-0.8717,-0.9516,-0.9646,-0.9915,-1.0585,-1.0585,-1.0721,-1.0721,-1.0721,-1.0721,-1.0721,-1.0721,-1.0721,-1.0721,-1.0721,-1.0721,-1.0717,-1.36,-1.4903,0.0,0.0,0.0,0.0,0.0,0.0,0.0,0.0,0.0,0.0,0.0,0.0,0.0,0.0,0.0,-0.3826,-0.3951,-0.3951,-0.3951,-0.3951,-0.3937,-0.3903,-0.3929,-0.3937,-0.3903,-0.3899,-0.3899,-0.3899,-0.3868,-0.3838,-0.3811,-0.3809,-0.3797,-0.377,-0.377,-0.4004,-0.4355,-0.4589,-0.5059,-0.576,-0.6629,-0.7422,-0.7777,-0.7777,-0.7809,-0.7872,-0.7872,-0.7872,-0.7872,-0.7872,-0.7872,-0.7872,-0.7872,-0.7913,-0.7986,-0.8095,-0.8176,-0.825,-0.8091,-0.8039,-0.7962,-0.7306,-0.7078,-0.6985,-0.6587,-0.6453,-0.6453,-0.6453,-0.6453,-0.6453,-0.6453,-0.6453,-0.6453,-0.6453,-0.6453,-0.6453,-0.6453,-0.6453,-0.6453,-0.6453,-0.6453,-0.6453,-0.6453,-0.6453,-0.6453,-0.6453,-0.6453,-0.6585,-0.6985,-0.7383,-0.7781,-0.8579,-0.8984,-0.9516,-1.0183,-1.0316,-1.0452,-1.0721,-1.0721,-1.0721,-1.0721,-1.0721,-1.0721,-1.0721,-1.0721,-1.0721,-1.0721,-1.0721,-1.0721,-1.0721,-1.2816,-1.3722,0.0,0.0,0.0,0.0,0.0,0.0,0.0,0.0,0.0,0.0,0.0,0.0,0.0,0.0,0.0,-0.3905,-0.3905,-0.3905,-0.3905,-0.3905,-0.3888,-0.3842,-0.3876,-0.3887,-0.3841,-0.3837,-0.3837,-0.3837,-0.3796,-0.3762,-0.3747,-0.3862,-0.3972,-0.3954,-0.407,-0.4417,-0.4881,-0.4997,-0.5702,-0.6655,-0.7238,-0.7551,-0.7701,-0.7701,-0.7763,-0.7872,-0.7872,-0.7872,-0.7872,-0.7872,-0.7872,-0.7872,-0.7872,-0.7926,-0.8011,-0.8043,-0.8111,-0.8071,-0.7871,-0.7816,-0.7631,-0.7269,-0.7062,-0.6985,-0.6587,-0.6453,-0.6453,-0.6453,-0.6453,-0.6453,-0.6453,-0.6453,-0.6453,-0.6453,-0.6453,-0.6453,-0.6453,-0.6453,-0.6453,-0.6453,-0.6453,-0.6453,-0.6453,-0.6453,-0.6453,-0.6453,-0.6587,-0.6985,-0.7381,-0.7781,-0.8448,-0.9646,-0.9915,-1.0183,-1.0717,-1.0721,-1.0721,-1.0721,-1.0721,-1.0721,-1.0721,-1.0721,-1.0721,-1.0721,-1.0721,-1.0721,-1.0721,-1.0721,-1.0721,-1.0721,-1.2161,-1.2808,0.0,0.0,0.0,0.0,0.0,0.0,0.0,0.0,0.0,0.0,0.0,0.0,0.0,0.0,0.0,-0.3779,-0.3779,-0.3779,-0.3779,-0.3779,-0.3778,-0.3774,-0.3777,-0.3778,-0.3774,-0.3774,-0.3774,-0.3774,-0.3771,-0.3744,-0.3685,-0.4255,-0.4565,-0.4494,-0.505,-0.5386,-0.5386,-0.5944,-0.6554,-0.7231,-0.7345,-0.747,-0.7701,-0.7701,-0.7763,-0.7872,-0.7872,-0.7872,-0.7872,-0.7872,-0.7872,-0.7872,-0.7872,-0.7875,-0.7894,-0.8011,-0.7934,-0.7723,-0.8199,-0.7888,-0.7384,-0.7486,-0.7252,-0.6985,-0.6587,-0.6453,-0.6453,-0.6453,-0.6453,-0.6453,-0.6453,-0.6453,-0.6453,-0.6453,-0.6453,-0.6453,-0.6453,-0.6453,-0.6453,-0.6453,-0.6453,-0.6453,-0.6453,-0.6453,-0.6453,-0.6453,-0.6985,-0.7514,-0.7514,-0.8712,-0.9646,-0.9646,-1.0316,-1.0717,-1.0721,-1.0721,-1.0721,-1.0721,-1.0721,-1.0721,-1.0721,-1.0721,-1.0721,-1.0721,-1.0721,-1.0721,-1.0721,-1.0721,-1.0721,-1.0721,-1.2161,-1.2816,0.0,0.0,0.0,0.0,0.0,0.0,0.0,0.0,0.0,0.0,0.0,0.0,0.0,0.0,0.0,-0.377,-0.377,-0.377,-0.377,-0.377,-0.3755,-0.3715,-0.3745,-0.3753,-0.3714,-0.3711,-0.3711,-0.3711,-0.4018,-0.421,-0.4184,-0.4745,-0.5069,-0.5039,-0.526,-0.5594,-0.5929,-0.6596,-0.6953,-0.722,-0.7298,-0.7423,-0.7587,-0.7665,-0.7763,-0.7872,-0.7872,-0.7872,-0.7872,-0.7872,-0.7872,-0.7872,-0.7872,-0.775,-0.7633,-0.7678,-0.7447,-0.7224,-0.7496,-0.7591,-0.754,-0.7259,-0.7206,-0.7257,-0.6721,-0.6453,-0.6453,-0.6453,-0.6453,-0.6453,-0.6453,-0.6453,-0.6453,-0.6453,-0.6453,-0.6453,-0.6453,-0.6453,-0.6453,-0.6453,-0.6453,-0.6585,-0.7118,-0.7116,-0.7252,-0.7786,-0.8053,-0.8318,-0.8848,-0.938,-0.9915,-1.0316,-1.0585,-1.0721,-1.0721,-1.0721,-1.0721,-1.0721,-1.0721,-1.0721,-1.0721,-1.0721,-1.0721,-1.0721,-1.0721,-1.0721,-1.0721,-1.0721,-1.0721,-1.0721,-1.1244,-1.1901,0.0,0.0,0.0,0.0,0.0,0.0,0.0,0.0,0.0,0.0,0.0,0.0,0.0,0.0,0.0,-0.3709,-0.3709,-0.3709,-0.3709,-0.3709,-0.3694,-0.3653,-0.3683,-0.3692,-0.3651,-0.3647,-0.3761,-0.3989,-0.4284,-0.459,-0.4814,-0.5371,-0.5817,-0.604,-0.604,-0.6151,-0.6596,-0.7043,-0.7154,-0.7157,-0.7277,-0.7399,-0.7524,-0.7525,-0.764,-0.7872,-0.775,-0.775,-0.7872,-0.7872,-0.7872,-0.775,-0.775,-0.7508,-0.7266,-0.7266,-0.7021,-0.6789,-0.7015,-0.7219,-0.7304,-0.6933,-0.7024,-0.7215,-0.6713,-0.6453,-0.6453,-0.6453,-0.6453,-0.6453,-0.6453,-0.6453,-0.6453,-0.6453,-0.6453,-0.6453,-0.6453,-0.6453,-0.6453,-0.6453,-0.6719,-0.6985,-0.7381,-0.7648,-0.8051,-0.8587,-0.8853,-0.9117,-0.9646,-0.9915,-1.0183,-1.0585,-1.0721,-1.0721,-1.0721,-1.0721,-1.0721,-1.0721,-1.0721,-1.0721,-1.0721,-1.0721,-1.0721,-1.0721,-1.0721,-1.0744,-1.0799,-1.0744,-1.0721,-1.0721,-1.0772,-1.1718,0.0,0.0,0.0,0.0,0.0,0.0,0.0,0.0,0.0,0.0,0.0,0.0,0.0,0.0,0.0,-0.3587,-0.3587,-0.3587,-0.3587,-0.3587,-0.3587,-0.3587,-0.3587,-0.3587,-0.3587,-0.3587,-0.3921,-0.4479,-0.448,-0.4814,-0.5371,-0.604,-0.6596,-0.7154,-0.7154,-0.7154,-0.7154,-0.7154,-0.7154,-0.7157,-0.7277,-0.7399,-0.7521,-0.7282,-0.7396,-0.7872,-0.7508,-0.7627,-0.7872,-0.7869,-0.775,-0.7385,-0.7385,-0.7143,-0.69,-0.69,-0.6653,-0.6416,-0.6888,-0.6925,-0.6584,-0.6779,-0.6845,-0.6865,-0.6558,-0.6451,-0.6453,-0.6453,-0.6453,-0.6453,-0.6453,-0.6453,-0.6453,-0.6453,-0.6453,-0.6453,-0.6587,-0.6587,-0.6587,-0.6587,-0.7118,-0.7514,-0.7514,-0.8184,-0.8587,-0.872,-0.925,-0.9782,-0.9782,-1.0316,-1.0721,-1.0721,-1.0721,-1.0721,-1.0721,-1.0721,-1.0721,-1.0721,-1.0721,-1.0721,-1.0721,-1.0721,-1.0721,-1.0721,-1.0721,-1.0795,-1.0948,-1.0799,-1.0727,-1.0738,-1.088,-1.2546,0.1422,0.0,0.0,0.0,0.0,0.0,0.0,0.0,0.0,0.0,0.0,0.0,0.0,0.0,0.0,-0.3587,-0.3587,-0.3587,-0.3587,-0.3587,-0.3587,-0.3587,-0.3587,-0.3587,-0.3587,-0.4033,-0.4369,0.0,-0.526,-0.5929,-0.604,-0.6596,-0.6821,-0.6606,-0.6715,-0.6715,-0.6606,-0.6495,-0.6495,-0.6495,-0.6601,-0.6822,-0.7166,-0.7282,-0.7399,-0.7508,-0.775,-0.7508,-0.7143,-0.7385,-0.7508,-0.7385,-0.7143,-0.6775,-0.6528,-0.6528,-0.6283,-0.6052,-0.6516,-0.6677,-0.6573,-0.6699,-0.679,-0.6852,-0.6481,-0.64,-0.6453,-0.6453,-0.6453,-0.6453,-0.6453,-0.6453,-0.6453,-0.6453,-0.6453,-0.6585,-0.7118,-0.725,-0.725,-0.725,-0.7383,-0.7781,-0.8848,-0.9247,-0.9516,-1.0054,-1.0319,-1.0452,-1.0452,-1.0585,-1.0721,-1.0721,-1.0721,-1.0721,-1.0721,-1.0721,-1.0721,-1.0721,-1.0721,-1.0721,-1.0721,-1.0721,-1.0721,-1.0721,-1.0721,-1.0795,-1.0948,-1.0907,-1.0938,-1.1176,-1.2978,-1.4406,0.0,0.0,0.0,0.0,0.0,0.0,-0.0174,-0.1195,0.0,0.0,0.0,0.0,0.0,0.0,0.0,-0.3545,-0.3549,-0.3557,-0.3583,-0.3587,-0.3587,-0.3587,-0.3811,-0.3921,-0.3921,-0.448,-0.4925,-0.5039,-0.5708,-0.6154,-0.6487,-0.6821,-0.6935,-0.6715,-0.6715,-0.6604,-0.6495,-0.6386,-0.6408,-0.6566,-0.6667,-0.6889,-0.7118,-0.7115,-0.7203,-0.7143,-0.7385,-0.7266,-0.69,-0.7143,-0.7141,-0.7018,-0.6773,-0.653,-0.616,-0.616,-0.6039,-0.5925,-0.6226,-0.6367,-0.6258,-0.6356,-0.6447,-0.6532,-0.6306,-0.6382,-0.6453,-0.6453,-0.6453,-0.6453,-0.6453,-0.6453,-0.6453,-0.6453,-0.6719,-0.6985,-0.7381,-0.7781,-0.7917,-0.7917,-0.8182,-0.8715,-0.9513,-0.9915,-1.0183,-1.0588,-1.0721,-1.0721,-1.0721,-1.0721,-1.0721,-1.0721,-1.0721,-1.0721,-1.0721,-1.0721,-1.0721,-1.0721,-1.0721,-1.0721,-1.0721,-1.0721,-1.0721,-1.0721,-1.0721,-1.0795,-1.0948,-1.0948,-1.1056,-1.1392,-1.3865,-1.5114,0.0,0.0,0.0,0.0,-0.054,0.0,-0.0347,-0.1438,-0.2054,0.0,0.0,0.0,0.0,0.0,0.0,-0.3439,-0.3463,-0.3503,-0.3576,-0.3587,-0.3587,-0.3699,-0.4145,-0.448,-0.4592,-0.5148,-0.5594,-0.571,-0.5822,-0.6044,-0.6601,-0.6604,-0.6824,-0.7043,-0.6824,-0.6609,-0.6621,-0.64,-0.6456,-0.6904,-0.6884,-0.6985,-0.71,-0.696,-0.6888,-0.69,-0.69,-0.69,-0.6778,-0.6778,-0.6653,-0.6403,-0.6403,-0.616,-0.5916,-0.5916,-0.5916,-0.5916,-0.5916,-0.5916,-0.5933,-0.6025,-0.611,-0.6196,-0.629,-0.6382,-0.6453,-0.6453,-0.6453,-0.6453,-0.6453,-0.6587,-0.6587,-0.6587,-0.7118,-0.7648,-0.7781,-0.8318,-0.872,-0.8853,-0.925,-0.9782,-0.9782,-1.0316,-1.0721,-1.0721,-1.0721,-1.0721,-1.0721,-1.0721,-1.0721,-1.0721,-1.0721,-1.0721,-1.0721,-1.0721,-1.0721,-1.0721,-1.0721,-1.0721,-1.0721,-1.0721,-1.0721,-1.0721,-1.0738,-1.0812,-1.0948,-1.0965,-1.1107,-1.1499,-1.3908,-1.517,0.0,0.0,0.1491,-0.0156,-0.0624,0.0,-0.2484,-0.2993,-0.3026,0.0,0.0,0.0,0.0,0.0,0.0,-0.3135,-0.3259,-0.341,-0.3565,-0.3587,-0.3811,-0.4257,-0.448,-0.4592,-0.4817,-0.5596,-0.5929,-0.5483,-0.5935,-0.6161,-0.5933,-0.6272,-0.6272,-0.6044,-0.627,-0.6425,-0.6505,-0.6168,-0.6221,-0.6669,-0.6102,-0.6282,-0.6861,-0.652,-0.6451,-0.6528,-0.6775,-0.6655,-0.6164,-0.6405,-0.6403,-0.6403,-0.616,-0.5916,-0.5916,-0.5916,-0.5916,-0.5916,-0.5916,-0.5916,-0.5933,-0.6025,-0.611,-0.6196,-0.629,-0.6382,-0.6453,-0.6453,-0.6453,-0.6453,-0.6453,-0.6851,-0.725,-0.725,-0.7917,-0.8584,-0.9114,-0.938,-0.9649,-1.0187,-0.9918,-0.9915,-1.0452,-1.0588,-1.0721,-1.0721,-1.0721,-1.0721,-1.0721,-1.0721,-1.0721,-1.0721,-1.0721,-1.0721,-1.0721,-1.0721,-1.0721,-1.0721,-1.0721,-1.0721,-1.0721,-1.0721,-1.0721,-1.0721,-1.0843,-1.0917,-1.0948,-1.1063,-1.1151,-1.1341,-1.3844,-1.5091,0.2076,0.165,0.0942,-0.0313,-0.1019,0.0,0.0,-0.2811,-0.2969,-0.2366,-0.2782,-0.3289,-0.3322,0.0,-0.3526,-0.3653,-0.3619,-0.3656,-0.393,-0.3879,-0.3984,-0.4534,-0.472,-0.4822,-0.5086,-0.5749,-0.5989,-0.5592,-0.5712,-0.5826,-0.5822,-0.5935,-0.6158,-0.6267,-0.6272,-0.6437,-0.6653,-0.631,-0.639,-0.6662,-0.6305,-0.6357,-0.6575,-0.6451,-0.6235,-0.616,-0.6528,-0.6407,-0.5916,-0.6283,-0.628,-0.616,-0.5916,-0.5916,-0.5916,-0.5916,-0.5916,-0.5916,-0.5916,-0.5916,-0.5925,-0.5972,-0.6074,-0.6188,-0.6235,-0.6345,-0.6453,-0.6453,-0.6719,-0.6985,-0.6985,-0.7519,-0.8051,-0.8051,-0.8584,-0.925,-0.9646,-0.9915,-1.0316,-1.0588,-1.0452,-1.0316,-1.0588,-1.0721,-1.0721,-1.0721,-1.0721,-1.0721,-1.0721,-1.0721,-1.0721,-1.0721,-1.0721,-1.0721,-1.0721,-1.0721,-1.0721,-1.0721,-1.0721,-1.0721,-1.0721,-1.0721,-1.0721,-1.0721,-1.0795,-1.0833,-1.0833,-1.0907,-1.1019,-1.1296,-1.3827,-1.5067,0.1778,0.1187,0.0474,-0.0947,-0.1499,-0.1673,0.0,0.0,0.0,0.0,0.0,0.0,0.0,0.0,0.0,0.0,0.0,0.0,0.0,-0.4131,0.0,-0.479,-0.5004,-0.5122,-0.527,-0.5594,-0.5875,-0.581,-0.5552,-0.5435,-0.571,-0.5712,-0.5935,-0.649,-0.6272,-0.6444,-0.6914,-0.6568,-0.656,-0.6892,-0.6769,-0.6572,-0.6403,-0.628,-0.616,-0.5916,-0.616,-0.616,-0.5916,-0.616,-0.616,-0.5916,-0.5916,-0.5916,-0.5916,-0.5916,-0.5916,-0.5916,-0.5916,-0.5916,-0.5921,-0.5939,-0.6061,-0.621,-0.6356,-0.6598,-0.6719,-0.6855,-0.7252,-0.7648,-0.7648,-0.8318,-0.8853,-0.8853,-0.9383,-0.9915,-0.9915,-1.0319,-1.0721,-1.0721,-1.0721,-1.0721,-1.0721,-1.0721,-1.0721,-1.0721,-1.0721,-1.0721,-1.0721,-1.0721,-1.0721,-1.0721,-1.0721,-1.0721,-1.0721,-1.0721,-1.0721,-1.0721,-1.0721,-1.0721,-1.0721,-1.0721,-1.0721,-1.0721,-1.0721,-1.0721,-1.0721,-1.0721,-1.0843,-1.121,-1.3893,-1.5016,0.0916,0.0972,0.081,-0.2024,-0.1779,-0.1127,-0.2541,0.0,-0.2773,-0.2629,0.0,0.0,0.0,0.0,0.0,0.0,0.0,0.0,-0.4476,-0.4393,-0.446,-0.5115,-0.5122,-0.526,-0.5514,-0.519,-0.5226,-0.5795,-0.5367,-0.5124,-0.5481,-0.5493,-0.5603,-0.5933,-0.5824,-0.6249,-0.7023,-0.6796,-0.6788,-0.7368,-0.6754,-0.6392,-0.6403,-0.6037,-0.5916,-0.5916,-0.5916,-0.5916,-0.5916,-0.5916,-0.5916,-0.5916,-0.5916,-0.5916,-0.5916,-0.5916,-0.5916,-0.5916,-0.5916,-0.5916,-0.5931,-0.6012,-0.6157,-0.6446,-0.7188,-0.7362,-0.7517,-0.8187,-0.8454,-0.8454,-0.8454,-0.8984,-0.9513,-0.9513,-1.005,-1.0585,-1.0585,-1.0588,-1.0721,-1.0721,-1.0721,-1.0721,-1.0721,-1.0721,-1.0721,-1.0721,-1.0721,-1.0721,-1.0721,-1.0721,-1.0721,-1.0721,-1.0721,-1.0721,-1.0721,-1.0721,-1.0721,-1.0721,-1.0721,-1.0721,-1.0721,-1.0721,-1.0721,-1.0721,-1.0721,-1.0721,-1.0721,-1.0721,-1.0738,-1.0768,-1.3643,-1.4945,0.1327,0.1161,0.0759,-0.1164,-0.1267,-0.1195,-0.2555,-0.2752,-0.2724,-0.2724,0.0,0.0,0.0,0.0,0.0,0.0,-0.4192,0.0,0.0,0.0,-0.4663,0.0,0.0,0.0,-0.5246,-0.5105,-0.5055,-0.5424,-0.5272,-0.5179,-0.5296,-0.5353,-0.5491,-0.5822,-0.5822,-0.6254,-0.7041,-0.693,-0.6892,-0.7049,-0.6745,-0.6499,-0.6079,-0.5892,-0.5916,-0.5916,-0.5916,-0.5916,-0.5916,-0.5916,-0.5916,-0.5916,-0.5916,-0.5916,-0.5916,-0.5916,-0.5916,-0.5916,-0.5916,-0.5916,-0.5941,-0.6587,-0.7072,-0.7557,-0.7997,-0.8184,-0.8184,-0.8454,-0.8851,-0.925,-0.925,-0.9782,-1.0316,-1.0316,-1.0452,-1.0721,-1.0721,-1.0721,-1.0721,-1.0721,-1.0721,-1.0721,-1.0721,-1.0721,-1.0721,-1.0721,-1.0721,-1.0721,-1.0721,-1.0721,-1.0721,-1.0721,-1.0721,-1.0721,-1.0721,-1.0721,-1.0721,-1.0721,-1.0721,-1.0721,-1.0721,-1.0721,-1.0721,-1.0721,-1.0721,-1.0721,-1.0721,-1.0721,-1.1115,-1.2033,-1.3993,-1.4907,0.1629,0.1123,0.0615,-0.0683,-0.1129,-0.1497,-0.2461,-0.2587,-0.2563,-0.2629,-0.2766,0.0,0.0,0.0,0.0,0.0,0.0,-0.4678,0.0,-0.4734,0.0,0.0,0.0,0.0,0.0,-0.5081,-0.5131,-0.5131,-0.5202,-0.5165,-0.5241,-0.5333,-0.5491,-0.5822,-0.5712,-0.6141,-0.7041,-0.693,-0.6869,-0.6743,-0.6726,-0.6478,-0.5784,-0.5876,-0.5916,-0.5916,-0.5916,-0.5916,-0.5916,-0.5916,-0.5916,-0.5916,-0.5916,-0.6039,-0.616,-0.616,-0.616,-0.616,-0.6405,-0.6423,-0.6598,-0.7275,-0.7863,-0.8312,-0.8786,-0.8853,-0.8987,-0.912,-0.9519,-0.9915,-0.9915,-1.0319,-1.0721,-1.0721,-1.0721,-1.0721,-1.0721,-1.0721,-1.0721,-1.0721,-1.0721,-1.0721,-1.0721,-1.0721,-1.0721,-1.0721,-1.0721,-1.0721,-1.0721,-1.0721,-1.0721,-1.0721,-1.0721,-1.0721,-1.0721,-1.0721,-1.0721,-1.0721,-1.0721,-1.0721,-1.0721,-1.0721,-1.0721,-1.0721,-1.0721,-1.0721,-1.0721,-1.0721,-1.1376,-1.2816,-1.4254,-1.5168,0.1318,0.0922,0.0457,-0.1228,-0.1651,-0.1902,-0.2537,-0.2565,-0.2501,-0.2617,-0.2817,-0.3095,-0.3619,-0.4022,0.0,0.0,0.0,0.0,0.0,0.0,0.0,0.0,0.0,0.0,0.0,-0.5003,-0.5025,0.0,-0.5153,-0.5173,-0.523,-0.5333,-0.5491,-0.5822,-0.5603,-0.5919,-0.7041,-0.6467,-0.6403,-0.6743,-0.6478,-0.6233,-0.5784,-0.5876,-0.5916,-0.5916,-0.5916,-0.5916,-0.5916,-0.5916,-0.5916,-0.5916,-0.5916,-0.628,-0.6888,-0.6888,-0.6888,-0.7011,-0.7625,-0.7948,-0.8068,-0.8185,-0.8301,-0.8685,-0.9474,-0.9649,-0.9782,-1.0452,-1.0588,-1.0721,-1.0721,-1.0721,-1.0721,-1.0721,-1.0721,-1.0721,-1.0721,-1.0721,-1.0721,-1.0721,-1.0721,-1.0721,-1.0721,-1.0721,-1.0721,-1.0721,-1.0721,-1.0721,-1.0721,-1.0721,-1.0721,-1.0721,-1.0721,-1.0721,-1.0721,-1.0721,-1.0721,-1.0721,-1.0721,-1.0721,-1.0721,-1.0721,-1.0721,-1.0721,-1.0721,-1.0721,-1.0721,-1.0721,-1.1376,-1.2816,-1.4254,-1.5684,0.1158,0.0882,0.0592,-0.1404,-0.1697,-0.1704,-0.2585,-0.2621,-0.2429,-0.2497,-0.265,-0.2872,-0.3138,0.0,0.0,0.0,0.0,0.0,0.0,0.0,-0.4937,-0.5018,0.0,0.0,0.0,0.0,0.0,-0.5041,-0.5286,-0.537,-0.5149,-0.5516,-0.5601,-0.5491,-0.5603,-0.5919,-0.6464,-0.6467,-0.6398,-0.6499,-0.6478,-0.6231,-0.5784,-0.5876,-0.5916,-0.5916,-0.5916,-0.5916,-0.5916,-0.5916,-0.5916,-0.5916,-0.6403,-0.6646,-0.6888,-0.6888,-0.7133,-0.7625,-0.7872,-0.8144,-0.8585,-0.8796,-0.9282,-0.9751,-1.0247,-1.0316,-1.0452,-1.0588,-1.0721,-1.0721,-1.0721,-1.0721,-1.0721,-1.0721,-1.0721,-1.0721,-1.0721,-1.0721,-1.0721,-1.0721,-1.0721,-1.0721,-1.0721,-1.0721,-1.0721,-1.0721,-1.0721,-1.0721,-1.0721,-1.0721,-1.0721,-1.0721,-1.0721,-1.0721,-1.0721,-1.0721,-1.0721,-1.0721,-1.0721,-1.0721,-1.0721,-1.0721,-1.0721,-1.0721,-1.0721,-1.0721,-1.0721,-1.1637,-1.2816,-1.4254,-1.5684,-1.6592,0.1313,0.0925,0.0414,-0.1575,-0.208,-0.2183,-0.2794,-0.2739,-0.254,-0.2431,-0.2652,-0.2794,-0.2908,-0.3461,0.0,0.0,0.0,0.0,0.0,-0.4859,-0.5018,-0.5018,-0.4994,0.0,0.0,0.0,-0.5073,-0.4942,-0.5313,-0.5419,-0.5312,-0.5467,-0.5678,-0.5714,-0.5714,-0.5788,-0.6179,-0.6176,-0.6226,-0.6208,-0.6185,-0.6077,-0.5784,-0.5876,-0.5916,-0.5916,-0.5916,-0.5916,-0.5916,-0.5916,-0.6039,-0.628,-0.6766,-0.7133,-0.7625,-0.7625,-0.7991,-0.861,-0.8658,-0.8952,-0.9408,-0.9634,-1.0003,-1.0473,-1.0663,-1.0721,-1.0721,-1.0721,-1.0721,-1.0721,-1.0721,-1.0721,-1.0721,-1.0721,-1.0721,-1.0721,-1.0721,-1.0721,-1.0721,-1.0721,-1.0721,-1.0721,-1.0721,-1.0721,-1.0721,-1.0721,-1.0721,-1.0721,-1.0721,-1.0721,-1.0721,-1.0721,-1.0721,-1.0721,-1.0721,-1.0721,-1.0721,-1.0721,-1.0721,-1.0721,-1.0721,-1.0721,-1.0748,-1.0802,-1.0748,-1.0748,-1.0802,-1.2192,-1.3473,-1.4907,-1.6333,-1.7238]},{"header":{"parameterUnit":"m.s-1","parameterCategory":1,"la1":30.6,"la2":29.2853,"lo1":-89.7004,"lo2":-87.6739,"dy":0.0162,"dx":0.0183,"nx":112,"ny":82,"refTime":"2023-05-14T06:00:00:Z","depth":0,"parameterNumber":3,"parameterNumberName":"V-component_of_WINDS"},"data":[0.0,0.0,0.0,0.0,0.0,0.0,0.0,0.0,0.0,0.0,0.0,0.0,0.0,0.0,0.0,0.0,0.0,0.0,0.0,0.0,0.0,0.0,0.0,0.0,0.0,0.0,0.0,0.0,0.0,0.0,0.0,0.0,0.0,0.0,0.0,0.0,0.0,0.0,0.0,0.0,0.0,0.0,0.0,0.0,0.0,0.0,0.0,0.0,0.0,0.0,0.0,0.0,0.0,0.0,0.0,0.0,0.0,0.0,0.0,0.0,0.0,0.0,0.0,0.0,0.0,0.0,0.0,0.0,0.0,0.0,0.0,0.0,0.0,0.0,0.0,0.0,0.0,0.0,0.0,0.0,0.0,0.0,0.0,0.0,0.0,0.0,0.0,0.0,0.0,0.0,-2.4175,-2.6499,-3.1621,-3.4793,-3.4585,-3.5276,-3.4432,-3.1396,0.0,0.0,0.0,0.0,0.0,0.0,0.0,0.0,0.0,0.0,0.0,0.0,0.0,0.0,0.0,0.0,0.0,0.0,0.0,0.0,0.0,0.0,0.0,0.0,0.0,0.0,0.0,0.0,0.0,0.0,0.0,0.0,0.0,0.0,0.0,0.0,0.0,0.0,0.0,0.0,0.0,0.0,0.0,0.0,0.0,0.0,0.0,0.0,0.0,0.0,0.0,0.0,0.0,0.0,0.0,0.0,0.0,0.0,0.0,0.0,0.0,0.0,0.0,0.0,0.0,0.0,0.0,0.0,0.0,0.0,0.0,0.0,0.0,0.0,0.0,0.0,0.0,0.0,0.0,0.0,0.0,0.0,0.0,0.0,0.0,0.0,0.0,0.0,0.0,0.0,0.0,0.0,0.0,0.0,0.0,0.0,0.0,0.0,0.0,0.0,0.0,0.0,0.0,0.0,-2.6016,-3.0934,-3.4023,-3.5716,-3.5742,-3.4963,-3.4047,-3.3078,0.0,0.0,0.0,0.0,0.0,0.0,0.0,0.0,0.0,0.0,0.0,0.0,0.0,0.0,0.0,0.0,0.0,0.0,0.0,0.0,0.0,0.0,0.0,0.0,0.0,0.0,0.0,0.0,0.0,0.0,0.0,0.0,0.0,0.0,0.0,0.0,0.0,0.0,0.0,0.0,0.0,0.0,0.0,0.0,0.0,0.0,0.0,0.0,0.0,0.0,0.0,0.0,0.0,0.0,0.0,0.0,0.0,0.0,0.0,0.0,0.0,0.0,0.0,0.0,0.0,0.0,0.0,0.0,0.0,0.0,0.0,0.0,0.0,0.0,0.0,0.0,0.0,0.0,0.0,0.0,0.0,0.0,0.0,0.0,0.0,0.0,0.0,0.0,0.0,0.0,0.0,0.0,0.0,0.0,0.0,0.0,0.0,0.0,0.0,0.0,0.0,0.0,0.0,-2.4371,-2.7401,-3.1819,-3.4038,-3.539,-3.5895,-3.4619,-3.3259,-3.2073,-2.6222,0.0,0.0,0.0,0.0,0.0,0.0,0.0,0.0,0.0,0.0,0.0,0.0,0.0,0.0,0.0,0.0,0.0,0.0,0.0,0.0,0.0,0.0,0.0,0.0,0.0,0.0,0.0,0.0,0.0,0.0,0.0,0.0,0.0,0.0,0.0,0.0,0.0,0.0,0.0,0.0,0.0,0.0,0.0,0.0,0.0,0.0,0.0,0.0,0.0,0.0,0.0,0.0,0.0,0.0,0.0,0.0,0.0,0.0,0.0,0.0,0.0,0.0,0.0,0.0,0.0,0.0,0.0,0.0,0.0,0.0,0.0,0.0,0.0,0.0,0.0,0.0,0.0,0.0,0.0,0.0,0.0,0.0,0.0,0.0,0.0,0.0,0.0,0.0,0.0,0.0,0.0,0.0,0.0,0.0,0.0,0.0,0.0,0.0,0.0,0.0,0.0,0.0,-2.6483,-2.8916,-3.1792,-3.3779,-3.5179,-3.584,-3.4725,-3.3086,-3.093,-2.4313,0.0,0.0,0.0,0.0,0.0,0.0,0.0,0.0,0.0,0.0,0.0,0.0,0.0,0.0,0.0,0.0,0.0,0.0,0.0,0.0,0.0,0.0,0.0,0.0,0.0,0.0,0.0,0.0,0.0,0.0,0.0,0.0,0.0,0.0,0.0,0.0,0.0,0.0,0.0,0.0,0.0,0.0,0.0,0.0,0.0,0.0,0.0,0.0,0.0,0.0,0.0,0.0,0.0,0.0,0.0,0.0,0.0,0.0,0.0,0.0,0.0,0.0,0.0,0.0,0.0,0.0,0.0,0.0,0.0,0.0,0.0,0.0,0.0,0.0,0.0,0.0,0.0,0.0,0.0,0.0,0.0,0.0,0.0,0.0,0.0,0.0,0.0,0.0,0.0,0.0,0.0,0.0,0.0,0.0,0.0,0.0,0.0,0.0,0.0,0.0,0.0,0.0,-2.8455,-3.0925,-3.1982,-3.4326,-3.5831,-3.588,-3.5791,-3.4309,-3.1015,-2.4315,0.0,0.0,0.0,0.0,0.0,0.0,0.0,0.0,0.0,0.0,0.0,0.0,0.0,0.0,0.0,0.0,0.0,0.0,0.0,0.0,0.0,0.0,0.0,0.0,0.0,0.0,0.0,0.0,0.0,0.0,0.0,0.0,0.0,0.0,0.0,0.0,0.0,0.0,0.0,0.0,0.0,0.0,0.0,0.0,0.0,0.0,0.0,0.0,0.0,0.0,0.0,0.0,0.0,0.0,0.0,0.0,0.0,0.0,0.0,0.0,0.0,0.0,0.0,0.0,0.0,0.0,0.0,0.0,0.0,0.0,0.0,0.0,0.0,0.0,0.0,0.0,0.0,0.0,0.0,0.0,0.0,0.0,0.0,0.0,0.0,0.0,0.0,0.0,0.0,0.0,0.0,0.0,0.0,0.0,0.0,0.0,0.0,0.0,0.0,0.0,0.0,0.0,-2.7689,-2.9507,0.0,-3.2469,-3.3156,-3.4252,-3.5295,-3.4446,-3.1015,0.0,0.0,0.0,0.0,0.0,0.0,0.0,0.0,0.0,0.0,0.0,0.0,0.0,0.0,0.0,0.0,0.0,0.0,0.0,0.0,0.0,0.0,0.0,0.0,0.0,0.0,0.0,0.0,0.0,0.0,0.0,0.0,0.0,0.0,0.0,0.0,0.0,0.0,0.0,0.0,0.0,0.0,0.0,0.0,0.0,0.0,0.0,0.0,0.0,0.0,0.0,0.0,0.0,0.0,0.0,0.0,0.0,0.0,0.0,0.0,0.0,0.0,0.0,0.0,0.0,0.0,0.0,0.0,0.0,0.0,0.0,0.0,0.0,0.0,0.0,0.0,0.0,0.0,0.0,0.0,0.0,0.0,0.0,0.0,0.0,0.0,0.0,0.0,0.0,0.0,0.0,0.0,0.0,0.0,0.0,0.0,0.0,0.0,0.0,0.0,0.0,0.0,-2.5694,-2.7358,-2.9257,0.0,-3.1159,-3.128,-3.2474,-3.3609,-3.3292,-3.0956,0.0,0.0,0.0,0.0,0.0,0.0,0.0,0.0,0.0,0.0,0.0,0.0,0.0,0.0,0.0,0.0,0.0,0.0,0.0,0.0,0.0,0.0,0.0,0.0,0.0,0.0,0.0,0.0,0.0,0.0,0.0,0.0,0.0,0.0,0.0,0.0,0.0,0.0,0.0,0.0,0.0,0.0,0.0,0.0,0.0,0.0,0.0,0.0,0.0,0.0,0.0,0.0,0.0,0.0,0.0,0.0,0.0,0.0,0.0,0.0,0.0,0.0,0.0,0.0,0.0,0.0,0.0,0.0,0.0,0.0,0.0,0.0,0.0,0.0,0.0,0.0,0.0,0.0,0.0,0.0,0.0,0.0,0.0,0.0,0.0,0.0,0.0,0.0,0.0,0.0,0.0,0.0,0.0,0.0,0.0,0.0,0.0,0.0,0.0,0.0,0.0,0.0,-2.4081,-2.7962,-3.0799,-3.0799,-3.0799,-3.0799,-3.0799,-3.0808,-3.0827,0.0,0.0,0.0,0.0,0.0,0.0,0.0,0.0,0.0,0.0,0.0,0.0,0.0,0.0,0.0,0.0,0.0,0.0,0.0,0.0,0.0,0.0,0.0,0.0,0.0,0.0,0.0,0.0,0.0,0.0,0.0,0.0,0.0,0.0,0.0,0.0,0.0,0.0,0.0,0.0,0.0,0.0,0.0,0.0,0.0,0.0,0.0,0.0,0.0,0.0,0.0,0.0,0.0,0.0,0.0,0.0,0.0,0.0,0.0,0.0,0.0,0.0,0.0,0.0,0.0,0.0,0.0,0.0,0.0,0.0,0.0,0.0,0.0,0.0,0.0,0.0,0.0,0.0,0.0,0.0,0.0,0.0,0.0,0.0,0.0,0.0,0.0,0.0,0.0,0.0,0.0,0.0,0.0,0.0,0.0,0.0,0.0,0.0,0.0,0.0,0.0,0.0,0.0,-2.6828,-2.9162,-3.0794,-3.0798,-3.0794,-3.0804,-3.0789,-3.0804,-3.1822,-3.4238,0.0,0.0,0.0,0.0,0.0,0.0,0.0,0.0,0.0,0.0,0.0,0.0,0.0,0.0,0.0,0.0,0.0,0.0,0.0,0.0,0.0,0.0,0.0,0.0,0.0,0.0,0.0,0.0,0.0,0.0,0.0,0.0,0.0,0.0,0.0,0.0,0.0,0.0,0.0,0.0,0.0,0.0,0.0,0.0,0.0,0.0,0.0,0.0,0.0,0.0,0.0,0.0,0.0,0.0,0.0,0.0,0.0,0.0,0.0,0.0,0.0,0.0,0.0,0.0,0.0,0.0,0.0,0.0,0.0,0.0,0.0,0.0,0.0,0.0,0.0,0.0,0.0,0.0,0.0,0.0,0.0,0.0,0.0,0.0,0.0,0.0,0.0,0.0,0.0,0.0,0.0,0.0,0.0,0.0,0.0,0.0,0.0,0.0,0.0,0.0,0.0,0.0,-2.5131,-2.8416,-3.1315,-3.2692,-3.28,-3.281,-3.2825,-3.2835,-3.3715,-3.576,0.0,0.0,0.0,0.0,0.0,0.0,0.0,0.0,0.0,0.0,0.0,0.0,0.0,0.0,0.0,0.0,0.0,0.0,0.0,0.0,0.0,0.0,0.0,0.0,0.0,0.0,0.0,0.0,0.0,0.0,0.0,0.0,0.0,0.0,0.0,0.0,0.0,0.0,0.0,0.0,0.0,0.0,0.0,0.0,0.0,0.0,0.0,0.0,0.0,0.0,0.0,0.0,0.0,0.0,0.0,0.0,0.0,0.0,0.0,0.0,0.0,0.0,0.0,0.0,0.0,0.0,0.0,0.0,0.0,0.0,0.0,0.0,0.0,0.0,0.0,0.0,0.0,0.0,0.0,0.0,0.0,0.0,0.0,0.0,0.0,0.0,0.0,0.0,0.0,0.0,0.0,0.0,0.0,0.0,0.0,0.0,0.0,0.0,0.0,0.0,0.0,0.0,-2.1718,-2.6874,-3.1985,-3.5098,-3.5669,-3.583,-3.588,-3.589,-3.5896,-3.5908,0.0,0.0,0.0,0.0,0.0,0.0,0.0,0.0,0.0,0.0,0.0,0.0,0.0,0.0,0.0,0.0,0.0,0.0,0.0,0.0,0.0,0.0,0.0,0.0,0.0,0.0,0.0,0.0,0.0,0.0,0.0,0.0,0.0,0.0,0.0,0.0,0.0,0.0,0.0,0.0,0.0,0.0,0.0,0.0,0.0,0.0,0.0,0.0,0.0,0.0,0.0,0.0,0.0,0.0,0.0,0.0,0.0,0.0,0.0,0.0,-2.9718,0.0,0.0,0.0,0.0,0.0,0.0,0.0,0.0,0.0,0.0,0.0,0.0,0.0,0.0,0.0,0.0,0.0,0.0,0.0,0.0,0.0,0.0,0.0,0.0,0.0,0.0,0.0,0.0,0.0,0.0,0.0,0.0,0.0,0.0,0.0,0.0,0.0,0.0,0.0,0.0,0.0,-2.824,-2.9854,-3.107,-3.1804,-3.428,-3.5889,-3.5894,-3.5904,-3.5912,-3.5986,-3.4605,0.0,0.0,0.0,0.0,0.0,0.0,0.0,0.0,0.0,0.0,0.0,0.0,0.0,0.0,0.0,0.0,0.0,0.0,0.0,0.0,0.0,0.0,0.0,0.0,0.0,0.0,0.0,0.0,0.0,0.0,0.0,0.0,0.0,0.0,0.0,0.0,0.0,0.0,0.0,0.0,0.0,0.0,0.0,0.0,0.0,0.0,0.0,0.0,0.0,0.0,0.0,0.0,0.0,0.0,0.0,0.0,0.0,0.0,0.0,0.0,-3.0523,0.0,0.0,0.0,0.0,0.0,0.0,0.0,0.0,0.0,0.0,0.0,0.0,0.0,0.0,0.0,0.0,0.0,0.0,0.0,0.0,0.0,0.0,0.0,0.0,0.0,0.0,0.0,0.0,0.0,0.0,0.0,0.0,0.0,0.0,0.0,0.0,0.0,0.0,0.0,0.0,-3.2547,-3.3221,-3.3256,-3.3249,-3.4836,-3.591,-3.5908,-3.5919,-3.5968,-3.6007,-3.6007,0.0,0.0,0.0,0.0,0.0,0.0,0.0,0.0,0.0,0.0,0.0,0.0,0.0,0.0,0.0,0.0,0.0,0.0,0.0,0.0,0.0,0.0,0.0,0.0,0.0,0.0,0.0,0.0,0.0,0.0,0.0,0.0,0.0,0.0,0.0,0.0,0.0,0.0,0.0,0.0,0.0,0.0,0.0,0.0,0.0,0.0,0.0,0.0,0.0,0.0,0.0,0.0,0.0,-3.5525,-3.6638,-3.7317,-3.6761,-3.7303,-3.8441,-3.4275,-3.3033,-3.3789,-3.173,0.0,0.0,0.0,0.0,0.0,0.0,0.0,0.0,0.0,0.0,0.0,0.0,0.0,0.0,0.0,0.0,0.0,0.0,0.0,0.0,0.0,0.0,-3.2984,-3.3087,-3.4217,-3.4644,-3.2375,0.0,0.0,0.0,0.0,0.0,0.0,0.0,0.0,0.0,0.0,0.0,-3.5087,-3.5893,-3.5898,-3.5879,-3.6445,-3.6814,-3.6819,-3.686,-3.6894,-3.6883,-3.6899,-3.6617,0.0,0.0,0.0,0.0,0.0,0.0,0.0,0.0,0.0,0.0,0.0,0.0,0.0,0.0,0.0,0.0,0.0,0.0,0.0,0.0,0.0,0.0,0.0,0.0,0.0,0.0,0.0,0.0,0.0,0.0,0.0,0.0,-2.9167,-2.9983,0.0,0.0,0.0,0.0,0.0,0.0,0.0,0.0,0.0,0.0,0.0,0.0,0.0,-3.3996,-3.4031,-3.651,-3.7397,-3.6791,-3.8496,-3.9369,-3.9482,-3.9391,-3.9488,-3.9678,-3.8996,0.0,-3.5792,-3.6128,0.0,0.0,0.0,0.0,0.0,0.0,0.0,0.0,0.0,0.0,0.0,0.0,0.0,0.0,0.0,0.0,0.0,0.0,0.0,0.0,0.0,0.0,-3.7519,-3.7556,-3.773,-3.7653,-3.6787,-3.524,-3.3762,-3.2932,-3.3393,-3.3154,0.0,0.0,0.0,0.0,0.0,0.0,-3.5389,-3.5906,-3.5877,-3.582,-3.857,-4.0418,-4.0404,-4.0418,-4.0437,-4.043,-4.043,-3.9107,-3.6116,-3.5561,0.0,0.0,0.0,0.0,0.0,0.0,0.0,0.0,0.0,0.0,0.0,0.0,0.0,0.0,0.0,0.0,0.0,0.0,0.0,0.0,0.0,0.0,0.0,0.0,0.0,0.0,0.0,0.0,0.0,-2.9344,-3.071,-3.0169,-3.0935,-3.0954,0.0,0.0,0.0,0.0,0.0,0.0,0.0,0.0,0.0,-3.5074,-3.6304,-3.7175,-3.7629,-3.9242,-4.0094,-4.0189,-4.1442,-4.228,-4.2716,-4.2716,-4.2716,-4.2716,-4.2716,-4.1821,-4.0204,-3.8134,-3.5977,-3.3899,0.0,0.0,0.0,0.0,-3.294,-3.2952,-3.4596,-3.5021,-3.4695,-3.3993,0.0,0.0,0.0,0.0,0.0,0.0,0.0,-3.4087,-3.5002,-3.6798,-3.8652,-3.9621,-3.9866,-3.9954,-4.0332,-3.9233,-3.786,-3.6868,-3.5908,-3.4605,-3.2525,-3.2538,0.0,0.0,0.0,-3.3755,-3.8146,-3.877,-3.8803,-3.8772,-4.0166,-4.1093,-4.1093,-4.1097,-4.1094,-4.1105,-4.1109,-4.0434,-3.8921,-3.8871,-3.8153,0.0,0.0,0.0,0.0,0.0,0.0,0.0,0.0,0.0,0.0,0.0,0.0,0.0,0.0,0.0,0.0,0.0,0.0,0.0,0.0,0.0,0.0,0.0,0.0,0.0,0.0,0.0,0.0,-3.077,-3.2087,-3.0208,-3.2051,-3.2502,0.0,0.0,0.0,0.0,0.0,0.0,-3.5614,-3.6564,-3.7438,-3.8272,-3.9542,-4.0511,-4.1181,-4.2261,-4.3095,-4.3701,-4.4345,-4.4952,-4.5539,-4.5539,-4.5539,-4.552,-4.5312,-4.4895,-4.4061,-4.0431,-3.8553,-3.7832,-3.6462,-3.5687,-3.5348,-3.5949,-3.6236,-3.6497,-3.7718,-3.8212,-3.8224,-3.7795,-3.723,-3.6614,-3.6215,0.0,0.0,0.0,0.0,-3.6082,-3.7164,-3.8447,-3.9799,-4.1107,-4.1624,-4.1917,-4.2179,-4.1565,-4.0641,-3.9501,-3.8113,-3.6581,-3.4909,-3.5512,0.0,-3.2434,-3.2363,-3.4646,-4.0234,-4.1039,-4.1104,-4.1106,-4.1094,-4.1101,-4.1094,-4.1103,-4.1101,-4.11,-4.1109,-4.1094,-4.1101,-4.1099,-4.1103,-4.1097,0.0,0.0,0.0,0.0,0.0,0.0,0.0,0.0,0.0,0.0,0.0,0.0,0.0,0.0,0.0,0.0,0.0,0.0,0.0,0.0,0.0,0.0,0.0,0.0,0.0,0.0,0.0,0.0,0.0,-3.107,-3.4419,0.0,0.0,0.0,0.0,-3.569,-3.5788,-3.6566,-3.831,-3.9239,-4.0113,-4.0969,-4.3341,-4.4611,-4.4649,-4.6259,-4.7112,-4.715,-4.7188,-4.7245,-4.7264,-4.7264,-4.7264,-4.7226,-4.6468,-4.6108,-4.5918,-4.4118,-4.1954,-3.975,-3.9588,-3.8565,-3.7381,-3.9166,-3.9889,-4.0211,-4.2187,-4.2859,-4.2623,-4.1093,-3.8899,-3.7052,-3.7967,-3.6988,0.0,0.0,-3.8753,-3.982,-4.1451,-4.2131,-4.2413,-4.249,-4.3355,-4.3559,-4.1441,-4.0946,-4.0577,-3.9429,-4.0049,-4.0193,-3.8447,0.0,-3.6989,-3.5725,-3.285,-3.3327,-4.0212,-4.1103,-4.1098,-4.1101,-4.1105,-4.1091,-4.1092,-4.1108,-4.11,-4.1094,-4.11,-4.1096,-4.1096,-4.1109,-4.1108,-4.1105,-4.0928,0.0,0.0,0.0,0.0,0.0,0.0,0.0,0.0,0.0,0.0,0.0,0.0,0.0,0.0,0.0,0.0,0.0,0.0,0.0,0.0,0.0,0.0,0.0,0.0,0.0,0.0,0.0,0.0,-3.4312,-3.6955,0.0,-3.6147,-3.6696,-3.757,-3.8439,-3.9031,-4.0094,-4.1783,-4.2673,-4.3507,-4.4383,-4.5786,-4.6506,-4.6506,-4.7093,-4.7397,-4.7397,-4.7397,-4.7397,-4.7397,-4.7397,-4.7397,-4.7378,-4.7093,-4.6961,-4.6923,-4.6335,-4.4611,-4.2295,-4.1703,-4.1116,-4.0666,-4.1532,-4.1912,-4.2112,-4.298,-4.3318,-4.3288,-4.2721,-4.1916,-4.1218,-4.1558,-4.1199,-4.081,-4.1451,-4.1897,-4.2267,-4.2878,-4.351,-4.4016,-4.4015,-4.4715,-4.5172,-4.4356,-4.3335,-4.2762,-4.3452,-4.1538,-3.9887,-3.9982,-3.9838,-3.8824,-3.6253,-3.6657,-3.816,-4.0645,-4.1046,-4.1065,-4.0988,-4.1054,-4.1093,-4.111,-4.1101,-4.11,-4.1094,-4.1109,-4.109,-4.1097,-4.1094,-4.1097,-4.1108,-4.1101,-4.1104,0.0,0.0,0.0,0.0,0.0,0.0,0.0,0.0,0.0,0.0,0.0,0.0,0.0,0.0,0.0,0.0,0.0,0.0,0.0,0.0,0.0,0.0,0.0,0.0,0.0,0.0,-3.809,-3.6979,-3.9876,-4.118,-3.9214,-4.0053,-4.1079,-4.1949,-4.256,-4.3493,-4.4876,-4.5445,-4.6013,-4.6582,-4.7397,-4.7832,-4.7832,-4.8098,-4.823,-4.8249,-4.8534,-4.8685,-4.8685,-4.8969,-4.8932,-4.8666,-4.8363,-4.8079,-4.7813,-4.7593,-4.654,-4.4981,-4.4125,-4.3589,-4.3368,-4.3694,-4.3869,-4.3968,-4.415,-4.4264,-4.4307,-4.4035,-4.3938,-4.3879,-4.3588,-4.351,-4.3569,-4.386,-4.3947,-4.4006,-4.4278,-4.4764,-4.5201,-4.521,-4.5608,-4.5997,-4.6007,-4.5122,-4.4676,-4.5774,-4.3102,-4.0704,-4.0878,-4.0904,-3.9953,-3.72,-4.014,-4.2279,-4.111,-4.105,-4.1071,-4.0976,-4.1053,-4.1108,-4.1101,-4.1091,-4.1101,-4.1097,-4.1108,-4.1111,-4.1104,-4.1108,-4.1108,-4.1094,-4.1096,-4.053,-3.9334,0.0,0.0,0.0,0.0,0.0,0.0,0.0,0.0,0.0,0.0,0.0,0.0,0.0,0.0,0.0,0.0,0.0,0.0,0.0,0.0,0.0,0.0,0.0,-3.3913,-3.7961,-4.0579,-3.8977,-4.3194,-4.5293,-4.2839,-4.4037,-4.5331,-4.6165,-4.6259,-4.662,-4.7397,-4.7491,-4.751,-4.751,-4.8344,-4.8818,-4.8818,-4.9576,-4.9974,-4.9974,-5.0827,-5.1244,-5.1263,-5.204,-5.1983,-5.1187,-5.0361,-4.9546,-4.8776,-4.8151,-4.784,-4.7707,-4.6885,-4.6003,-4.5301,-4.5696,-4.5833,-4.5808,-4.5944,-4.5997,-4.5861,-4.5084,-4.4831,-4.4676,-4.384,-4.3588,-4.3743,-4.4598,-4.4831,-4.5025,-4.5802,-4.5997,-4.5997,-4.5997,-4.5997,-4.5997,-4.5997,-4.5997,-4.5997,-4.5997,-4.4695,-4.3044,-4.1344,-4.0979,-4.039,-3.8894,-4.2967,0.0,-4.1697,-4.1265,-4.1269,-4.1257,-4.1261,-4.1267,-4.1264,-4.1162,-4.1047,-4.0932,-4.1047,-4.1103,-4.1094,-4.1101,-4.1045,-4.0933,-4.1145,-3.9591,-3.6223,0.0,0.0,0.0,0.0,0.0,0.0,0.0,0.0,0.0,0.0,0.0,0.0,0.0,0.0,0.0,0.0,0.0,0.0,0.0,0.0,0.0,0.0,-3.8659,-3.7357,-4.048,-4.3421,-4.4789,-4.6171,-4.6985,-4.698,-4.6809,-4.6809,-4.7036,-4.7643,-4.8098,-4.8325,-4.9481,-5.0163,-5.0163,-5.0959,-5.1376,-5.1376,-5.1604,-5.1717,-5.1717,-5.1964,-5.2077,-5.2077,-5.2486,-5.2571,-5.2348,-5.2254,-5.2094,-5.1883,-5.1698,-5.0892,-4.9663,-4.8164,-4.7069,-4.6396,-4.6596,-4.6352,-4.5953,-4.5986,-4.5997,-4.5958,-4.5744,-4.5666,-4.5627,-4.5394,-4.5317,-4.5356,-4.5589,-4.5666,-4.5725,-4.5938,-4.5997,-4.5997,-4.5997,-4.5997,-4.5997,-4.5997,-4.5997,-4.5997,-4.5997,-4.5637,-4.5157,-4.4676,-4.2539,-4.1198,-4.2061,-4.4527,-4.5914,-4.4928,-4.4792,-4.4815,-4.4876,-4.4862,-4.4861,-4.4867,-4.2546,-4.0018,-3.7492,-3.9711,-4.1095,-4.1103,-4.1103,-3.9922,-3.7456,-4.2188,-4.4189,0.0,0.0,0.0,0.0,0.0,0.0,0.0,0.0,0.0,0.0,0.0,0.0,0.0,0.0,0.0,0.0,0.0,0.0,0.0,0.0,0.0,0.0,-4.048,-4.2635,-4.3202,-4.4707,-4.6531,-4.8742,-4.9265,-4.9635,-5.0201,-4.9784,-4.9481,-4.9481,-4.9955,-5.0239,-5.0239,-5.1168,-5.1717,-5.1717,-5.2172,-5.24,-5.24,-5.24,-5.24,-5.2419,-5.2862,-5.3069,-5.3088,-5.3694,-5.3778,-5.3433,-5.3546,-5.3204,-5.2569,-5.2684,-5.1929,-5.0638,0.0,0.0,0.0,0.0,-4.7416,-4.7084,-4.7084,-4.6851,-4.6599,-4.6968,-4.6832,-4.6618,-4.6987,-4.7084,-4.7084,-4.7084,-4.7084,-4.7084,-4.7084,-4.7084,-4.7084,-4.7084,-4.7084,-4.7028,-4.6795,-4.6746,-4.6608,-4.6096,-4.5994,0.0,-4.6118,-4.4403,-4.3417,-4.4513,-4.5603,-4.5936,-4.4917,-4.5633,-4.6261,-4.629,-4.4989,-4.4108,-4.4032,-4.3495,0.0,0.0,0.0,-4.3158,-4.3158,-4.315,0.0,0.0,0.0,-4.6079,-4.6079,-4.6164,0.0,0.0,-4.0276,-4.0248,0.0,0.0,0.0,0.0,0.0,0.0,0.0,0.0,0.0,0.0,0.0,0.0,0.0,0.0,0.0,0.0,-4.4815,-4.7413,-4.9882,-4.97,-4.9803,-5.1272,-5.204,-5.2456,-5.2551,-5.2475,-5.24,-5.24,-5.2494,-5.2551,-5.2589,0.0,0.0,0.0,0.0,-5.2684,-5.2741,-5.2741,-5.2741,-5.2741,-5.3703,-5.4172,-5.4216,-5.5196,-5.5206,-5.4475,-5.4515,-5.3668,-5.2338,-5.2546,-5.2162,-5.1324,-5.0937,-4.9833,-4.8488,-4.8565,-4.8599,-4.8599,-4.8599,0.0,0.0,-4.8347,-4.8075,-4.7589,-4.8366,-4.8599,-4.8599,-4.861,-4.861,-4.861,-4.861,-4.861,-4.861,-4.8612,-4.8602,-4.8477,-4.7983,-4.7951,-4.7677,-4.6534,-4.6473,-4.6539,-4.6305,-4.6132,-4.6074,-4.6187,-4.6243,-4.5531,-4.3459,-4.5004,-4.6299,-4.6294,-4.3528,0.0,-4.1515,-4.4278,-4.6023,-4.603,-4.6015,-4.6027,-4.6027,-4.6016,-4.602,-4.6011,-4.6138,-4.6189,-4.6193,-4.6193,-4.6201,-4.6196,-4.6195,-4.6197,0.0,0.0,0.0,0.0,0.0,0.0,0.0,0.0,0.0,0.0,0.0,0.0,0.0,0.0,0.0,-4.3958,-4.7042,-5.0041,-5.2579,-5.2836,-5.2807,-5.3051,-5.2664,-5.2684,-5.3385,-5.2817,-5.24,-5.24,-5.3063,-5.3518,-5.3684,-5.4154,-5.4599,-5.4952,-5.4607,-5.4506,-5.4733,-5.4733,-5.4733,-5.4733,0.0,0.0,-5.5292,-5.5673,-5.5747,-5.5592,-5.582,-5.5724,-5.5428,-5.5494,-5.5003,-5.3922,-5.1166,-4.9885,-4.9509,-4.8841,-4.8599,-4.8599,-4.8599,-4.8483,-4.8386,-4.8541,-4.8483,-4.8386,-4.8541,-4.8599,0.0,-4.8682,-4.8672,-4.8672,-4.8672,-4.8672,-4.8671,-4.8607,-4.8638,-4.8633,-4.8489,-4.8873,-4.9036,-4.8316,-4.9355,-4.9432,-4.6553,-4.615,-4.623,-4.62,-4.6209,-4.6054,-4.5601,-4.5981,-4.6309,-4.63,-4.5646,-4.5194,-4.5187,-4.5785,-4.6158,-4.6166,-4.6154,-4.6162,-4.6162,-4.6166,-4.6166,-4.6169,-4.6181,-4.6201,-4.6196,-4.6196,-4.6196,-4.6196,-4.6209,-4.6228,0.0,0.0,0.0,0.0,0.0,0.0,0.0,0.0,0.0,0.0,0.0,-3.8258,0.0,0.0,-4.4971,-4.8003,-4.9901,-5.1733,-5.3811,-5.4175,-5.4254,-5.4216,-5.3886,-5.3821,-5.4257,-5.3916,-5.365,-5.365,-5.4173,-5.4547,-5.4639,-5.5467,-5.6012,-5.6242,-5.6433,-5.6422,-5.6103,-5.6103,-5.5892,-5.5446,-5.5651,-5.575,-5.575,-5.5985,-5.6102,-5.6102,-5.6246,-5.6058,-5.5612,-5.5184,-5.4769,-5.4237,-5.2477,-5.1532,-5.1105,-5.0658,-5.025,-4.9901,-4.9901,-4.9609,-4.9318,-4.9765,-4.9612,-4.9323,-4.977,-4.9926,-4.9955,-5.0002,-5.0002,-4.9999,-4.9958,-4.9952,-4.9945,-4.9918,-4.9938,-4.9944,-4.9959,-5.0214,-5.0371,-5.0105,-5.0773,-5.0816,-4.8967,-4.8718,-4.8445,-4.7532,-4.6655,-4.6323,-4.6963,-4.6579,-4.6265,-4.6299,-4.6249,-4.6201,-4.6195,-4.6201,-4.6203,-4.6193,-4.6205,-4.6205,-4.6205,-4.6205,-4.6193,-4.6201,-4.6201,-4.6208,-4.6196,-4.6201,-4.6205,-4.6205,-4.6208,-4.6232,0.0,0.0,0.0,0.0,0.0,0.0,0.0,0.0,-3.6955,-3.8833,-4.0349,-4.2146,-4.5023,-4.6353,-4.8192,-5.1764,-5.2548,-5.3199,-5.4503,-5.4833,-5.496,-5.5,-5.496,-5.4931,-5.4971,-5.5122,-5.5198,-5.5198,-5.5637,-5.5892,-5.5921,-5.6694,-5.7191,-5.7274,-5.7865,-5.7882,-5.7212,-5.7039,-5.6615,-5.5901,-5.5958,-5.5985,-5.5985,-5.6199,-5.6291,-5.6291,-5.6291,-5.5903,-5.5204,-5.4485,-5.4225,-5.4288,-5.4225,-5.3669,-5.2873,-5.2717,-5.2232,-5.1688,-5.1688,-5.1222,-5.0728,-5.1272,-5.1102,-5.0734,-5.1103,-5.1393,-5.1515,-5.1367,-5.142,-5.1544,-5.1488,-5.1464,-5.1494,-5.166,-5.1581,-5.1503,-5.173,-5.1655,-5.1519,-5.1388,-5.1381,-5.1386,-5.13,-5.1256,-5.0733,-4.9328,-4.7922,-4.715,-4.7482,-4.6736,-4.6196,-4.6268,-4.6229,-4.6209,-4.6196,-4.6196,-4.6196,-4.6196,-4.6196,-4.6196,-4.6196,-4.6196,-4.6196,-4.6196,-4.6196,-4.6196,-4.6208,-4.6188,-4.6171,-4.6123,-4.6114,-4.6144,-2.9141,-3.0313,-3.2732,-3.4787,-3.6071,-3.8172,0.0,0.0,-4.3258,-4.5606,-4.6759,-4.7523,-4.8156,-5.0176,-5.1977,-5.269,-5.4101,-5.5178,-5.5369,-5.5408,-5.5432,-5.5432,-5.514,-5.5,-5.5236,-5.5912,-5.6313,-5.6313,-5.7292,-5.7963,-5.8123,-5.8102,-5.8221,-5.8586,-5.8336,-5.8237,-5.8315,-5.7561,-5.7135,-5.7019,-5.6505,-5.6265,-5.6246,-5.6291,-5.6291,-5.6291,-5.6291,-5.6233,-5.6155,-5.6039,-5.6,-5.6032,-5.6,-5.5476,-5.4621,-5.3844,-5.3494,-5.3417,-5.3417,-5.3358,-5.3176,-5.2571,-5.2806,-5.3108,-5.1713,-5.1826,-5.2302,-5.1596,-5.1893,-5.2451,-5.2453,-5.2402,-5.255,-5.3323,-5.2921,-5.2569,-5.3357,-5.296,-5.2227,-5.1468,-5.1367,-5.1374,-5.1304,-5.1287,-5.12,-5.0958,-5.0734,-4.9537,-4.6601,-4.6095,-4.6075,-4.6197,-4.6197,-4.6193,-4.6196,-4.6196,-4.6196,-4.6196,-4.6196,-4.6196,-4.6196,-4.6196,-4.6196,-4.6196,-4.6196,-4.6201,-4.6199,-4.6199,-4.6075,-4.5832,-4.5841,-4.5959,-3.3696,-3.4812,-3.6476,0.0,-4.1019,-4.3617,-4.5523,-4.6733,-4.7995,-5.0006,-5.1078,-5.1859,-5.2504,-5.3404,-5.4104,0.0,-5.4847,-5.5331,-5.538,-5.4973,-5.4545,-5.4203,-5.39,-5.4346,-5.5968,-5.6458,-5.6884,-5.7383,-5.8021,-5.8414,-5.8505,-5.9007,-5.9381,-5.9555,-5.9902,-5.9852,-5.9448,-5.908,-5.8634,-5.8114,-5.7876,-5.7515,-5.7049,-5.7049,-5.6777,-5.6291,-5.6291,-5.6304,-5.6297,-5.6304,-5.6304,-5.6309,-5.6302,-5.608,-5.5641,-5.4769,-5.4135,-5.372,-5.3736,-5.3766,-5.3719,-5.34,-5.3552,-5.3732,-5.3026,-5.3085,-5.3342,-5.3002,-5.3156,-5.3417,-5.3368,-5.3331,-5.3406,-5.3713,-5.3525,-5.3357,-5.372,-5.3572,-5.3148,-5.2433,-5.2197,-5.1932,-5.1382,-5.1304,-5.1295,-5.1249,-5.123,-5.0665,-4.9216,-4.9041,-4.8301,-4.6402,-4.6188,-4.6205,-4.6196,-4.6196,-4.6196,-4.6196,-4.6196,-4.6196,-4.6196,-4.6196,-4.6169,-4.6088,-4.6088,-4.6122,-4.6192,-4.6046,-4.5917,-4.5786,-4.5789,-4.5866,-3.6292,0.0,0.0,-4.2022,-4.5751,-4.8815,-4.865,-5.0207,-5.2093,-5.3479,-5.4145,-5.4603,-5.5055,-5.5044,-5.4997,-5.5086,-5.5086,-5.5186,-5.5462,-5.4789,-5.4028,-5.3357,-5.2955,-5.3643,-5.5953,-5.6417,-5.6994,-5.8113,-5.8644,-5.9039,-5.929,-6.0041,-6.0468,-6.0468,-6.107,-6.1109,-6.0468,-6.0215,-5.9788,-5.9166,-5.8914,-5.837,-5.7593,-5.734,-5.6894,-5.6291,-5.6291,-5.6297,-5.6294,-5.629,-5.6302,-5.6328,-5.6329,-5.6329,-5.6251,-5.5625,-5.4991,-5.4447,-5.449,-5.4519,-5.449,-5.4309,-5.4417,-5.4534,-5.4078,-5.4123,-5.4281,-5.4059,-5.4141,-5.4288,-5.424,-5.4222,-5.427,-5.447,-5.4334,-5.4236,-5.4489,-5.439,-5.4126,-5.3689,-5.3268,-5.2703,-5.1916,-5.176,-5.1838,-5.1985,-5.1576,-5.1237,-5.1228,-5.1217,-5.0274,-4.7843,-4.6753,-4.6197,-4.6193,-4.6201,-4.6208,-4.6208,-4.6196,-4.6196,-4.6196,-4.6189,-4.6127,-4.6035,-4.5968,-4.5988,-4.6091,-4.5891,-4.5796,-4.5803,-4.5789,-4.58,-3.4843,0.0,-4.224,-4.5668,-4.97,-5.3253,-5.4863,-5.5327,-5.5634,-5.6338,-5.5878,-5.5163,-5.4547,-5.4436,-5.4516,-5.4779,-5.4815,-5.5086,-5.5879,-5.5294,-5.4459,-5.3594,-5.2814,-5.2984,0.0,-5.5511,-5.6617,-5.8259,-5.9433,-6.0429,-6.1269,-6.1342,-6.1361,-6.1361,-6.14,-6.14,-6.1361,-6.0526,-6.0079,-6.004,-5.9205,-5.837,-5.7573,-5.6719,-5.633,-5.6291,-5.6291,-5.629,-5.6308,-5.6308,-5.6339,-5.6405,-5.6405,-5.6405,-5.6386,-5.6366,-5.6347,-5.6327,-5.6327,-5.6327,-5.6199,-5.5418,-5.5724,-5.6121,-5.4489,-5.4538,-5.4998,-5.4217,-5.4518,-5.5081,-5.5055,-5.5061,-5.5268,-5.6115,-5.5687,-5.5307,-5.623,-5.5762,-5.5158,-5.5139,-5.4437,-5.3677,-5.3046,-5.2948,-5.3143,-5.3736,-5.2383,-5.1295,-5.1298,-5.1239,-5.115,-5.1064,-4.8145,-4.6191,-4.6192,-4.6199,-4.6197,-4.6197,-4.6201,-4.6196,-4.6196,-4.6138,-4.6093,-4.6093,-4.5911,-4.582,-4.5808,-4.5789,-4.5803,-4.5814,-4.58,-4.58,-3.8454,-4.2543,-4.6647,-4.9923,-5.3593,-5.6675,-5.77,-5.8104,-5.8156,-5.7848,-5.5422,-5.3103,-5.2288,-5.1206,-5.0819,-5.2012,-5.3188,-5.423,-5.5078,-5.4981,-5.3859,-5.1281,-5.1711,0.0,0.0,0.0,0.0,-5.9323,-5.9881,-6.0487,-6.1361,-6.14,-6.14,-6.14,-6.14,-6.14,-6.14,-6.1109,-6.0953,-6.0953,-5.9496,-5.837,-5.7567,-5.671,-5.6294,-5.6306,-5.6338,-5.6398,-5.6425,-5.6387,-5.6405,-5.6469,-5.6464,-5.6464,-5.6471,-5.6511,-5.6523,-5.6536,-5.6471,-5.6464,-5.6432,-5.6191,-5.6338,-5.6441,-5.5846,-5.5854,-5.6015,-5.5731,-5.584,-5.6023,-5.6028,-5.6035,-5.6095,-5.6396,-5.6241,-5.6124,-5.6425,-5.6269,-5.6054,-5.6054,-5.5353,-5.4885,-5.5256,-5.4652,-5.4476,-5.5478,-5.3171,-5.1304,-5.1297,-5.1248,-5.1209,-5.1267,-5.0216,-4.9515,-4.9531,-4.9523,-4.8569,-4.6337,-4.6875,-4.6933,-4.6158,-4.6666,-4.6649,-4.5975,-4.6477,-4.6409,-4.5802,-4.5802,-4.5802,-4.5802,-4.58,-4.58,-4.2654,-4.6873,-5.0777,-5.4108,-5.7095,-5.9256,-5.9406,-5.9106,-5.8491,-5.735,-5.4056,-5.1005,-4.9824,-4.8706,-4.8111,-4.8531,-5.0345,-5.2082,-5.324,-5.3433,-5.2853,-5.1261,-5.1749,-5.1943,0.0,0.0,0.0,-5.8463,-5.9279,-6.0026,-6.09,-6.123,-6.14,-6.14,-6.14,-6.14,-6.14,-6.14,-6.14,-6.1381,-5.997,-5.8875,-5.8039,-5.7195,-5.6631,-5.6339,-5.6377,-5.6441,-5.6503,-5.6457,-5.6484,-5.6543,-5.6536,-5.6542,-5.6542,-5.6582,-5.6606,-5.6582,-5.6548,-5.6542,-5.6548,-5.6559,-5.6566,-5.6568,-5.6504,-5.6503,-5.6497,-5.6504,-5.6497,-5.6498,-5.65,-5.6503,-5.6503,-5.6503,-5.6503,-5.6503,-5.6503,-5.6503,-5.6503,-5.6503,-5.6054,-5.584,-5.6405,-5.586,-5.5489,-5.5965,-5.4126,-5.2356,-5.1423,-5.1249,-5.1249,-5.1297,-5.1258,-5.1248,-5.1245,-5.1245,-5.031,-4.8109,-4.7899,-4.7581,-4.7047,-4.6941,-4.6888,-4.6836,-4.6739,-4.6389,-4.5805,-4.5805,-4.58,-4.5794,-4.5844,-4.6515,-4.7121,-5.1035,-5.4489,-5.7921,-5.999,-6.0978,-6.0048,-5.8538,-5.6814,-5.4926,-5.1769,-4.8817,0.0,0.0,-4.6345,-4.4766,-4.6781,-4.9156,-5.0913,-5.125,-5.1881,0.0,0.0,0.0,0.0,0.0,0.0,-5.6056,0.0,-5.9207,-6.0134,-6.0958,-6.14,-6.14,-6.14,-6.14,-6.14,-6.14,-6.1381,-6.1322,-6.0565,-5.9752,-5.8877,-5.8062,-5.7251,-5.6472,-5.6433,-5.6457,-5.6504,-5.6543,-5.6601,-5.6665,-5.6704,-5.6704,-5.6665,-5.6665,-5.6645,-5.6606,-5.6606,-5.6606,-5.6595,-5.6521,-5.6503,-5.6503,-5.6493,-5.6489,-5.6503,-5.6503,-5.653,-5.6541,-5.6503,-5.6561,-5.6619,-5.6561,-5.6561,-5.6561,-5.6561,-5.6522,-5.6503,-5.6503,-5.6503,-5.6503,-5.6503,-5.6503,-5.621,-5.5392,-5.5256,-5.4342,-5.1803,-5.1463,-5.1463,-5.1551,-5.1395,-5.1308,-5.1308,-5.1297,-5.1276,-5.1217,-4.9235,-4.8263,-4.873,-4.7047,-4.6855,-4.8412,-4.6883,-4.6027,-4.5931,-4.5838,-4.5815,-4.5815,-4.6104,-4.7913,-5.0209,-5.4124,-5.771,-5.9221,-6.0435,-6.0893,-5.9349,-5.7666,-5.5401,-5.1741,-4.7771,-4.4021,0.0,0.0,0.0,-4.4337,-4.7768,0.0,-5.4359,-5.5362,0.0,-5.4572,0.0,-5.5672,-5.4587,-5.5672,0.0,0.0,-5.8129,-5.9454,-6.0997,-6.1269,-6.14,-6.14,-6.14,-6.14,-6.14,-6.14,-6.1097,-6.0507,-6.0297,-5.9766,-5.8948,-5.8133,-5.7641,-5.7407,-5.6809,-5.6553,-5.6616,-5.7221,-5.748,-5.7562,-5.8207,-5.807,-5.7484,-5.7484,-5.7113,-5.6606,-5.6606,-5.6606,-5.6595,-5.6521,-5.6504,-5.6484,-5.6445,-5.6439,-5.6446,-5.6496,-5.6929,-5.7262,-5.6658,-5.7418,-5.8198,-5.7555,-5.7379,-5.7379,-5.7379,-5.6912,-5.6503,-5.6503,-5.6503,-5.6503,-5.6503,-5.6503,-5.6425,-5.6191,-5.6134,-5.555,-5.4031,-5.3446,-5.3652,-5.4889,-5.2786,-5.1306,-5.1307,-5.1306,-5.1287,-5.1288,-5.0695,-5.0012,-4.9264,-4.8387,-4.7887,-4.7748,-4.8972,-4.8991,-4.7719,-4.6433,-4.5795,-4.5863,-4.845,-5.0104,-5.4239,-5.7271,-5.9858,-6.0361,-6.0571,-5.9946,-5.7118,-5.5107,-5.2545,-4.7895,-4.4124,0.0,-3.8178,0.0,0.0,0.0,0.0,0.0,-5.3426,-5.4936,-5.5924,0.0,-5.7376,0.0,-5.6568,-5.7359,-5.8092,0.0,-5.9006,-5.9769,-6.0769,-6.1158,-6.1386,-6.14,-6.1394,-6.1408,-6.1441,-6.1441,-6.1226,-6.0767,-6.0809,-6.0389,-5.9557,-5.9125,-5.8733,-5.8343,-5.789,-5.7699,-5.7738,-5.8187,-5.8148,-5.7855,-5.8343,-5.8011,-5.727,-5.727,-5.6996,-5.6606,-5.6606,-5.6606,-5.6575,-5.6484,-5.6454,-5.6442,-5.6406,-5.643,-5.6535,-5.692,-5.7107,-5.7243,-5.7516,-5.7749,-5.7866,-5.773,-5.7418,-5.7165,-5.7165,-5.7107,-5.7145,-5.7516,-5.7594,-5.7594,-5.7594,-5.7282,-5.7029,-5.7029,-5.6689,-5.6221,-5.5567,-5.516,-5.5307,-5.6281,-5.4654,-5.2901,-5.1432,-5.1297,-5.1307,-5.1288,-5.1256,-5.0914,-5.017,-4.9799,-4.9408,-4.9006,-5.0244,-5.0438,-4.9485,-4.8512,-4.8048,-4.8082,-4.9997,-5.0898,-5.8465,-6.0189,-6.1272,-6.1212,-6.0377,-5.846,-5.4211,-5.1746,-4.8877,-4.3768,0.0,-3.8558,-3.6813,-3.8636,-4.0052,-3.9054,0.0,-4.8244,-5.1242,-5.3077,-5.5285,-5.848,-5.8964,-5.9005,-5.895,-5.895,-5.9258,-6.0029,-6.0137,-6.0189,-6.0274,-6.0934,-6.1337,-6.14,-6.1402,-6.144,-6.1495,-6.1495,-6.1498,-6.151,-6.1573,-6.1205,-6.0471,-6.0422,-5.9983,-5.928,-5.9143,-5.9104,-5.9104,-5.9222,-5.8831,-5.8168,-5.8265,-5.7758,-5.6957,-5.7055,-5.6899,-5.6626,-5.6719,-5.6688,-5.6568,-5.6456,-5.648,-5.6576,-5.6563,-5.669,-5.699,-5.7672,-5.7438,-5.7301,-5.8646,-5.8081,-5.7321,-5.7905,-5.7516,-5.699,-5.699,-5.7457,-5.81,-5.8841,-5.8996,-5.8996,-5.8996,-5.8276,-5.7691,-5.7691,-5.7009,-5.6503,-5.6503,-5.6446,-5.6446,-5.6495,-5.6398,-5.4966,-5.1596,-5.1288,-5.1288,-5.1259,-5.1256,-5.1211,-5.1101,-5.0971,-5.0898,-5.0889,-5.0937,-5.0937,-5.0889,-5.0898,-5.0887,-5.0902,-5.0902,-5.0898,-6.132,-6.2041,-6.2101,-6.1384,-5.9487,-5.6698,-5.2369,-4.8991,0.0,0.0,-3.7695,-3.5921,-3.4184,-3.595,-3.8732,-4.1955,0.0,0.0,0.0,0.0,-5.7473,0.0,0.0,0.0,0.0,0.0,0.0,0.0,0.0,-6.1031,-6.11,-6.1217,-6.1322,-6.1402,-6.1445,-6.1489,-6.15,-6.15,-6.1519,-6.158,-6.1595,-6.155,-6.1437,-6.0725,-6.0315,-6.0139,-5.9417,-5.9104,-5.9163,-5.9885,-6.008,-6.0022,-6.0744,-6.0061,-5.8753,-5.9475,-5.8402,-5.6704,-5.7353,-5.712,-5.6518,-5.6484,-5.6929,-5.7465,-5.7473,-5.7989,-5.8598,-5.8743,-5.9191,-5.9542,-5.9113,-5.9854,-6.0575,-5.999,-5.9737,-5.9639,-5.9639,-5.9173,-5.8812,-5.8977,-5.8997,-5.9007,-5.8996,-5.8276,-5.7691,-5.7691,-5.7009,-5.6503,-5.6503,-5.6503,-5.6485,-5.6495,-5.6494,-5.5063,-5.158,-5.1307,-5.1211,-5.0981,-5.0957,-5.0998,-5.1101,-5.097,-5.0898,-5.0893,-5.1058,-5.1078,-5.0893,-5.0889,-5.0889,-5.0898,-5.0898,-5.0898,-6.2172,-6.2486,-6.2312,-6.1458,-5.8961,-5.5362,-5.0206,0.0,0.0,0.0,-3.5338,-3.4104,-3.2812,0.0,0.0,0.0,0.0,0.0,0.0,0.0,0.0,0.0,0.0,0.0,0.0,0.0,0.0,0.0,0.0,-6.1239,-6.1361,-6.1386,-6.1421,-6.1445,-6.1479,-6.151,-6.1547,-6.1537,-6.158,-6.1648,-6.1654,-6.1666,-6.1701,-6.1271,-6.1076,-6.1056,-6.0627,-6.0451,-6.049,-6.09,-6.0803,-6.0432,-6.0861,-6.0237,-5.9143,-5.9573,-5.8948,-5.7953,-5.8339,-5.8201,-5.7849,-5.7812,-5.7754,-5.7707,-5.7705,-5.8304,-5.9085,-5.9542,-5.9639,-5.9737,-6.0224,-6.0302,-6.0263,-6.0282,-5.9951,-5.9756,-6.0204,-5.9961,-5.9815,-6.0263,-6.0351,-6.0341,-6.036,-5.925,-5.8373,-5.8373,-5.7301,-5.6483,-5.6446,-5.6446,-5.6437,-5.6398,-5.6407,-5.5706,-5.4008,-5.3013,-5.2076,-5.1127,-5.1056,-5.1087,-5.1159,-5.1087,-5.1048,-5.1069,-5.1159,-5.1087,-5.0895,-5.1009,-5.1067,-5.1062,-5.1062,-5.1075,-6.2657,-6.2814,-6.2312,-6.1511,-5.8396,-5.4045,-4.8309,-4.4087,0.0,0.0,-3.3429,-3.2594,-3.2089,0.0,0.0,0.0,0.0,0.0,0.0,0.0,0.0,0.0,0.0,0.0,0.0,0.0,0.0,0.0,0.0,0.0,-6.14,-6.1467,-6.1495,-6.1489,-6.15,-6.1549,-6.1612,-6.1607,-6.1621,-6.1699,-6.1691,-6.1696,-6.1701,-6.1701,-6.1701,-6.1701,-6.1701,-6.1701,-6.1701,-6.1701,-6.131,-6.0686,-6.0686,-6.0159,-5.9397,-5.9592,-5.9402,-5.9101,-5.9311,-5.9258,-5.9061,-5.9016,-5.866,-5.8256,-5.8256,-5.886,-5.9698,-6.038,-6.0088,-5.9873,-6.1237,-6.0575,-5.9737,-6.0419,-6.0068,-5.9737,-6.0438,-6.0575,-6.076,-6.1451,-6.1588,-6.1578,-6.1607,-6.0146,-5.8996,-5.8996,-5.7555,-5.6455,-5.6417,-5.6407,-5.6368,-5.6317,-5.6297,-5.6267,-5.6214,-5.4937,-5.3596,-5.2311,-5.1567,-5.1358,-5.1701,-5.1383,-5.1203,-5.1192,-5.1192,-5.1127,-5.0972,-5.1114,-5.1197,-5.1205,-5.1197,-5.1205,-6.386,-6.3754,-6.2312,-6.1491,-5.7489,-5.2392,-4.721,0.0,0.0,-3.4048,-3.2054,-3.1156,-3.1875,-3.2202,-3.3641,0.0,0.0,-4.1447,0.0,0.0,0.0,0.0,0.0,0.0,0.0,0.0,0.0,0.0,0.0,0.0,-6.1414,-6.1467,-6.1495,-6.1489,-6.1558,-6.1592,-6.1595,-6.1595,-6.1621,-6.1699,-6.1699,-6.1705,-6.1701,-6.1701,-6.1701,-6.1701,-6.1701,-6.1701,-6.1701,-6.1701,-6.1642,-6.1583,-6.1583,-6.1056,-6.0373,-6.1174,-6.0415,-5.9121,-5.9975,-5.9721,-5.9014,-5.9002,-5.948,-6.0054,-6.0065,-6.0671,-6.1373,-6.1451,-6.1412,-6.1393,-6.1568,-6.1471,-6.1373,-6.1451,-6.1412,-6.1373,-6.1451,-6.1432,-6.1422,-6.1568,-6.1549,-6.1519,-6.1588,-6.0146,-5.8996,-5.8996,-5.7517,-5.6417,-5.6388,-5.6407,-5.6375,-5.6304,-5.629,-5.6271,-5.6207,-5.6057,-5.5849,-5.5569,-5.2826,-5.1862,-5.3325,-5.1973,-5.1192,-5.1192,-5.1192,-5.1186,-5.1171,-5.1186,-5.1186,-5.119,-5.1205,-5.1199,-6.1003,-6.225,-6.2177,-6.0799,-5.6159,-5.0883,-4.6822,0.0,0.0,-3.3735,-3.1887,-3.0962,-3.1836,-3.2411,-3.3464,0.0,0.0,0.0,0.0,0.0,0.0,0.0,0.0,0.0,0.0,0.0,0.0,0.0,0.0,0.0,-6.1526,-6.1548,-6.1558,-6.1559,-6.1586,-6.1603,-6.16,-6.1607,-6.1621,-6.1699,-6.1699,-6.1705,-6.1701,-6.1701,-6.1701,-6.1701,-6.1701,-6.1701,-6.1701,-6.1701,-6.1701,-6.1701,-6.1701,-6.1486,-6.1217,-6.1531,-6.1207,-6.0664,-6.1006,-6.0881,-6.0555,-6.0554,-6.0793,-6.0988,-6.0469,-6.0913,-6.1607,-6.1607,-6.1607,-6.1607,-6.1607,-6.1607,-6.1607,-6.1607,-6.1607,-6.1607,-6.1607,-6.1578,-6.1578,-6.1588,-6.1578,-6.1578,-6.1607,-6.0156,-5.8997,-5.8997,-5.7517,-5.6377,-5.6347,-5.6325,-5.6321,-5.6246,-5.6239,-5.6213,-5.616,-5.611,-5.6056,-5.6009,-5.4797,-5.3445,-5.2036,-5.1349,-5.1015,-5.1017,-5.1139,-5.1197,-5.1199,-5.1192,-5.1147,-5.1017,-5.1134,-5.1127,-5.7521,-5.9852,-6.0978,-5.9542,-5.4807,-4.9606,0.0,0.0,0.0,-3.3297,-3.1933,-3.1273,-3.1895,-3.271,-3.3557,0.0,0.0,-3.8123,-4.0837,0.0,0.0,0.0,0.0,0.0,0.0,0.0,0.0,0.0,0.0,0.0,-6.1607,-6.1607,-6.1607,-6.1607,-6.1606,-6.1595,-6.1603,-6.16,-6.1615,-6.1673,-6.1673,-6.1679,-6.1696,-6.1696,-6.1696,-6.1701,-6.1701,-6.1701,-6.1701,-6.1701,-6.1701,-6.1701,-6.1701,-6.169,-6.1662,-6.1638,-6.162,-6.1633,-6.1607,-6.1595,-6.1561,-6.1586,-6.1607,-6.149,-6.0867,-6.1101,-6.1607,-6.1607,-6.1607,-6.1607,-6.1607,-6.1607,-6.1607,-6.1607,-6.1607,-6.1607,-6.1607,-6.1607,-6.1607,-6.1607,-6.1578,-6.1568,-6.1578,-6.0126,-5.8976,-5.8967,-5.7486,-5.6345,-5.6302,-5.629,-5.6278,-5.6226,-5.6213,-5.617,-5.6114,-5.6082,-5.6062,-5.602,-5.6004,-5.492,-5.2515,-5.2403,-5.2171,-5.1693,-5.1291,-5.1615,-5.2613,-5.2613,-5.2582,-5.2492,-5.1606,-5.1114,-5.4031,-5.6761,-5.8441,-5.7628,-5.353,-4.8619,0.0,0.0,-3.4991,-3.252,-3.2004,-3.1984,-3.2004,-3.271,-3.3565,-3.4361,-3.452,-3.6327,-4.1459,-4.2164,0.0,0.0,0.0,0.0,0.0,0.0,0.0,0.0,0.0,0.0,-6.1607,-6.1607,-6.1607,-6.1607,-6.1607,-6.1597,-6.1603,-6.1603,-6.1592,-6.1595,-6.1595,-6.1648,-6.1699,-6.1699,-6.1705,-6.1701,-6.1701,-6.1701,-6.1701,-6.1701,-6.1701,-6.1701,-6.1701,-6.1665,-6.1601,-6.1678,-6.1626,-6.1514,-6.1589,-6.1553,-6.1519,-6.1578,-6.1607,-6.1607,-6.1588,-6.1588,-6.1607,-6.1607,-6.1607,-6.1607,-6.1607,-6.1607,-6.1607,-6.1607,-6.1607,-6.1607,-6.1607,-6.1607,-6.1607,-6.1607,-6.1548,-6.1495,-6.1509,-6.0063,-5.89,-5.8904,-5.7414,-5.6302,-5.6302,-5.6297,-5.6291,-5.6291,-5.6246,-5.6204,-5.6199,-5.6199,-5.6164,-5.6098,-5.6036,-5.5982,-5.5949,-5.5949,-5.5172,-5.3522,-5.1788,-5.2574,-5.5938,-5.5966,-5.6039,-5.6149,-5.2778,-5.1213,-4.7888,-5.0228,-5.1484,-5.0637,-4.7448,-4.3866,-4.1366,0.0,0.0,-3.2287,-3.2004,-3.2186,-3.2788,-3.3565,-3.44,-3.5249,-3.5842,-3.6813,-3.8481,0.0,0.0,0.0,0.0,0.0,0.0,0.0,0.0,0.0,0.0,-6.1607,-6.1607,-6.1607,-6.1607,-6.1607,-6.1607,-6.1588,-6.1597,-6.1597,-6.1595,-6.1592,-6.1592,-6.1634,-6.1699,-6.1699,-6.1705,-6.1701,-6.1701,-6.1701,-6.1701,-6.1651,-6.1637,-6.1638,-6.1581,-6.1575,-6.1609,-6.1564,-6.1562,-6.1563,-6.1537,-6.1549,-6.1578,-6.1588,-6.1607,-6.1607,-6.1607,-6.1607,-6.1607,-6.1607,-6.1607,-6.1607,-6.1607,-6.1607,-6.1607,-6.1607,-6.1607,-6.1607,-6.1607,-6.1559,-6.1519,-6.1519,-6.1507,-6.1503,-6.1495,-6.0546,-5.9588,-5.8978,-5.7923,-5.6977,-5.6382,-5.6304,-5.6291,-5.6291,-5.6278,-5.6246,-5.6204,-5.6194,-5.6199,-5.6164,-5.6114,-5.6059,-5.6004,-5.5988,-5.5755,-5.5214,-5.4655,-5.4923,-5.6001,-5.6001,-5.6106,-5.6282,-5.5195,-5.4696,0.0,-4.5774,-4.734,-4.6461,-4.3698,0.0,0.0,0.0,0.0,-3.1678,-3.1744,-3.2229,-3.3103,-3.3666,-3.4404,-3.5599,-3.5939,-3.6521,-3.7888,0.0,0.0,0.0,0.0,0.0,0.0,0.0,0.0,0.0,0.0,-6.1607,-6.1607,-6.1607,-6.1607,-6.1607,-6.1607,-6.1597,-6.1597,-6.1597,-6.1606,-6.1603,-6.1603,-6.1619,-6.1654,-6.166,-6.1673,-6.1691,-6.1666,-6.1661,0.0,-6.1619,-6.1582,-6.1557,-6.1541,-6.1544,-6.1549,-6.1543,-6.1541,-6.1553,-6.1549,-6.1578,-6.1607,-6.1607,-6.1607,-6.1607,-6.1607,-6.1607,-6.1607,-6.1607,-6.1607,-6.1588,-6.1558,-6.1558,-6.1548,-6.1537,-6.1518,-6.1528,-6.1528,-6.1518,-6.1498,-6.1498,-6.1472,-6.1467,-6.146,-6.0722,-5.9937,-5.9439,-5.8597,-5.7865,-5.7301,-5.7243,-5.7243,-5.7243,-5.6971,-5.6777,-5.6731,-5.6432,-5.6243,-5.6209,-5.616,-5.611,-5.6075,-5.6043,-5.6026,-5.6026,-5.601,-5.601,-5.601,-5.6004,-5.6056,-5.6194,-5.619,-5.6233,0.0,0.0,0.0,0.0,0.0,0.0,0.0,0.0,0.0,0.0,0.0,0.0,-3.3048,-3.3244,-3.3835,-3.551,-3.5219,-3.5918,-3.9224,-4.1613,0.0,0.0,0.0,0.0,0.0,0.0,0.0,0.0,0.0,-6.1607,-6.1607,-6.1607,-6.1607,-6.1607,-6.1607,-6.1597,-6.1595,-6.1595,-6.1595,-6.1603,-6.1603,-6.1592,-6.1595,-6.1592,-6.1627,-6.1685,-6.1628,-6.1607,-6.16,-6.1601,-6.1559,-6.1505,-6.1568,-6.1543,-6.1506,-6.1563,-6.1553,-6.1519,-6.1578,-6.1607,-6.1607,-6.1607,-6.1607,-6.1578,-6.1578,-6.1578,-6.1578,-6.1578,-6.1578,-6.1568,-6.1515,-6.1491,-6.1479,-6.1408,-6.1389,-6.1396,-6.1415,-6.144,-6.1503,-6.1503,-6.1441,-6.1414,-6.1402,-6.0667,-6.0095,-6.0099,-5.9419,-5.8875,-5.8817,-5.8797,-5.8797,-5.8797,-5.8078,-5.7593,-5.7593,-5.6796,-5.6278,-5.6199,-5.6199,-5.6204,-5.6199,-5.6149,-5.6098,-5.6098,-5.6029,-5.5993,-5.5993,-5.6004,-5.5998,-5.6005,-5.6017,-5.6114,-3.4767,0.0,-3.6234,-3.6021,-3.5391,0.0,0.0,0.0,0.0,0.0,0.0,0.0,0.0,-3.3746,-3.4539,-3.5553,-3.6667,-3.7928,-3.9401,0.0,0.0,0.0,0.0,0.0,0.0,0.0,0.0,0.0,-6.1607,-6.1607,-6.1607,-6.1607,-6.1607,-6.1607,-6.1607,-6.1588,-6.1597,-6.1597,-6.1597,-6.1597,-6.1595,-6.1603,-6.1592,-6.16,-6.1601,-6.1623,-6.16,-6.1598,-6.1596,-6.1592,-6.1588,-6.1563,-6.1547,-6.151,-6.149,-6.152,-6.1549,-6.1578,-6.1588,-6.1607,-6.1607,-6.1607,-6.1558,-6.1526,-6.1526,-6.1526,-6.1526,-6.1526,-6.1491,-6.1434,-6.1428,-6.1428,-6.1408,-6.1402,-6.1396,-6.1408,-6.1472,-6.146,-6.1428,-6.1428,-6.1408,-6.14,-6.1414,-6.1225,-6.0842,-6.0196,-5.9924,-5.9555,-5.8894,-5.8789,-5.8808,-5.8797,-5.8032,-5.7513,-5.7513,-5.6764,-5.6291,-5.6278,-5.6232,-5.6199,-5.6204,-5.618,-5.6149,-5.6098,-5.6024,-5.6004,-5.6004,-5.6013,-5.599,-5.6005,-5.6153,-5.6084,-3.2684,-3.3331,-3.3893,-3.3907,-3.3893,-3.3774,0.0,0.0,0.0,0.0,0.0,0.0,0.0,0.0,0.0,-3.6132,-3.7819,-3.9935,0.0,0.0,0.0,0.0,0.0,0.0,0.0,0.0,0.0,0.0,-6.1607,-6.1607,-6.1607,-6.158,-6.1543,-6.1543,-6.154,-6.1568,-6.1607,-6.1607,-6.1607,-6.1607,-6.1597,-6.1592,-6.1595,-6.1601,-6.1592,-6.16,-6.1599,-6.1581,-6.1553,-6.1543,-6.1541,-6.1549,-6.1509,-6.1498,-6.1489,-6.1529,-6.1578,-6.1607,-6.1607,-6.1568,-6.1548,-6.1548,-6.1515,-6.1454,-6.1454,-6.1421,-6.1375,-6.1434,-6.1428,-6.14,-6.1318,-6.1318,-6.1352,-6.1318,-6.1332,-6.1356,-6.1408,-6.1389,-6.1408,-6.1408,-6.1394,-6.14,-6.14,-6.14,-6.1245,-6.0778,-6.0701,-6.0526,-6.006,-5.9987,-5.9837,-5.9438,-5.8628,-5.7954,-5.7585,-5.675,-5.6246,-5.6238,-5.6223,-5.619,-5.619,-5.618,-5.6133,-5.6098,-5.604,-5.602,-5.6091,-5.6126,-5.6126,-5.6149,-5.6239,-5.6074,-3.1904,-3.3414,-3.4703,-3.4327,-3.4309,-3.4243,0.0,0.0,0.0,0.0,0.0,0.0,0.0,0.0,0.0,0.0,0.0,0.0,0.0,0.0,0.0,0.0,0.0,0.0,0.0,0.0,0.0,-6.1603,-6.1603,-6.1603,-6.158,-6.1529,-6.1509,-6.1502,-6.1504,-6.1538,-6.1597,-6.1586,-6.1595,-6.1586,-6.1595,-6.1609,-6.1606,-6.16,-6.1596,-6.1596,-6.16,-6.1567,-6.1511,-6.1511,-6.1517,-6.1515,-6.1528,-6.1519,-6.1519,-6.1578,-6.1607,-6.1607,-6.1598,-6.1548,-6.1503,-6.1491,-6.1421,-6.1366,-6.1366,-6.1268,-6.122,-6.1318,-6.1352,-6.1337,-6.12,-6.122,-6.1255,-6.1208,-6.1259,-6.1302,-6.1302,-6.1352,-6.14,-6.14,-6.14,-6.14,-6.14,-6.14,-6.14,-6.14,-6.14,-6.14,-6.14,-6.1386,-6.1114,-6.037,-5.9535,-5.8667,-5.7845,-5.6945,-5.634,-5.6199,-5.6199,-5.6199,-5.6199,-5.6149,-5.6133,-5.6133,-5.6056,-5.6091,-5.6214,-5.6257,-5.63,-5.6308,-5.6228,-5.602,-3.2065,-3.3848,-3.5187,-3.3025,-3.2989,-3.3653,0.0,0.0,0.0,0.0,0.0,0.0,0.0,0.0,0.0,0.0,0.0,0.0,0.0,0.0,0.0,0.0,0.0,0.0,0.0,0.0,-6.1595,-6.1596,-6.16,-6.1573,-6.1523,-6.1501,-6.1504,-6.1502,-6.1553,-6.1596,-6.1595,-6.1543,-6.1544,-6.1607,-6.1603,-6.1606,-6.1601,-6.1601,-6.1596,-6.1592,-6.1592,-6.1582,-6.1586,-6.1586,-6.1578,-6.1578,-6.1578,-6.1578,-6.1588,-6.1607,-6.1607,-6.1578,-6.1537,-6.1515,-6.1491,-6.1421,-6.1332,-6.1217,-6.1217,-6.1186,-6.1117,-6.1136,-6.1136,-6.1136,-6.1117,-6.1117,-6.1173,-6.1261,-6.1278,-6.133,-6.1371,-6.1386,-6.14,-6.14,-6.14,-6.14,-6.14,-6.14,-6.14,-6.14,-6.14,-6.14,-6.14,-6.1352,-6.1279,-6.1211,-6.042,-5.9537,-5.8697,-5.7809,-5.698,-5.6238,-5.6199,-5.6199,-5.6199,-5.6199,-5.6184,-5.6184,-5.617,-5.6185,-5.6185,-5.6272,-5.6296,-5.6281,-5.594,-5.5769,-3.1391,-3.2918,-3.4442,-3.4252,-3.5855,0.0,0.0,0.0,0.0,0.0,0.0,0.0,0.0,0.0,0.0,0.0,0.0,0.0,0.0,0.0,0.0,0.0,0.0,0.0,0.0,0.0,-6.1596,-6.159,-6.1561,-6.1522,-6.1494,-6.1471,-6.1447,-6.145,-6.1476,-6.151,-6.1543,-6.152,-6.1523,-6.1592,-6.1592,-6.1601,-6.1609,-6.1606,-6.1603,-6.1607,-6.1607,-6.1603,-6.1607,-6.1607,-6.1607,-6.1607,-6.1607,-6.1607,-6.1607,-6.1558,-6.1548,-6.1537,-6.1479,-6.1408,-6.1327,-6.1298,-6.122,-6.1152,-6.1152,-6.1116,-6.1099,-6.1099,-6.1099,-6.1099,-6.1155,-6.1173,-6.1208,-6.1294,-6.1326,-6.1356,-6.1386,-6.14,-6.14,-6.14,-6.14,-6.14,-6.14,-6.14,-6.14,-6.14,-6.14,-6.14,-6.14,-6.1366,-6.1177,-6.074,-6.0337,-5.9566,-5.8265,-5.7746,-5.7135,-5.6257,-5.6184,-5.6149,-5.6149,-5.6149,-5.6149,-5.6199,-5.6204,-5.6185,-5.6151,-5.6156,-5.6075,-5.5956,-5.5788,-5.5712,-3.1293,-3.2625,-3.4291,-3.588,0.0,0.0,0.0,0.0,0.0,0.0,0.0,0.0,0.0,0.0,0.0,0.0,0.0,0.0,0.0,0.0,0.0,0.0,0.0,0.0,0.0,-6.16,-6.16,-6.1601,-6.1533,-6.1495,-6.1505,-6.1444,-6.1411,-6.1417,-6.144,-6.1461,-6.1529,-6.1511,-6.1557,-6.1598,-6.1601,-6.1606,-6.1601,-6.1601,-6.1595,-6.1607,-6.1607,-6.1607,-6.1607,-6.1607,-6.1607,-6.1607,-6.1607,-6.1578,-6.1568,-6.1515,-6.1491,-6.1447,-6.1381,-6.1302,-6.12,-6.1184,-6.1134,-6.1099,-6.1099,-6.1099,-6.1099,-6.1099,-6.1099,-6.1137,-6.1192,-6.1227,-6.1278,-6.1306,-6.1337,-6.1386,-6.14,-6.14,-6.14,-6.14,-6.14,-6.14,-6.14,-6.14,-6.14,-6.14,-6.14,-6.14,-6.14,-6.14,-6.1147,-6.0487,-6.0409,-5.9807,-5.8311,-5.7935,-5.7518,-5.6849,-5.6556,-5.6311,-5.6133,-5.6308,-5.6343,-5.6194,-5.617,-5.6151,-5.6102,-5.6385,-5.6457,-5.629,-5.5885,-5.5689,-3.2762,-3.4438,-3.5943,-3.6888,0.0,0.0,0.0,0.0,0.0,0.0,0.0,0.0,0.0,0.0,0.0,0.0,0.0,0.0,0.0,0.0,0.0,0.0,0.0,0.0,-6.1577,-6.1601,-6.1603,-6.1595,-6.1529,-6.1509,-6.1498,-6.1433,-6.1431,-6.1498,-6.1556,-6.1588,-6.1598,-6.1588,-6.1593,-6.1592,-6.1607,-6.1595,-6.1597,-6.1597,-6.1597,-6.1607,-6.1607,-6.1607,-6.1607,-6.1607,-6.1607,-6.1607,-6.1607,-6.1558,-6.1503,-6.1503,-6.1467,-6.1381,-6.1268,-6.12,-6.1184,-6.1136,-6.1099,-6.1099,-6.1099,-6.1099,-6.1099,-6.1099,-6.1155,-6.1173,-6.121,-6.121,-6.1208,-6.1287,-6.1302,-6.1318,-6.1386,-6.14,-6.14,-6.14,-6.14,-6.14,-6.14,-6.14,-6.14,-6.14,-6.14,-6.14,-6.14,-6.14,-6.1381,-6.1322,-6.1322,-6.0934,-6.0001,-5.9166,-5.8681,-5.8609,-5.7789,-5.6966,-5.6218,-5.6901,-5.697,-5.6218,-5.6136,-5.6102,-5.6102,-5.7465,-5.8143,-5.8066,-5.6456,-5.5695,-3.1605,-3.3799,-3.5997,-3.6363,0.0,0.0,0.0,0.0,0.0,0.0,0.0,0.0,0.0,0.0,0.0,0.0,0.0,0.0,0.0,0.0,0.0,0.0,-6.1606,-6.1601,-6.1601,-6.1606,-6.1601,-6.1602,-6.1539,-6.1498,-6.1503,-6.1472,-6.1476,-6.15,-6.152,-6.1539,-6.1537,-6.1545,-6.1283,-6.08,-6.1346,-6.1603,-6.1607,-6.1607,-6.1607,-6.1607,-6.1607,-6.1607,-6.1607,-6.1607,-6.1607,-6.1607,-6.1548,-6.1526,-6.1472,-6.1361,-6.1298,-6.1252,-6.1169,-6.1134,-6.1134,-6.1117,-6.1099,-6.1099,-6.1099,-6.1099,-6.1099,-6.1099,-6.1155,-6.121,-6.1245,-6.1259,-6.1291,-6.1337,-6.1352,-6.1371,-6.1386,-6.14,-6.14,-6.14,-6.14,-6.14,-6.14,-6.14,-6.14,-6.14,-6.14,-6.14,-6.14,-6.14,-6.14,-6.14,-6.0914,-6.0468,-6.0137,-5.9302,-5.8797,-5.8797,-5.8455,-5.7881,-5.7038,-5.731,-5.7028,-5.6164,-5.6649,-5.6853,-5.6731,-5.7834,-5.8508,-5.8792,-5.813,-5.8204,-3.2346,-3.4326,0.0,0.0,0.0,0.0,0.0,0.0,0.0,0.0,0.0,0.0,0.0,0.0,0.0,0.0,0.0,0.0,0.0,0.0,0.0,0.0,-6.1599,-6.1592,-6.1592,-6.1607,-6.1483,-6.121,-6.1159,-6.0989,-6.0728,-6.0709,-6.0697,-6.0709,-6.0709,-6.07,-6.0701,-6.0701,-6.0419,-5.9893,-6.0497,-6.0925,-6.1198,-6.1471,-6.1607,-6.1607,-6.1607,-6.1607,-6.1607,-6.1607,-6.1598,-6.1558,-6.1515,-6.146,-6.1389,-6.1248,-6.1184,-6.1169,-6.1117,-6.1099,-6.1099,-6.1099,-6.1099,-6.1099,-6.1099,-6.1099,-6.1099,-6.1137,-6.1173,-6.1245,-6.1294,-6.1306,-6.1318,-6.1386,-6.14,-6.14,-6.14,-6.14,-6.14,-6.14,-6.14,-6.14,-6.14,-6.14,-6.14,-6.14,-6.14,-6.14,-6.14,-6.14,-6.14,-6.14,-6.0875,-6.0506,-6.0506,-5.9963,-5.9632,-5.9632,-5.9624,-5.9105,-5.796,-5.7873,-5.7556,-5.6927,-5.7166,-5.7367,-5.7525,-5.8333,-5.8927,-5.9246,-5.9515,-5.9969,-3.566,-3.6523,0.0,0.0,0.0,0.0,0.0,0.0,0.0,0.0,0.0,0.0,0.0,0.0,0.0,0.0,0.0,0.0,0.0,0.0,0.0,-6.1595,-6.1602,-6.1598,-6.1579,-6.158,-6.1237,-6.0341,-6.0292,-5.9903,-5.9055,-5.8988,-5.9007,-5.8996,-5.8996,-5.8996,-5.8996,-5.8996,-5.8996,-5.8996,-5.8996,-5.9464,-6.0321,-6.1198,-6.1588,-6.1588,-6.1607,-6.1607,-6.1588,-6.1607,-6.1558,-6.1503,-6.1503,-6.1375,-6.12,-6.12,-6.1169,-6.1099,-6.1099,-6.1099,-6.1099,-6.1099,-6.1099,-6.1099,-6.1099,-6.1099,-6.1099,-6.1173,-6.1245,-6.1294,-6.1287,-6.1302,-6.1318,-6.1386,-6.14,-6.14,-6.14,-6.14,-6.14,-6.14,-6.14,-6.14,-6.14,-6.14,-6.14,-6.14,-6.14,-6.14,-6.14,-6.14,-6.14,-6.14,-6.14,-6.14,-6.14,-6.14,-6.14,-6.14,-6.14,-6.0623,-5.8875,-5.868,-5.8632,-5.8703,-5.766,-5.7564,-5.8412,-5.9133,-5.9511,-5.9531,-6.0396,-6.054,-3.3166,0.0,0.0,0.0,0.0,0.0,0.0,0.0,0.0,0.0,0.0,0.0,0.0,0.0,0.0,0.0,0.0,0.0,0.0,0.0,0.0,-6.1601,-6.1607,-6.1358,-6.0754,-6.069,-6.0321,-5.9445,-5.9396,-5.926,-5.9016,-5.8987,-5.9007,-5.8996,-5.8996,-5.8996,-5.8996,-5.8996,-5.8685,-5.8081,-5.8704,-5.9464,-6.0302,-6.0575,-6.0692,-6.0711,-6.1334,-6.1257,-6.073,-6.1295,-6.1491,-6.1408,-6.1332,-6.1248,-6.12,-6.1152,-6.1117,-6.1099,-6.1099,-6.1099,-6.1099,-6.1099,-6.1099,-6.1099,-6.1099,-6.1137,-6.1173,-6.1173,-6.1242,-6.1306,-6.1302,-6.1318,-6.1386,-6.1386,-6.14,-6.14,-6.14,-6.14,-6.14,-6.14,-6.14,-6.14,-6.14,-6.14,-6.14,-6.14,-6.14,-6.14,-6.14,-6.14,-6.14,-6.14,-6.14,-6.14,-6.14,-6.14,-6.14,-6.14,-6.1302,-6.0767,-5.9681,-5.9611,-5.9237,-5.8491,-5.878,-5.9008,-5.9172,-6.0015,-6.0416,-6.0416,-6.0685,-6.0597,-3.5597,0.0,0.0,0.0,0.0,0.0,0.0,0.0,0.0,0.0,0.0,0.0,0.0,0.0,0.0,0.0,0.0,-6.0604,-6.1477,-6.1603,0.0,-6.1121,-6.1077,-6.073,-5.9873,-5.9776,-5.9425,-5.8548,-5.847,-5.8334,-5.8022,-5.8003,-5.8003,-5.8003,-5.8003,-5.8003,-5.8003,-5.8003,-5.773,-5.7223,-5.7749,-5.8442,-5.9241,-5.9611,-5.9961,-6.0273,-6.0427,-6.0183,-5.9774,-6.0604,-6.0903,-6.0871,-6.11,-6.1184,-6.1152,-6.1117,-6.1099,-6.1099,-6.1099,-6.1099,-6.1099,-6.1099,-6.1099,-6.1099,-6.1137,-6.1155,-6.121,-6.1225,-6.1255,-6.1302,-6.1337,-6.1386,-6.14,-6.14,-6.14,-6.14,-6.14,-6.14,-6.14,-6.14,-6.14,-6.14,-6.14,-6.14,-6.14,-6.14,-6.14,-6.14,-6.14,-6.14,-6.14,-6.14,-6.14,-6.14,-6.14,-6.1352,-6.1318,-6.1318,-6.122,-6.0919,-6.0382,-6.0052,-5.9746,-5.9396,-5.9547,-5.9752,-6.0012,-6.0531,-6.08,-6.08,-6.0666,-6.0422,0.0,0.0,0.0,0.0,0.0,0.0,0.0,0.0,0.0,0.0,0.0,0.0,0.0,0.0,0.0,0.0,-6.0222,-6.047,-6.1244,-6.1358,-6.1062,-6.0282,-6.0185,-5.9834,-5.8977,-5.888,-5.8509,-5.7652,-5.7594,-5.7262,-5.6541,-5.6503,-5.6503,-5.6503,-5.6503,-5.6503,-5.6503,-5.6503,-5.6503,-5.6503,-5.6483,-5.6865,-5.7631,-5.8481,-5.9319,-6.0024,-5.9089,-5.8719,-5.8855,-5.9652,-5.9925,-5.996,-6.0696,-6.0919,-6.0886,-6.0963,-6.0983,-6.1002,-6.1079,-6.1099,-6.1099,-6.1099,-6.1099,-6.1117,-6.1192,-6.121,-6.1208,-6.1271,-6.1302,-6.1318,-6.1386,-6.14,-6.14,-6.14,-6.14,-6.14,-6.14,-6.14,-6.14,-6.14,-6.14,-6.14,-6.14,-6.14,-6.14,-6.14,-6.14,-6.14,-6.14,-6.14,-6.14,-6.14,-6.14,-6.1386,-6.1386,-6.1268,-6.12,-6.1184,-6.1116,-6.1041,-6.092,-6.0206,-6.0149,-6.088,-6.0038,-6.0012,-6.08,-6.08,-6.08,-6.08,-6.0449,-6.0102,0.0,0.0,0.0,0.0,0.0,0.0,0.0,0.0,0.0,0.0,0.0,0.0,0.0,0.0,0.0,0.0,-5.9285,-5.9338,-5.9537,-5.9551,-5.9484,-5.9289,-5.9269,-5.8938,-5.8061,-5.7983,-5.7633,-5.6814,-5.6756,-5.6678,-5.6503,-5.6503,-5.6503,-5.6503,-5.6503,-5.6503,-5.6503,-5.6503,-5.6503,-5.6503,-5.6388,-5.6766,-5.7612,-5.7808,-5.834,-5.9037,-5.8169,-5.8148,-5.875,-5.8925,-5.8955,-5.891,-5.9084,-5.9144,-5.9223,-5.9899,-6.0151,-6.0248,-6.0886,-6.1099,-6.1099,-6.1155,-6.1173,-6.1173,-6.1245,-6.1294,-6.1271,-6.1302,-6.1337,-6.1386,-6.14,-6.14,-6.14,-6.14,-6.14,-6.14,-6.14,-6.14,-6.14,-6.14,-6.14,-6.14,-6.14,-6.14,-6.14,-6.14,-6.14,-6.14,-6.14,-6.14,-6.14,-6.14,-6.14,-6.1352,-6.1252,-6.1217,-6.1167,-6.1116,-6.1002,-6.0941,-6.0901,-6.0727,-6.0704,-6.0827,-6.0631,-6.0608,-6.08,-6.08,-6.08,-6.08,-6.0449,-6.0102,0.0,0.0,0.0,0.0,0.0,0.0,0.0,0.0,0.0,0.0,0.0,0.0,0.0,0.0,0.0,0.0,-5.9008,-5.8994,-5.9005,-5.8996,-5.8841,-5.8431,-5.8373,-5.8042,-5.7204,-5.7126,-5.6951,-5.6522,-5.6503,-5.6503,-5.6503,-5.6503,-5.6503,-5.6503,-5.6503,-5.6503,-5.6503,-5.6503,-5.6474,-5.6388,-5.6329,-5.6489,-5.6906,-5.7314,-5.7502,-5.748,-5.6985,-5.7017,-5.7434,-5.786,-5.8,-5.8023,-5.843,-5.8855,-5.9281,-5.9725,-6.0132,-6.0538,-6.0944,-6.1117,-6.1155,-6.1192,-6.1227,-6.1245,-6.1294,-6.1306,-6.1302,-6.1337,-6.1366,-6.14,-6.14,-6.14,-6.14,-6.14,-6.14,-6.14,-6.14,-6.14,-6.14,-6.14,-6.14,-6.14,-6.14,-6.14,-6.14,-6.14,-6.14,-6.14,-6.14,-6.14,-6.1386,-6.1302,-6.1302,-6.1252,-6.1169,-6.1097,-6.1041,-6.1002,-6.0918,-6.0853,-6.0853,-6.0853,-6.085,-6.08,-6.08,-6.08,-6.08,-6.08,-6.08,-6.08,-6.0293,-5.9893,0.0,0.0,0.0,0.0,0.0,0.0,0.0,0.0,0.0,0.0,0.0,0.0,0.0,0.0,0.0,0.0,-5.8568,-5.8568,-5.8568,-5.8568,-5.8295,-5.7574,-5.7496,-5.7223,-5.6561,-5.6503,-5.6503,-5.6503,-5.6503,-5.6425,-5.6269,-5.6269,-5.621,-5.6054,-5.6054,-5.6054,-5.6054,-5.6026,-5.5989,-5.5861,-5.5994,-5.6058,-5.6126,-5.6843,-5.6765,-5.6071,-5.6026,-5.6012,-5.607,-5.6786,-5.7095,-5.7153,-5.7869,-5.8584,-5.9261,-5.9551,-6.0093,-6.0712,-6.1002,-6.1155,-6.121,-6.121,-6.1245,-6.1294,-6.1322,-6.1318,-6.1337,-6.1386,-6.14,-6.14,-6.14,-6.14,-6.14,-6.14,-6.14,-6.14,-6.14,-6.14,-6.14,-6.14,-6.14,-6.14,-6.14,-6.14,-6.14,-6.14,-6.14,-6.14,-6.14,-6.1386,-6.1318,-6.1217,-6.1184,-6.1133,-6.108,-6.0962,-6.0899,-6.0877,-6.0827,-6.08,-6.08,-6.08,-6.08,-6.08,-6.08,-6.08,-6.08,-6.08,-6.08,-6.0781,-6.0102,-5.9677,0.0,0.0,0.0,0.0,0.0,0.0,0.0,0.0,0.0,0.0,0.0,0.0,0.0,0.0,0.0,-5.6831,-5.6834,-5.6834,-5.6834,-5.6834,-5.6795,-5.6658,-5.6658,-5.6619,-5.6503,-5.6503,-5.6503,-5.6503,-5.6503,-5.6171,-5.5411,-5.5372,-5.5041,-5.4262,-5.4242,-5.4242,-5.4242,-5.4178,-5.4159,-5.4149,-5.4783,-5.5409,-5.6029,-5.6126,-5.6126,-5.601,-5.5993,-5.6012,-5.6012,-5.6128,-5.6167,-5.6186,-5.6302,-5.6418,-5.6708,-5.8217,-5.8836,-5.9145,-6.0596,-6.1155,-6.121,-6.1281,-6.1294,-6.1302,-6.1371,-6.1386,-6.1386,-6.14,-6.14,-6.14,-6.14,-6.14,-6.14,-6.14,-6.14,-6.14,-6.14,-6.14,-6.14,-6.14,-6.14,-6.14,-6.14,-6.14,-6.14,-6.14,-6.14,-6.14,-6.14,-6.1302,-6.1217,-6.12,-6.1152,-6.106,-6.0941,-6.0901,-6.0877,-6.0804,-6.0804,-6.08,-6.08,-6.08,-6.08,-6.08,-6.08,-6.08,-6.08,-6.08,-6.08,-6.0781,-6.0102,-5.9772,0.0,0.0,0.0,0.0,0.0,0.0,0.0,0.0,0.0,0.0,0.0,0.0,0.0,0.0,0.0,-5.6492,-5.6503,-5.6503,-5.6503,-5.6503,-5.6308,-5.5821,-5.6191,-5.6308,-5.5821,-5.5762,-5.5762,-5.5762,-5.5314,-5.4885,-5.4496,-5.4476,-5.4301,-5.3911,-5.3911,-5.3875,-5.3828,-5.3808,-5.3766,-5.3676,-5.3989,-5.4536,-5.5335,-5.5335,-5.5567,-5.6012,-5.6012,-5.6012,-5.6012,-5.6012,-5.6012,-5.6012,-5.6012,-5.6302,-5.6824,-5.7598,-5.8178,-5.87,-5.9452,-6.005,-6.0474,-6.0596,-6.0938,-6.1302,-6.1386,-6.14,-6.14,-6.14,-6.14,-6.14,-6.14,-6.14,-6.14,-6.14,-6.14,-6.14,-6.14,-6.14,-6.14,-6.14,-6.14,-6.14,-6.14,-6.14,-6.14,-6.14,-6.14,-6.1366,-6.1302,-6.1236,-6.1167,-6.1041,-6.1022,-6.0941,-6.0853,-6.0831,-6.0827,-6.08,-6.08,-6.08,-6.08,-6.08,-6.08,-6.08,-6.08,-6.08,-6.08,-6.08,-6.08,-6.08,-6.0293,-6.0034,0.0,0.0,0.0,0.0,0.0,0.0,0.0,0.0,0.0,0.0,0.0,0.0,0.0,0.0,0.0,-5.584,-5.584,-5.584,-5.584,-5.584,-5.5606,-5.4944,-5.5431,-5.5587,-5.4924,-5.4866,-5.4866,-5.4866,-5.4281,-5.3794,-5.358,-5.3552,-5.3446,-5.3213,-5.3204,-5.3157,-5.3116,-5.3105,-5.3132,-5.3238,-5.3182,-5.373,-5.4793,-5.4793,-5.5238,-5.6012,-5.6012,-5.6012,-5.6012,-5.6012,-5.6012,-5.6012,-5.6012,-5.6399,-5.6998,-5.723,-5.7714,-5.8351,-5.8792,-5.937,-5.9985,-6.0286,-6.0802,-6.1302,-6.1386,-6.14,-6.14,-6.14,-6.14,-6.14,-6.14,-6.14,-6.14,-6.14,-6.14,-6.14,-6.14,-6.14,-6.14,-6.14,-6.14,-6.14,-6.14,-6.14,-6.14,-6.14,-6.1386,-6.1302,-6.1217,-6.1167,-6.1079,-6.0901,-6.0877,-6.0853,-6.0781,-6.08,-6.08,-6.08,-6.08,-6.08,-6.08,-6.08,-6.08,-6.08,-6.08,-6.08,-6.08,-6.08,-6.08,-6.08,-6.0449,-6.0255,0.0,0.0,0.0,0.0,0.0,0.0,0.0,0.0,0.0,0.0,0.0,0.0,0.0,0.0,0.0,-5.4048,-5.4048,-5.4048,-5.4048,-5.4048,-5.4028,-5.397,-5.4009,-5.4028,-5.397,-5.397,-5.397,-5.397,-5.3931,-5.3541,-5.2703,-5.2601,-5.2183,-5.1366,-5.1275,-5.1241,-5.1241,-5.1179,-5.1518,-5.2276,-5.226,-5.3149,-5.4793,-5.4793,-5.5238,-5.6012,-5.6012,-5.6012,-5.6012,-5.6012,-5.6012,-5.6012,-5.6012,-5.6031,-5.6167,-5.6998,-5.7364,-5.7688,-5.9279,-5.9913,-6.0134,-6.0968,-6.1271,-6.1302,-6.1386,-6.14,-6.14,-6.14,-6.14,-6.14,-6.14,-6.14,-6.14,-6.14,-6.14,-6.14,-6.14,-6.14,-6.14,-6.14,-6.14,-6.14,-6.14,-6.14,-6.14,-6.14,-6.1302,-6.12,-6.12,-6.1022,-6.0901,-6.0901,-6.0831,-6.0781,-6.08,-6.08,-6.08,-6.08,-6.08,-6.08,-6.08,-6.08,-6.08,-6.08,-6.08,-6.08,-6.08,-6.08,-6.08,-6.08,-6.0449,-6.0293,0.0,0.0,0.0,0.0,0.0,0.0,0.0,0.0,0.0,0.0,0.0,0.0,0.0,0.0,0.0,-5.3911,-5.3911,-5.3911,-5.3911,-5.3911,-5.3697,-5.3132,-5.356,-5.3677,-5.3112,-5.3073,-5.3073,-5.3073,-5.2522,-5.2037,-5.1725,-5.1638,-5.147,-5.1159,-5.1117,-5.1081,-5.1043,-5.0961,-5.1091,-5.137,-5.1931,-5.2821,-5.3981,-5.4542,-5.5238,-5.6012,-5.6012,-5.6012,-5.6012,-5.6012,-5.6012,-5.6012,-5.6012,-5.6029,-5.6084,-5.6413,-5.6563,-5.6788,-5.7915,-5.8651,-5.9268,-6.0208,-6.0883,-6.131,-6.1371,-6.14,-6.14,-6.14,-6.14,-6.14,-6.14,-6.14,-6.14,-6.14,-6.14,-6.14,-6.14,-6.14,-6.14,-6.14,-6.14,-6.1366,-6.1287,-6.1268,-6.1271,-6.1206,-6.1171,-6.1116,-6.1022,-6.0942,-6.0877,-6.0831,-6.0804,-6.08,-6.08,-6.08,-6.08,-6.08,-6.08,-6.08,-6.08,-6.08,-6.08,-6.08,-6.08,-6.08,-6.08,-6.08,-6.08,-6.08,-6.0666,-6.052,0.0,0.0,0.0,0.0,0.0,0.0,0.0,0.0,0.0,0.0,0.0,0.0,0.0,0.0,0.0,-5.3034,-5.3034,-5.3034,-5.3034,-5.3034,-5.282,-5.2236,-5.2664,-5.2801,-5.2216,-5.2158,-5.215,-5.2133,-5.156,-5.1181,-5.1161,-5.1105,-5.1056,-5.103,-5.103,-5.1017,-5.0961,-5.0921,-5.0906,-5.0925,-5.1776,-5.2647,-5.3536,-5.4404,-5.5236,-5.6012,-5.6029,-5.6029,-5.6012,-5.6012,-5.6012,-5.6029,-5.6029,-5.6082,-5.6133,-5.6133,-5.6164,-5.6311,-5.7129,-5.7754,-5.8432,-5.9696,-6.0472,-6.0961,-6.1294,-6.14,-6.14,-6.14,-6.14,-6.14,-6.14,-6.14,-6.14,-6.14,-6.14,-6.14,-6.14,-6.14,-6.14,-6.14,-6.1352,-6.1302,-6.1217,-6.1184,-6.1152,-6.1099,-6.1061,-6.1002,-6.0901,-6.0877,-6.0853,-6.0804,-6.08,-6.08,-6.08,-6.08,-6.08,-6.08,-6.08,-6.08,-6.08,-6.08,-6.08,-6.08,-6.08,-6.0935,-6.1243,-6.0935,-6.08,-6.08,-6.1089,-6.0994,0.0,0.0,0.0,0.0,0.0,0.0,0.0,0.0,0.0,0.0,0.0,0.0,0.0,0.0,0.0,-5.13,-5.13,-5.13,-5.13,-5.13,-5.13,-5.13,-5.13,-5.13,-5.13,-5.13,-5.1256,-5.1191,-5.1211,-5.1161,-5.1105,-5.103,-5.0961,-5.0906,-5.0906,-5.0906,-5.0906,-5.0906,-5.0906,-5.0925,-5.1776,-5.2647,-5.3517,-5.4397,-5.5249,-5.6012,-5.6082,-5.6046,-5.6012,-5.5993,-5.6029,-5.6098,-5.6098,-5.6149,-5.6199,-5.6199,-5.6209,-5.6315,-5.7125,-5.7435,-5.779,-5.9498,-6.008,-6.0255,-6.1114,-6.1381,-6.14,-6.14,-6.14,-6.14,-6.14,-6.14,-6.14,-6.14,-6.14,-6.14,-6.1386,-6.1386,-6.1386,-6.1386,-6.1287,-6.12,-6.12,-6.1134,-6.1099,-6.108,-6.0982,-6.0899,-6.0899,-6.0831,-6.08,-6.08,-6.08,-6.08,-6.08,-6.08,-6.08,-6.08,-6.08,-6.08,-6.08,-6.08,-6.08,-6.08,-6.08,-6.1223,-6.2089,-6.1243,-6.0839,-6.0896,-6.1704,-6.1666,-3.2567,0.0,0.0,0.0,0.0,0.0,0.0,0.0,0.0,0.0,0.0,0.0,0.0,0.0,0.0,-5.13,-5.13,-5.13,-5.13,-5.13,-5.13,-5.13,-5.13,-5.13,-5.13,-5.1248,-5.122,0.0,-5.1117,-5.1043,-5.103,-5.0961,-5.0952,-5.1039,-5.1005,-5.1005,-5.1039,-5.1053,-5.1053,-5.1053,-5.1886,-5.2705,-5.3526,-5.4397,-5.5269,-5.6082,-5.6029,-5.6082,-5.6149,-5.6098,-5.6082,-5.6098,-5.6149,-5.6194,-5.6204,-5.6204,-5.6232,-5.6395,-5.7188,-5.7485,-5.7693,-5.8799,-5.9595,-6.0138,-6.0395,-6.0895,-6.14,-6.14,-6.14,-6.14,-6.14,-6.14,-6.14,-6.14,-6.14,-6.1366,-6.1287,-6.1252,-6.1252,-6.1252,-6.1236,-6.1167,-6.1022,-6.0963,-6.0941,-6.0894,-6.085,-6.0827,-6.0827,-6.0804,-6.08,-6.08,-6.08,-6.08,-6.08,-6.08,-6.08,-6.08,-6.08,-6.08,-6.08,-6.08,-6.08,-6.08,-6.08,-6.1223,-6.2089,-6.1858,-6.2031,-6.2584,-6.1717,-6.1178,0.0,0.0,0.0,0.0,0.0,0.0,-3.9863,-4.2112,0.0,0.0,0.0,0.0,0.0,0.0,0.0,-5.0696,-5.0755,-5.0872,-5.1242,-5.13,-5.13,-5.13,-5.1284,-5.1256,-5.1256,-5.1211,-5.115,-5.1159,-5.1088,-5.1037,-5.0995,-5.0952,-5.0956,-5.1005,-5.1005,-5.102,-5.1053,-5.1087,-5.1261,-5.1615,-5.241,-5.3228,-5.4065,-5.4971,-5.5649,-5.6149,-5.6098,-5.6133,-5.6199,-5.6149,-5.613,-5.6145,-5.6175,-5.6223,-5.6246,-5.6246,-5.6278,-5.6369,-5.6847,-5.6989,-5.7139,-5.8032,-5.8867,-5.9643,-6.0001,-6.072,-6.14,-6.14,-6.14,-6.14,-6.14,-6.14,-6.14,-6.14,-6.1352,-6.1302,-6.1217,-6.1167,-6.1169,-6.1169,-6.1115,-6.1041,-6.0922,-6.0877,-6.0853,-6.0823,-6.08,-6.08,-6.08,-6.08,-6.08,-6.08,-6.08,-6.08,-6.08,-6.08,-6.08,-6.08,-6.08,-6.08,-6.08,-6.08,-6.08,-6.08,-6.08,-6.1223,-6.2089,-6.2089,-6.2704,-6.3795,-6.1904,-6.1188,0.0,0.0,0.0,0.0,-3.5328,0.0,-3.9725,-4.1166,-4.2763,0.0,0.0,0.0,0.0,0.0,0.0,-4.9177,-4.9527,-5.0092,-5.1145,-5.13,-5.13,-5.1292,-5.1239,-5.1211,-5.1201,-5.1128,-5.1081,-5.1108,-5.1095,-5.1069,-5.1,-5.102,-5.0971,-5.0921,-5.0971,-5.1058,-5.1155,-5.1203,-5.1649,-5.2438,-5.3189,-5.3964,-5.4855,-5.568,-5.6102,-5.6199,-5.6199,-5.6199,-5.6214,-5.6214,-5.6209,-5.6199,-5.6199,-5.6246,-5.6291,-5.6291,-5.6291,-5.6291,-5.6291,-5.6291,-5.6447,-5.7321,-5.8137,-5.8952,-5.9846,-6.072,-6.14,-6.14,-6.14,-6.14,-6.14,-6.1386,-6.1386,-6.1386,-6.1287,-6.1184,-6.1167,-6.1116,-6.108,-6.1061,-6.0982,-6.0899,-6.0899,-6.0831,-6.08,-6.08,-6.08,-6.08,-6.08,-6.08,-6.08,-6.08,-6.08,-6.08,-6.08,-6.08,-6.08,-6.08,-6.08,-6.08,-6.08,-6.08,-6.08,-6.08,-6.0896,-6.132,-6.2089,-6.2185,-6.2993,-6.4391,-6.2094,-6.1416,0.0,0.0,-3.5946,-3.5703,-3.5776,0.0,-3.6674,-3.8027,-3.9552,0.0,0.0,0.0,0.0,0.0,0.0,-4.4832,-4.6605,-4.8768,-5.0989,-5.13,-5.1284,-5.123,-5.1211,-5.1201,-5.12,-5.1101,-5.1043,-5.1093,-5.1102,-5.1095,-5.1082,-5.1081,-5.1081,-5.1069,-5.1062,-5.1397,-5.2036,-5.2117,-5.2563,-5.3354,-5.356,-5.4089,-5.4885,-5.5084,-5.5544,-5.6204,-5.6194,-5.6228,-5.6284,-5.6218,-5.6199,-5.6199,-5.6246,-5.6291,-5.6291,-5.6291,-5.6291,-5.6291,-5.6291,-5.6291,-5.6447,-5.7321,-5.8137,-5.8952,-5.9846,-6.072,-6.14,-6.14,-6.14,-6.14,-6.14,-6.1318,-6.1252,-6.1252,-6.1169,-6.1079,-6.0983,-6.0942,-6.092,-6.0872,-6.0897,-6.0877,-6.0827,-6.0823,-6.08,-6.08,-6.08,-6.08,-6.08,-6.08,-6.08,-6.08,-6.08,-6.08,-6.08,-6.08,-6.08,-6.08,-6.08,-6.08,-6.08,-6.08,-6.08,-6.08,-6.1493,-6.1916,-6.2089,-6.2743,-6.3243,-6.3507,-6.1808,-6.1093,-3.6562,-3.5997,-3.5984,-3.5917,-3.5903,0.0,0.0,-3.7825,-3.8812,-4.0126,-4.1078,-4.1785,-4.2213,0.0,-4.2432,-4.2833,-4.4737,-4.6458,-4.7298,-4.9281,-5.0625,-5.0559,-5.0169,-5.0081,-5.0506,-5.0455,-5.0604,-5.1062,-5.1127,-5.1134,-5.1095,-5.1102,-5.1075,-5.1042,-5.1081,-5.1494,-5.2293,-5.2336,-5.2995,-5.426,-5.4283,-5.473,-5.555,-5.5544,-5.5805,-5.6246,-5.6204,-5.6238,-5.6291,-5.6232,-5.6213,-5.6246,-5.6291,-5.6291,-5.6291,-5.6291,-5.6291,-5.6291,-5.6291,-5.6291,-5.6369,-5.6816,-5.7787,-5.8875,-5.9322,-6.037,-6.14,-6.14,-6.1352,-6.1302,-6.1302,-6.1239,-6.1152,-6.1152,-6.1079,-6.0982,-6.0901,-6.0877,-6.0831,-6.0823,-6.0827,-6.0831,-6.0823,-6.08,-6.08,-6.08,-6.08,-6.08,-6.08,-6.08,-6.08,-6.08,-6.08,-6.08,-6.08,-6.08,-6.08,-6.08,-6.08,-6.08,-6.08,-6.08,-6.08,-6.08,-6.1223,-6.1435,-6.1435,-6.1858,-6.2493,-6.3257,-6.1732,-6.0999,-3.7008,-3.625,-3.6227,-3.6179,-3.6141,-3.6485,0.0,0.0,0.0,0.0,0.0,0.0,0.0,0.0,0.0,0.0,0.0,0.0,0.0,-4.6065,0.0,-4.8632,-4.863,-4.8735,-4.9112,-4.9096,-4.9634,-5.0998,-5.0693,-5.0647,-5.1108,-5.1127,-5.1102,-5.1015,-5.1081,-5.1552,-5.2515,-5.254,-5.3427,-5.5137,-5.5133,-5.553,-5.6199,-5.6213,-5.6246,-5.6291,-5.6246,-5.6246,-5.6291,-5.6246,-5.6246,-5.6291,-5.6291,-5.6291,-5.6291,-5.6291,-5.6291,-5.6291,-5.6291,-5.6291,-5.633,-5.6505,-5.767,-5.9088,-5.923,-6.0245,-6.1352,-6.1356,-6.1271,-6.1184,-6.1184,-6.1116,-6.1061,-6.1061,-6.0962,-6.0877,-6.0877,-6.085,-6.08,-6.08,-6.08,-6.08,-6.08,-6.08,-6.08,-6.08,-6.08,-6.08,-6.08,-6.08,-6.08,-6.08,-6.08,-6.08,-6.08,-6.08,-6.08,-6.08,-6.08,-6.08,-6.08,-6.08,-6.08,-6.08,-6.08,-6.08,-6.08,-6.08,-6.1493,-6.2776,-6.1397,-6.079,-3.8173,-3.7116,-3.714,-3.7074,-3.7047,-3.6897,-3.6337,0.0,-3.6242,-3.6448,0.0,0.0,0.0,0.0,0.0,0.0,0.0,0.0,-4.0063,-4.1801,-4.3345,-4.404,-4.6771,-4.8033,-4.6589,-4.6449,-4.7722,-5.0862,-4.9004,-4.8755,-5.1074,-5.119,-5.1159,-5.1082,-5.1114,-5.1832,-5.3348,-5.3417,-5.4304,-5.5962,-5.602,-5.6102,-5.6199,-5.6259,-5.6291,-5.6291,-5.6291,-5.6291,-5.6291,-5.6291,-5.6291,-5.6291,-5.6291,-5.6291,-5.6291,-5.6291,-5.6291,-5.6291,-5.6291,-5.6291,-5.6427,-5.7204,-5.8583,-6.0065,-6.0728,-6.1062,-6.122,-6.1154,-6.1117,-6.1117,-6.1117,-6.1022,-6.0922,-6.0922,-6.0875,-6.0804,-6.0804,-6.0823,-6.08,-6.08,-6.08,-6.08,-6.08,-6.08,-6.08,-6.08,-6.08,-6.08,-6.08,-6.08,-6.08,-6.08,-6.08,-6.08,-6.08,-6.08,-6.08,-6.08,-6.08,-6.08,-6.08,-6.08,-6.08,-6.08,-6.08,-6.08,-6.08,-6.08,-6.0896,-6.1069,-6.0292,-5.9942,-3.8004,-3.799,-3.8625,-3.8088,-3.871,-3.9103,-3.7726,-3.7027,-3.6657,-3.6657,0.0,0.0,0.0,0.0,0.0,0.0,-3.752,0.0,0.0,0.0,-4.1732,0.0,0.0,0.0,-4.5165,-4.6616,-4.8094,-4.9528,-4.9132,-4.9279,-5.0386,-5.093,-5.1171,-5.1095,-5.1095,-5.187,-5.3484,-5.3538,-5.4173,-5.5413,-5.5942,-5.5952,-5.5508,-5.6058,-5.6291,-5.6291,-5.6291,-5.6291,-5.6291,-5.6291,-5.6291,-5.6291,-5.6291,-5.6291,-5.6291,-5.6291,-5.6291,-5.6291,-5.6291,-5.6291,-5.6524,-5.7809,-5.8657,-5.9404,-6.0745,-6.1134,-6.1134,-6.1117,-6.1041,-6.0982,-6.0982,-6.0899,-6.0831,-6.0831,-6.0827,-6.08,-6.08,-6.08,-6.08,-6.08,-6.08,-6.08,-6.08,-6.08,-6.08,-6.08,-6.08,-6.08,-6.08,-6.08,-6.08,-6.08,-6.08,-6.08,-6.08,-6.08,-6.08,-6.08,-6.08,-6.08,-6.08,-6.08,-6.08,-6.08,-6.08,-6.08,-6.08,-6.08,-6.071,-6.0494,-6.0011,-5.9791,-3.9283,-3.9593,-4.0249,-3.9135,-3.9808,-4.0343,-3.8848,-3.8194,-3.7843,-3.7603,-3.7221,0.0,0.0,0.0,0.0,0.0,0.0,-3.7424,0.0,-3.7869,0.0,0.0,0.0,0.0,0.0,-4.5479,-4.6849,-4.7811,-4.8472,-4.9143,-4.9862,-5.0736,-5.1171,-5.1095,-5.1127,-5.1884,-5.3484,-5.3538,-5.3998,-5.4919,-5.5787,-5.5777,-5.5029,-5.5903,-5.6291,-5.6291,-5.6291,-5.6291,-5.6291,-5.6291,-5.6291,-5.6291,-5.6291,-5.6278,-5.6246,-5.6246,-5.6246,-5.6246,-5.6218,-5.6373,-5.6805,-5.8199,-5.8734,-5.9145,-6.0597,-6.1061,-6.1041,-6.1021,-6.096,-6.0877,-6.0877,-6.085,-6.08,-6.08,-6.08,-6.08,-6.08,-6.08,-6.08,-6.08,-6.08,-6.08,-6.08,-6.08,-6.08,-6.08,-6.08,-6.08,-6.08,-6.08,-6.08,-6.08,-6.08,-6.08,-6.08,-6.08,-6.08,-6.08,-6.08,-6.08,-6.08,-6.08,-6.08,-6.08,-6.08,-6.08,-6.08,-6.08,-6.0641,-6.0293,-5.995,-5.9725,-4.3144,-4.2275,-4.1892,-4.0196,-3.9809,-3.9603,-3.8706,-3.9135,-3.9472,-3.8642,-3.9059,-3.9331,-3.8463,-3.8266,0.0,0.0,0.0,0.0,0.0,0.0,0.0,0.0,0.0,0.0,0.0,-4.1496,-4.2457,0.0,-4.6119,-4.7237,-4.9765,-5.0736,-5.1171,-5.1095,-5.1159,-5.1949,-5.3484,-5.3635,-5.4095,-5.4919,-5.5777,-5.5786,-5.5029,-5.5903,-5.6291,-5.6291,-5.6291,-5.6291,-5.6291,-5.6291,-5.6291,-5.6291,-5.6291,-5.6213,-5.6102,-5.6102,-5.6102,-5.6087,-5.6026,-5.6553,-5.7404,-5.8236,-5.9068,-5.9901,-6.0671,-6.092,-6.0899,-6.0827,-6.0823,-6.08,-6.08,-6.08,-6.08,-6.08,-6.08,-6.08,-6.08,-6.08,-6.08,-6.08,-6.08,-6.08,-6.08,-6.08,-6.08,-6.08,-6.08,-6.08,-6.08,-6.08,-6.08,-6.08,-6.08,-6.08,-6.08,-6.08,-6.08,-6.08,-6.08,-6.08,-6.08,-6.08,-6.08,-6.08,-6.08,-6.08,-6.08,-6.08,-6.0641,-6.0293,-5.995,-5.9571,-4.4203,-4.4894,-4.5211,-4.2887,-4.3189,-4.3365,-4.0797,-3.9992,-3.9711,-3.9413,-3.9129,-3.8643,-3.776,0.0,0.0,0.0,0.0,0.0,0.0,0.0,-3.5695,-3.5704,0.0,0.0,0.0,0.0,0.0,-4.4245,-4.6399,-4.806,-4.8988,-5.0363,-5.1139,-5.1171,-5.1159,-5.1949,-5.3615,-5.3635,-5.4056,-5.491,-5.5777,-5.5766,-5.5029,-5.5903,-5.6291,-5.6291,-5.6291,-5.6291,-5.6291,-5.6291,-5.6291,-5.6291,-5.6199,-5.6151,-5.6102,-5.6102,-5.6071,-5.6026,-5.6012,-5.617,-5.6599,-5.7989,-5.8605,-5.9064,-6.0426,-6.0831,-6.0827,-6.0823,-6.08,-6.08,-6.08,-6.08,-6.08,-6.08,-6.08,-6.08,-6.08,-6.08,-6.08,-6.08,-6.08,-6.08,-6.08,-6.08,-6.08,-6.08,-6.08,-6.08,-6.08,-6.08,-6.08,-6.08,-6.08,-6.08,-6.08,-6.08,-6.08,-6.08,-6.08,-6.08,-6.08,-6.08,-6.08,-6.08,-6.08,-6.08,-6.08,-6.0572,-6.0293,-5.995,-5.9571,-5.9325,-4.629,-4.71,-4.74,-4.5109,-4.5362,-4.5455,-4.2623,-4.1785,-4.1524,-4.1217,-4.046,-3.9961,-4.0325,-3.9556,0.0,0.0,0.0,0.0,0.0,-3.5706,-3.5704,-3.5704,-3.6693,0.0,0.0,0.0,-4.2078,-4.3372,-4.5747,-4.7563,-4.8499,-4.9916,-5.0817,-5.1146,-5.1146,-5.1806,-5.3197,-5.3178,-5.3604,-5.4491,-5.5359,-5.5488,-5.5029,-5.5903,-5.6291,-5.6291,-5.6291,-5.6291,-5.6291,-5.6291,-5.6278,-5.6213,-5.6117,-5.6071,-5.6026,-5.6026,-5.5975,-5.5943,-5.6252,-5.6522,-5.6982,-5.8351,-5.8982,-5.9396,-6.0473,-6.08,-6.08,-6.08,-6.08,-6.08,-6.08,-6.08,-6.08,-6.08,-6.08,-6.08,-6.08,-6.08,-6.08,-6.08,-6.08,-6.08,-6.08,-6.08,-6.08,-6.08,-6.08,-6.08,-6.08,-6.08,-6.08,-6.08,-6.08,-6.08,-6.08,-6.08,-6.08,-6.08,-6.08,-6.08,-6.08,-6.08,-6.0954,-6.1262,-6.0954,-6.0954,-6.1262,-6.0602,-6.015,-5.9791,-5.9397,-5.914]}]]